Wetterdaten: Samstag, 28.05.2016
Datum Zeit Temp. A. Feuchte A. Luftdruck Regen Wind Richtung Richtung Sonnenschein ET UV Solar Taupunkt Windchill Windben Empfang
28.05.2016 00:00 17,8 C 92 % 1012,6 hPa 0,0 l/m 2,6 km/h (1 Bft) W-SW 256 0 min 0,000 mm 0,0 UV-I 0 W/m 16,5 C 17,8 C 3,2 km/h (1 Bft) 100,00 %
28.05.2016 00:02 17,8 C 92 % 1012,6 hPa 0,0 l/m 1,6 km/h (1 Bft) W-SW 256 0 min 0,000 mm 0,0 UV-I 0 W/m 16,5 C 17,8 C 3,2 km/h (1 Bft) 97,50 %
28.05.2016 00:03 17,8 C 92 % 1012,6 hPa 0,0 l/m 1,0 km/h (0 Bft) W-SW 256 0 min 0,000 mm 0,0 UV-I 0 W/m 16,5 C 17,8 C 1,6 km/h (1 Bft) 100,00 %
28.05.2016 00:04 17,8 C 92 % 1012,6 hPa 0,0 l/m 0,3 km/h (0 Bft) W-SW 256 0 min 0,000 mm 0,0 UV-I 0 W/m 16,5 C 17,8 C 1,6 km/h (1 Bft) 100,00 %
28.05.2016 00:05 17,8 C 92 % 1012,6 hPa 0,0 l/m 0,1 km/h (0 Bft) W-SW 256 0 min 0,000 mm 0,0 UV-I 0 W/m 16,5 C 17,8 C 1,6 km/h (1 Bft) 95,65 %
28.05.2016 00:06 17,9 C 92 % 1012,5 hPa 0,0 l/m 1,3 km/h (1 Bft) W-SW 256 0 min 0,000 mm 0,0 UV-I 0 W/m 16,6 C 17,9 C 1,6 km/h (1 Bft) 100,00 %
28.05.2016 00:07 17,9 C 92 % 1012,5 hPa 0,0 l/m 0,3 km/h (0 Bft) W-SW 256 0 min 0,000 mm 0,0 UV-I 0 W/m 16,6 C 17,9 C 1,6 km/h (1 Bft) 100,00 %
28.05.2016 00:08 17,9 C 92 % 1012,6 hPa 0,0 l/m 2,1 km/h (1 Bft) W-SW 256 0 min 0,000 mm 0,0 UV-I 0 W/m 16,6 C 17,9 C 3,2 km/h (1 Bft) 95,65 %
28.05.2016 00:09 17,9 C 92 % 1012,6 hPa 0,0 l/m 1,5 km/h (1 Bft) W-SW 256 0 min 0,000 mm 0,0 UV-I 0 W/m 16,6 C 17,9 C 3,2 km/h (1 Bft) 100,00 %
28.05.2016 00:10 17,9 C 92 % 1012,6 hPa 0,0 l/m 3,6 km/h (1 Bft) SW 217 0 min 0,000 mm 0,0 UV-I 0 W/m 16,6 C 17,9 C 4,8 km/h (1 Bft) 95,65 %
28.05.2016 00:11 17,9 C 92 % 1012,6 hPa 0,0 l/m 1,9 km/h (1 Bft) SW 217 0 min 0,000 mm 0,0 UV-I 0 W/m 16,6 C 17,9 C 3,2 km/h (1 Bft) 100,00 %
28.05.2016 00:12 17,9 C 91 % 1012,6 hPa 0,0 l/m 2,0 km/h (1 Bft) SW 217 0 min 0,000 mm 0,0 UV-I 0 W/m 16,4 C 17,9 C 4,8 km/h (1 Bft) 95,65 %
28.05.2016 00:13 18,0 C 91 % 1012,6 hPa 0,0 l/m 1,4 km/h (1 Bft) SW 217 0 min 0,000 mm 0,0 UV-I 0 W/m 16,5 C 18,0 C 3,2 km/h (1 Bft) 96,30 %
28.05.2016 00:16 18,0 C 91 % 1012,5 hPa 0,0 l/m 2,4 km/h (1 Bft) SW 217 0 min 0,000 mm 0,0 UV-I 0 W/m 16,5 C 18,0 C 3,2 km/h (1 Bft) 98,57 %
28.05.2016 00:17 17,9 C 91 % 1012,5 hPa 0,0 l/m 2,4 km/h (1 Bft) SW 217 0 min 0,000 mm 0,0 UV-I 0 W/m 16,4 C 17,9 C 3,2 km/h (1 Bft) 95,83 %
28.05.2016 00:18 17,9 C 91 % 1012,4 hPa 0,0 l/m 2,8 km/h (1 Bft) SW 217 0 min 0,000 mm 0,0 UV-I 0 W/m 16,4 C 17,9 C 3,2 km/h (1 Bft) 100,00 %
28.05.2016 00:19 17,9 C 91 % 1012,4 hPa 0,0 l/m 3,5 km/h (1 Bft) SW 217 0 min 0,000 mm 0,0 UV-I 0 W/m 16,4 C 17,9 C 4,8 km/h (1 Bft) 96,55 %
28.05.2016 00:20 17,8 C 91 % 1012,4 hPa 0,0 l/m 4,2 km/h (1 Bft) SW 216 0 min 0,000 mm 0,0 UV-I 0 W/m 16,3 C 17,8 C 4,8 km/h (1 Bft) 100,00 %
28.05.2016 00:21 17,8 C 91 % 1012,4 hPa 0,0 l/m 4,6 km/h (1 Bft) SW 214 0 min 0,000 mm 0,0 UV-I 0 W/m 16,3 C 17,8 C 6,4 km/h (2 Bft) 95,65 %
28.05.2016 00:22 17,7 C 91 % 1012,4 hPa 0,0 l/m 4,7 km/h (1 Bft) SW 214 0 min 0,000 mm 0,0 UV-I 0 W/m 16,2 C 17,7 C 4,8 km/h (1 Bft) 95,83 %
28.05.2016 00:23 17,6 C 91 % 1012,4 hPa 0,0 l/m 4,7 km/h (1 Bft) N-NO 12 0 min 0,000 mm 0,0 UV-I 0 W/m 16,1 C 17,6 C 6,4 km/h (2 Bft) 96,55 %
28.05.2016 00:24 17,6 C 92 % 1012,4 hPa 0,0 l/m 4,8 km/h (1 Bft) N-NO 15 0 min 0,000 mm 0,0 UV-I 0 W/m 16,3 C 17,6 C 6,4 km/h (2 Bft) 100,00 %
28.05.2016 00:25 17,5 C 92 % 1012,4 hPa 0,0 l/m 3,1 km/h (1 Bft) N-NO 15 0 min 0,000 mm 0,0 UV-I 0 W/m 16,2 C 17,5 C 4,8 km/h (1 Bft) 93,10 %
28.05.2016 00:26 17,4 C 92 % 1012,5 hPa 0,0 l/m 1,6 km/h (1 Bft) N-NO 15 0 min 0,000 mm 0,0 UV-I 0 W/m 16,1 C 17,4 C 3,2 km/h (1 Bft) 96,30 %
28.05.2016 00:27 17,4 C 92 % 1012,5 hPa 0,0 l/m 0,2 km/h (0 Bft) N-NO 15 0 min 0,000 mm 0,0 UV-I 0 W/m 16,1 C 17,4 C 1,6 km/h (1 Bft) 96,15 %
28.05.2016 00:28 17,3 C 92 % 1012,5 hPa 0,0 l/m 0,3 km/h (0 Bft) N-NO 15 0 min 0,000 mm 0,0 UV-I 0 W/m 16,0 C 17,3 C 1,6 km/h (1 Bft) 95,83 %
28.05.2016 00:29 17,3 C 92 % 1012,5 hPa 0,0 l/m 0,0 km/h (0 Bft) N-NO 15 0 min 0,000 mm 0,0 UV-I 0 W/m 16,0 C 17,3 C 0,0 km/h (0 Bft) 100,00 %
28.05.2016 00:30 17,3 C 93 % 1012,5 hPa 0,0 l/m 0,0 km/h (0 Bft) N-NO 15 0 min 0,000 mm 0,0 UV-I 0 W/m 16,2 C 17,3 C 0,0 km/h (0 Bft) 95,83 %
28.05.2016 00:31 17,3 C 92 % 1012,4 hPa 0,0 l/m 0,0 km/h (0 Bft) N-NO 15 0 min 0,000 mm 0,0 UV-I 0 W/m 16,0 C 17,3 C 0,0 km/h (0 Bft) 96,15 %
28.05.2016 00:32 17,2 C 92 % 1012,4 hPa 0,0 l/m 0,1 km/h (0 Bft) N-NO 15 0 min 0,000 mm 0,0 UV-I 0 W/m 15,9 C 17,2 C 1,6 km/h (1 Bft) 100,00 %
28.05.2016 00:33 17,2 C 92 % 1012,4 hPa 0,0 l/m 0,1 km/h (0 Bft) N-NO 15 0 min 0,000 mm 0,0 UV-I 0 W/m 15,9 C 17,2 C 1,6 km/h (1 Bft) 95,65 %
28.05.2016 00:34 17,2 C 93 % 1012,4 hPa 0,0 l/m 2,8 km/h (1 Bft) SW 236 0 min 0,000 mm 0,0 UV-I 0 W/m 16,1 C 17,2 C 3,2 km/h (1 Bft) 100,00 %
28.05.2016 00:35 17,3 C 93 % 1012,4 hPa 0,0 l/m 1,3 km/h (1 Bft) W 259 0 min 0,000 mm 0,0 UV-I 0 W/m 16,2 C 17,3 C 3,2 km/h (1 Bft) 88,46 %
28.05.2016 00:36 17,3 C 93 % 1012,5 hPa 0,0 l/m 0,8 km/h (0 Bft) W-NW 284 0 min 0,000 mm 0,0 UV-I 0 W/m 16,2 C 17,3 C 3,2 km/h (1 Bft) 100,00 %
28.05.2016 00:37 17,3 C 93 % 1012,5 hPa 0,0 l/m 1,2 km/h (1 Bft) NW 312 0 min 0,000 mm 0,0 UV-I 0 W/m 16,2 C 17,3 C 3,2 km/h (1 Bft) 96,15 %
28.05.2016 00:38 17,3 C 93 % 1012,5 hPa 0,0 l/m 3,7 km/h (1 Bft) N-NO 16 0 min 0,000 mm 0,0 UV-I 0 W/m 16,2 C 17,3 C 4,8 km/h (1 Bft) 96,30 %
28.05.2016 00:39 17,3 C 93 % 1012,5 hPa 0,0 l/m 4,1 km/h (1 Bft) NO 42 0 min 0,000 mm 0,0 UV-I 0 W/m 16,2 C 17,3 C 4,8 km/h (1 Bft) 100,00 %
28.05.2016 00:40 17,3 C 93 % 1012,5 hPa 0,0 l/m 4,7 km/h (1 Bft) NO 40 0 min 0,000 mm 0,0 UV-I 0 W/m 16,2 C 17,3 C 6,4 km/h (2 Bft) 92,31 %
28.05.2016 00:41 17,3 C 92 % 1012,5 hPa 0,0 l/m 4,6 km/h (1 Bft) N-NO 30 0 min 0,000 mm 0,0 UV-I 0 W/m 16,0 C 17,3 C 6,4 km/h (2 Bft) 100,00 %
28.05.2016 00:42 17,3 C 92 % 1012,5 hPa 0,0 l/m 5,0 km/h (1 Bft) NO 38 0 min 0,000 mm 0,0 UV-I 0 W/m 16,0 C 17,3 C 6,4 km/h (2 Bft) 100,00 %
28.05.2016 00:43 17,3 C 92 % 1012,5 hPa 0,0 l/m 5,0 km/h (1 Bft) NO 38 0 min 0,000 mm 0,0 UV-I 0 W/m 16,0 C 17,3 C 6,4 km/h (2 Bft) 100,00 %
28.05.2016 00:44 17,2 C 92 % 1012,5 hPa 0,0 l/m 3,8 km/h (1 Bft) NO 38 0 min 0,000 mm 0,0 UV-I 0 W/m 15,9 C 17,2 C 4,8 km/h (1 Bft) 100,00 %
28.05.2016 00:45 17,2 C 92 % 1012,5 hPa 0,0 l/m 2,1 km/h (1 Bft) NO 38 0 min 0,000 mm 0,0 UV-I 0 W/m 15,9 C 17,2 C 3,2 km/h (1 Bft) 100,00 %
28.05.2016 00:46 17,2 C 93 % 1012,5 hPa 0,0 l/m 1,2 km/h (1 Bft) NO 38 0 min 0,000 mm 0,0 UV-I 0 W/m 16,1 C 17,2 C 1,6 km/h (1 Bft) 95,65 %
28.05.2016 00:47 17,2 C 92 % 1012,5 hPa 0,0 l/m 0,5 km/h (0 Bft) NO 38 0 min 0,000 mm 0,0 UV-I 0 W/m 15,9 C 17,2 C 1,6 km/h (1 Bft) 95,83 %
28.05.2016 00:48 17,2 C 92 % 1012,5 hPa 0,0 l/m 0,6 km/h (0 Bft) NO 38 0 min 0,000 mm 0,0 UV-I 0 W/m 15,9 C 17,2 C 1,6 km/h (1 Bft) 100,00 %
28.05.2016 00:49 17,2 C 92 % 1012,5 hPa 0,0 l/m 0,1 km/h (0 Bft) NO 38 0 min 0,000 mm 0,0 UV-I 0 W/m 15,9 C 17,2 C 1,6 km/h (1 Bft) 96,30 %
28.05.2016 00:50 17,2 C 92 % 1012,5 hPa 0,0 l/m 0,0 km/h (0 Bft) NO 38 0 min 0,000 mm 0,0 UV-I 0 W/m 15,9 C 17,2 C 0,0 km/h (0 Bft) 100,00 %
28.05.2016 00:51 17,2 C 92 % 1012,5 hPa 0,0 l/m 0,1 km/h (0 Bft) NO 38 0 min 0,000 mm 0,0 UV-I 0 W/m 15,9 C 17,2 C 1,6 km/h (1 Bft) 100,00 %
28.05.2016 00:52 17,2 C 92 % 1012,5 hPa 0,0 l/m 0,0 km/h (0 Bft) NO 38 0 min 0,000 mm 0,0 UV-I 0 W/m 15,9 C 17,2 C 0,0 km/h (0 Bft) 95,65 %
28.05.2016 00:53 17,2 C 92 % 1012,5 hPa 0,0 l/m 0,4 km/h (0 Bft) NO 38 0 min 0,000 mm 0,0 UV-I 0 W/m 15,9 C 17,2 C 3,2 km/h (1 Bft) 100,00 %
28.05.2016 00:54 17,2 C 92 % 1012,5 hPa 0,0 l/m 3,2 km/h (1 Bft) NO 38 0 min 0,000 mm 0,0 UV-I 0 W/m 15,9 C 17,2 C 4,8 km/h (1 Bft) 100,00 %
28.05.2016 00:55 17,2 C 92 % 1012,5 hPa 0,0 l/m 3,4 km/h (1 Bft) NO 38 0 min 0,000 mm 0,0 UV-I 0 W/m 15,9 C 17,2 C 4,8 km/h (1 Bft) 100,00 %
28.05.2016 00:56 17,2 C 92 % 1012,5 hPa 0,0 l/m 2,5 km/h (1 Bft) NO 38 0 min 0,000 mm 0,0 UV-I 0 W/m 15,9 C 17,2 C 3,2 km/h (1 Bft) 95,65 %
28.05.2016 00:57 17,1 C 92 % 1012,4 hPa 0,0 l/m 3,0 km/h (1 Bft) NO 38 0 min 0,000 mm 0,0 UV-I 0 W/m 15,8 C 17,1 C 4,8 km/h (1 Bft) 100,00 %
28.05.2016 00:58 17,1 C 92 % 1012,4 hPa 0,0 l/m 2,4 km/h (1 Bft) NO 38 0 min 0,000 mm 0,0 UV-I 0 W/m 15,8 C 17,1 C 3,2 km/h (1 Bft) 100,00 %
28.05.2016 00:59 17,1 C 92 % 1012,4 hPa 0,0 l/m 2,3 km/h (1 Bft) NO 38 0 min 0,000 mm 0,0 UV-I 0 W/m 15,8 C 17,1 C 3,2 km/h (1 Bft) 100,00 %
28.05.2016 01:00 17,1 C 92 % 1012,4 hPa 0,0 l/m 1,8 km/h (1 Bft) NO 38 0 min 0,000 mm 0,0 UV-I 0 W/m 15,8 C 17,1 C 3,2 km/h (1 Bft) 100,00 %
28.05.2016 01:02 17,1 C 92 % 1012,4 hPa 0,0 l/m 0,2 km/h (0 Bft) NO 38 0 min 0,000 mm 0,0 UV-I 0 W/m 15,8 C 17,1 C 1,6 km/h (1 Bft) 100,00 %
28.05.2016 01:03 17,1 C 92 % 1012,4 hPa 0,0 l/m 0,0 km/h (0 Bft) NO 38 0 min 0,000 mm 0,0 UV-I 0 W/m 15,8 C 17,1 C 0,0 km/h (0 Bft) 95,65 %
28.05.2016 01:04 17,1 C 93 % 1012,4 hPa 0,0 l/m 0,0 km/h (0 Bft) NO 38 0 min 0,000 mm 0,0 UV-I 0 W/m 16,0 C 17,1 C 0,0 km/h (0 Bft) 100,00 %
28.05.2016 01:05 17,1 C 93 % 1012,5 hPa 0,0 l/m 0,0 km/h (0 Bft) NO 38 0 min 0,000 mm 0,0 UV-I 0 W/m 16,0 C 17,1 C 0,0 km/h (0 Bft) 100,00 %
28.05.2016 01:06 17,1 C 93 % 1012,4 hPa 0,0 l/m 0,1 km/h (0 Bft) NO 38 0 min 0,000 mm 0,0 UV-I 0 W/m 16,0 C 17,1 C 1,6 km/h (1 Bft) 100,00 %
28.05.2016 01:07 17,1 C 93 % 1012,5 hPa 0,0 l/m 1,3 km/h (1 Bft) NO 35 0 min 0,000 mm 0,0 UV-I 0 W/m 16,0 C 17,1 C 3,2 km/h (1 Bft) 100,00 %
28.05.2016 01:08 17,1 C 93 % 1012,4 hPa 0,0 l/m 1,8 km/h (1 Bft) N-NO 32 0 min 0,000 mm 0,0 UV-I 0 W/m 16,0 C 17,1 C 3,2 km/h (1 Bft) 100,00 %
28.05.2016 01:09 17,1 C 93 % 1012,4 hPa 0,0 l/m 1,1 km/h (1 Bft) N 355 0 min 0,000 mm 0,0 UV-I 0 W/m 16,0 C 17,1 C 1,6 km/h (1 Bft) 100,00 %
28.05.2016 01:10 17,1 C 93 % 1012,4 hPa 0,0 l/m 1,5 km/h (1 Bft) N 350 0 min 0,000 mm 0,0 UV-I 0 W/m 16,0 C 17,1 C 3,2 km/h (1 Bft) 96,30 %
28.05.2016 01:11 17,1 C 92 % 1012,5 hPa 0,0 l/m 1,9 km/h (1 Bft) N 350 0 min 0,000 mm 0,0 UV-I 0 W/m 15,8 C 17,1 C 3,2 km/h (1 Bft) 100,00 %
28.05.2016 01:12 17,1 C 92 % 1012,5 hPa 0,0 l/m 1,5 km/h (1 Bft) N 350 0 min 0,000 mm 0,0 UV-I 0 W/m 15,8 C 17,1 C 1,6 km/h (1 Bft) 100,00 %
28.05.2016 01:13 17,0 C 92 % 1012,5 hPa 0,0 l/m 0,2 km/h (0 Bft) N 350 0 min 0,000 mm 0,0 UV-I 0 W/m 15,7 C 17,0 C 1,6 km/h (1 Bft) 100,00 %
28.05.2016 01:14 17,0 C 93 % 1012,4 hPa 0,0 l/m 0,1 km/h (0 Bft) N 350 0 min 0,000 mm 0,0 UV-I 0 W/m 15,9 C 17,0 C 1,6 km/h (1 Bft) 96,30 %
28.05.2016 01:15 16,9 C 93 % 1012,4 hPa 0,0 l/m 1,5 km/h (1 Bft) N 350 0 min 0,000 mm 0,0 UV-I 0 W/m 15,8 C 16,9 C 3,2 km/h (1 Bft) 100,00 %
28.05.2016 01:16 16,9 C 93 % 1012,5 hPa 0,0 l/m 1,7 km/h (1 Bft) N 350 0 min 0,000 mm 0,0 UV-I 0 W/m 15,8 C 16,9 C 3,2 km/h (1 Bft) 100,00 %
28.05.2016 01:17 16,9 C 93 % 1012,4 hPa 0,0 l/m 1,4 km/h (1 Bft) N 350 0 min 0,000 mm 0,0 UV-I 0 W/m 15,8 C 16,9 C 3,2 km/h (1 Bft) 100,00 %
28.05.2016 01:18 16,9 C 93 % 1012,4 hPa 0,0 l/m 1,2 km/h (1 Bft) N 350 0 min 0,000 mm 0,0 UV-I 0 W/m 15,8 C 16,9 C 1,6 km/h (1 Bft) 100,00 %
28.05.2016 01:19 16,8 C 93 % 1012,4 hPa 0,0 l/m 0,5 km/h (0 Bft) N 350 0 min 0,000 mm 0,0 UV-I 0 W/m 15,7 C 16,8 C 1,6 km/h (1 Bft) 100,00 %
28.05.2016 01:20 16,8 C 94 % 1012,4 hPa 0,0 l/m 1,5 km/h (1 Bft) N 350 0 min 0,000 mm 0,0 UV-I 0 W/m 15,8 C 16,8 C 3,2 km/h (1 Bft) 100,00 %
28.05.2016 01:21 16,8 C 94 % 1012,4 hPa 0,0 l/m 0,3 km/h (0 Bft) N 350 0 min 0,000 mm 0,0 UV-I 0 W/m 15,8 C 16,8 C 1,6 km/h (1 Bft) 100,00 %
28.05.2016 01:22 16,8 C 94 % 1012,4 hPa 0,0 l/m 0,0 km/h (0 Bft) N 350 0 min 0,000 mm 0,0 UV-I 0 W/m 15,8 C 16,8 C 0,0 km/h (0 Bft) 100,00 %
28.05.2016 01:23 16,7 C 93 % 1012,4 hPa 0,0 l/m 0,0 km/h (0 Bft) N 350 0 min 0,000 mm 0,0 UV-I 0 W/m 15,6 C 16,7 C 0,0 km/h (0 Bft) 100,00 %
28.05.2016 01:24 16,7 C 93 % 1012,3 hPa 0,0 l/m 0,0 km/h (0 Bft) N 350 0 min 0,000 mm 0,0 UV-I 0 W/m 15,6 C 16,7 C 0,0 km/h (0 Bft) 100,00 %
28.05.2016 01:25 16,6 C 94 % 1012,3 hPa 0,0 l/m 0,0 km/h (0 Bft) N 350 0 min 0,000 mm 0,0 UV-I 0 W/m 15,6 C 16,6 C 0,0 km/h (0 Bft) 100,00 %
28.05.2016 01:26 16,6 C 94 % 1012,2 hPa 0,0 l/m 0,0 km/h (0 Bft) N 350 0 min 0,000 mm 0,0 UV-I 0 W/m 15,6 C 16,6 C 0,0 km/h (0 Bft) 100,00 %
28.05.2016 01:27 16,6 C 93 % 1012,2 hPa 0,0 l/m 0,3 km/h (0 Bft) N 350 0 min 0,000 mm 0,0 UV-I 0 W/m 15,5 C 16,6 C 3,2 km/h (1 Bft) 100,00 %
28.05.2016 01:28 16,6 C 93 % 1012,1 hPa 0,0 l/m 4,0 km/h (1 Bft) N 5 0 min 0,000 mm 0,0 UV-I 0 W/m 15,5 C 16,6 C 4,8 km/h (1 Bft) 100,00 %
28.05.2016 01:29 16,6 C 93 % 1012,1 hPa 0,0 l/m 4,4 km/h (1 Bft) N-NO 26 0 min 0,000 mm 0,0 UV-I 0 W/m 15,5 C 16,6 C 4,8 km/h (1 Bft) 100,00 %
28.05.2016 01:30 16,6 C 93 % 1012,1 hPa 0,0 l/m 3,8 km/h (1 Bft) N-NO 26 0 min 0,000 mm 0,0 UV-I 0 W/m 15,5 C 16,6 C 4,8 km/h (1 Bft) 100,00 %
28.05.2016 01:31 16,5 C 92 % 1012,1 hPa 0,0 l/m 1,1 km/h (1 Bft) N-NO 26 0 min 0,000 mm 0,0 UV-I 0 W/m 15,2 C 16,5 C 3,2 km/h (1 Bft) 100,00 %
28.05.2016 01:32 16,5 C 93 % 1012,1 hPa 0,0 l/m 1,1 km/h (1 Bft) N-NO 26 0 min 0,000 mm 0,0 UV-I 0 W/m 15,4 C 16,5 C 1,6 km/h (1 Bft) 100,00 %
28.05.2016 01:33 16,6 C 93 % 1012,1 hPa 0,0 l/m 1,0 km/h (0 Bft) N-NO 26 0 min 0,000 mm 0,0 UV-I 0 W/m 15,5 C 16,6 C 1,6 km/h (1 Bft) 100,00 %
28.05.2016 01:34 16,6 C 93 % 1012,1 hPa 0,0 l/m 2,1 km/h (1 Bft) N-NO 26 0 min 0,000 mm 0,0 UV-I 0 W/m 15,5 C 16,6 C 3,2 km/h (1 Bft) 100,00 %
28.05.2016 01:35 16,6 C 92 % 1012,1 hPa 0,0 l/m 3,2 km/h (1 Bft) N-NO 26 0 min 0,000 mm 0,0 UV-I 0 W/m 15,3 C 16,6 C 3,2 km/h (1 Bft) 100,00 %
28.05.2016 01:36 16,6 C 92 % 1012,1 hPa 0,0 l/m 3,1 km/h (1 Bft) N-NO 26 0 min 0,000 mm 0,0 UV-I 0 W/m 15,3 C 16,6 C 4,8 km/h (1 Bft) 100,00 %
28.05.2016 01:37 16,5 C 92 % 1012,1 hPa 0,0 l/m 1,4 km/h (1 Bft) N-NO 26 0 min 0,000 mm 0,0 UV-I 0 W/m 15,2 C 16,5 C 3,2 km/h (1 Bft) 100,00 %
28.05.2016 01:38 16,4 C 92 % 1012,1 hPa 0,0 l/m 0,1 km/h (0 Bft) N-NO 26 0 min 0,000 mm 0,0 UV-I 0 W/m 15,1 C 16,4 C 1,6 km/h (1 Bft) 100,00 %
28.05.2016 01:39 16,4 C 92 % 1012,1 hPa 0,0 l/m 0,1 km/h (0 Bft) N-NO 26 0 min 0,000 mm 0,0 UV-I 0 W/m 15,1 C 16,4 C 1,6 km/h (1 Bft) 100,00 %
28.05.2016 01:40 16,4 C 93 % 1012,1 hPa 0,0 l/m 1,2 km/h (1 Bft) N-NO 26 0 min 0,000 mm 0,0 UV-I 0 W/m 15,3 C 16,4 C 1,6 km/h (1 Bft) 100,00 %
28.05.2016 01:41 16,4 C 93 % 1012,1 hPa 0,0 l/m 0,7 km/h (0 Bft) N-NO 26 0 min 0,000 mm 0,0 UV-I 0 W/m 15,3 C 16,4 C 1,6 km/h (1 Bft) 100,00 %
28.05.2016 01:42 16,4 C 93 % 1012,1 hPa 0,0 l/m 0,1 km/h (0 Bft) N-NO 26 0 min 0,000 mm 0,0 UV-I 0 W/m 15,3 C 16,4 C 1,6 km/h (1 Bft) 100,00 %
28.05.2016 01:43 16,4 C 93 % 1012,1 hPa 0,0 l/m 0,2 km/h (0 Bft) N-NO 26 0 min 0,000 mm 0,0 UV-I 0 W/m 15,3 C 16,4 C 1,6 km/h (1 Bft) 100,00 %
28.05.2016 01:44 16,4 C 93 % 1012,1 hPa 0,0 l/m 1,4 km/h (1 Bft) N-NO 26 0 min 0,000 mm 0,0 UV-I 0 W/m 15,3 C 16,4 C 1,6 km/h (1 Bft) 100,00 %
28.05.2016 01:45 16,4 C 93 % 1012,1 hPa 0,0 l/m 1,6 km/h (1 Bft) N-NO 26 0 min 0,000 mm 0,0 UV-I 0 W/m 15,3 C 16,4 C 1,6 km/h (1 Bft) 100,00 %
28.05.2016 01:46 16,4 C 93 % 1012,1 hPa 0,0 l/m 1,5 km/h (1 Bft) N-NO 26 0 min 0,000 mm 0,0 UV-I 0 W/m 15,3 C 16,4 C 1,6 km/h (1 Bft) 100,00 %
28.05.2016 01:47 16,4 C 93 % 1012,1 hPa 0,0 l/m 1,1 km/h (1 Bft) NO 39 0 min 0,000 mm 0,0 UV-I 0 W/m 15,3 C 16,4 C 1,6 km/h (1 Bft) 100,00 %
28.05.2016 01:48 16,3 C 94 % 1012,1 hPa 0,0 l/m 0,5 km/h (0 Bft) NO 48 0 min 0,000 mm 0,0 UV-I 0 W/m 15,3 C 16,3 C 1,6 km/h (1 Bft) 100,00 %
28.05.2016 01:49 16,3 C 94 % 1012,2 hPa 0,0 l/m 1,5 km/h (1 Bft) NO 48 0 min 0,000 mm 0,0 UV-I 0 W/m 15,3 C 16,3 C 3,2 km/h (1 Bft) 100,00 %
28.05.2016 01:50 16,3 C 94 % 1012,1 hPa 0,0 l/m 2,4 km/h (1 Bft) NO 48 0 min 0,000 mm 0,0 UV-I 0 W/m 15,3 C 16,3 C 3,2 km/h (1 Bft) 100,00 %
28.05.2016 01:51 16,2 C 94 % 1012,1 hPa 0,0 l/m 2,6 km/h (1 Bft) NO 48 0 min 0,000 mm 0,0 UV-I 0 W/m 15,2 C 16,2 C 3,2 km/h (1 Bft) 100,00 %
28.05.2016 01:52 16,2 C 94 % 1012,1 hPa 0,0 l/m 2,7 km/h (1 Bft) NO 48 0 min 0,000 mm 0,0 UV-I 0 W/m 15,2 C 16,2 C 3,2 km/h (1 Bft) 100,00 %
28.05.2016 01:53 16,2 C 94 % 1012,1 hPa 0,0 l/m 2,7 km/h (1 Bft) NO 48 0 min 0,000 mm 0,0 UV-I 0 W/m 15,2 C 16,2 C 3,2 km/h (1 Bft) 92,31 %
28.05.2016 01:54 16,2 C 94 % 1012,1 hPa 0,0 l/m 2,1 km/h (1 Bft) NO 48 0 min 0,000 mm 0,0 UV-I 0 W/m 15,2 C 16,2 C 3,2 km/h (1 Bft) 100,00 %
28.05.2016 01:55 16,2 C 94 % 1012,2 hPa 0,0 l/m 2,5 km/h (1 Bft) O 85 0 min 0,000 mm 0,0 UV-I 0 W/m 15,2 C 16,2 C 4,8 km/h (1 Bft) 95,65 %
28.05.2016 01:56 16,1 C 94 % 1012,2 hPa 0,0 l/m 2,0 km/h (1 Bft) O 85 0 min 0,000 mm 0,0 UV-I 0 W/m 15,1 C 16,1 C 3,2 km/h (1 Bft) 100,00 %
28.05.2016 01:57 16,1 C 94 % 1012,2 hPa 0,0 l/m 0,6 km/h (0 Bft) O 85 0 min 0,000 mm 0,0 UV-I 0 W/m 15,1 C 16,1 C 1,6 km/h (1 Bft) 96,30 %
28.05.2016 01:58 16,1 C 94 % 1012,2 hPa 0,0 l/m 1,1 km/h (1 Bft) O 85 0 min 0,000 mm 0,0 UV-I 0 W/m 15,1 C 16,1 C 1,6 km/h (1 Bft) 100,00 %
28.05.2016 01:59 16,1 C 94 % 1012,2 hPa 0,0 l/m 1,9 km/h (1 Bft) O 85 0 min 0,000 mm 0,0 UV-I 0 W/m 15,1 C 16,1 C 3,2 km/h (1 Bft) 100,00 %
28.05.2016 02:00 16,0 C 94 % 1012,2 hPa 0,0 l/m 1,3 km/h (1 Bft) O 85 0 min 0,000 mm 0,0 UV-I 0 W/m 15,0 C 16,0 C 1,6 km/h (1 Bft) 96,55 %
28.05.2016 02:02 16,0 C 95 % 1012,3 hPa 0,0 l/m 1,5 km/h (1 Bft) O 86 0 min 0,000 mm 0,0 UV-I 0 W/m 15,2 C 16,0 C 3,2 km/h (1 Bft) 98,00 %
28.05.2016 02:03 16,0 C 95 % 1012,3 hPa 0,0 l/m 2,9 km/h (1 Bft) SW 217 0 min 0,000 mm 0,0 UV-I 0 W/m 15,2 C 16,0 C 4,8 km/h (1 Bft) 91,67 %
28.05.2016 02:04 15,9 C 94 % 1012,3 hPa 0,0 l/m 3,9 km/h (1 Bft) SW 222 0 min 0,000 mm 0,0 UV-I 0 W/m 14,9 C 15,9 C 4,8 km/h (1 Bft) 100,00 %
28.05.2016 02:05 15,9 C 94 % 1012,3 hPa 0,0 l/m 4,4 km/h (1 Bft) SW 222 0 min 0,000 mm 0,0 UV-I 0 W/m 14,9 C 15,9 C 6,4 km/h (2 Bft) 100,00 %
28.05.2016 02:06 15,9 C 94 % 1012,3 hPa 0,0 l/m 3,7 km/h (1 Bft) SW 222 0 min 0,000 mm 0,0 UV-I 0 W/m 14,9 C 15,9 C 4,8 km/h (1 Bft) 96,15 %
28.05.2016 02:07 15,9 C 94 % 1012,2 hPa 0,0 l/m 3,7 km/h (1 Bft) SW 222 0 min 0,000 mm 0,0 UV-I 0 W/m 14,9 C 15,9 C 4,8 km/h (1 Bft) 100,00 %
28.05.2016 02:08 15,9 C 95 % 1012,2 hPa 0,0 l/m 3,2 km/h (1 Bft) SW 222 0 min 0,000 mm 0,0 UV-I 0 W/m 15,1 C 15,9 C 4,8 km/h (1 Bft) 96,15 %
28.05.2016 02:09 15,9 C 95 % 1012,2 hPa 0,0 l/m 2,7 km/h (1 Bft) SW 222 0 min 0,000 mm 0,0 UV-I 0 W/m 15,1 C 15,9 C 3,2 km/h (1 Bft) 100,00 %
28.05.2016 02:10 15,9 C 95 % 1012,2 hPa 0,0 l/m 2,3 km/h (1 Bft) SW 222 0 min 0,000 mm 0,0 UV-I 0 W/m 15,1 C 15,9 C 3,2 km/h (1 Bft) 94,12 %
28.05.2016 02:11 15,9 C 95 % 1012,2 hPa 0,0 l/m 2,9 km/h (1 Bft) SW 222 0 min 0,000 mm 0,0 UV-I 0 W/m 15,1 C 15,9 C 3,2 km/h (1 Bft) 95,83 %
28.05.2016 02:12 15,9 C 95 % 1012,2 hPa 0,0 l/m 3,4 km/h (1 Bft) SW 222 0 min 0,000 mm 0,0 UV-I 0 W/m 15,1 C 15,9 C 4,8 km/h (1 Bft) 91,30 %
28.05.2016 02:13 15,9 C 95 % 1012,3 hPa 0,0 l/m 2,9 km/h (1 Bft) SW 222 0 min 0,000 mm 0,0 UV-I 0 W/m 15,1 C 15,9 C 3,2 km/h (1 Bft) 100,00 %
28.05.2016 02:14 15,9 C 95 % 1012,3 hPa 0,0 l/m 2,3 km/h (1 Bft) SW 222 0 min 0,000 mm 0,0 UV-I 0 W/m 15,1 C 15,9 C 3,2 km/h (1 Bft) 96,15 %
28.05.2016 02:15 15,9 C 95 % 1012,3 hPa 0,0 l/m 2,6 km/h (1 Bft) SW 222 0 min 0,000 mm 0,0 UV-I 0 W/m 15,1 C 15,9 C 3,2 km/h (1 Bft) 95,83 %
28.05.2016 02:16 15,9 C 95 % 1012,3 hPa 0,0 l/m 2,1 km/h (1 Bft) SW 222 0 min 0,000 mm 0,0 UV-I 0 W/m 15,1 C 15,9 C 3,2 km/h (1 Bft) 93,33 %
28.05.2016 02:17 15,9 C 95 % 1012,3 hPa 0,0 l/m 1,3 km/h (1 Bft) SW 222 0 min 0,000 mm 0,0 UV-I 0 W/m 15,1 C 15,9 C 1,6 km/h (1 Bft) 92,31 %
28.05.2016 02:18 15,9 C 94 % 1012,3 hPa 0,0 l/m 1,5 km/h (1 Bft) SW 222 0 min 0,000 mm 0,0 UV-I 0 W/m 14,9 C 15,9 C 1,6 km/h (1 Bft) 100,00 %
28.05.2016 02:19 15,9 C 94 % 1012,3 hPa 0,0 l/m 0,3 km/h (0 Bft) SW 222 0 min 0,000 mm 0,0 UV-I 0 W/m 14,9 C 15,9 C 1,6 km/h (1 Bft) 95,65 %
28.05.2016 02:20 15,9 C 94 % 1012,3 hPa 0,0 l/m 0,1 km/h (0 Bft) SW 222 0 min 0,000 mm 0,0 UV-I 0 W/m 14,9 C 15,9 C 1,6 km/h (1 Bft) 100,00 %
28.05.2016 02:21 15,9 C 94 % 1012,3 hPa 0,0 l/m 0,3 km/h (0 Bft) SW 225 0 min 0,000 mm 0,0 UV-I 0 W/m 14,9 C 15,9 C 1,6 km/h (1 Bft) 96,15 %
28.05.2016 02:22 15,8 C 94 % 1012,2 hPa 0,0 l/m 1,0 km/h (0 Bft) SW 227 0 min 0,000 mm 0,0 UV-I 0 W/m 14,8 C 15,8 C 3,2 km/h (1 Bft) 92,59 %
28.05.2016 02:23 15,8 C 94 % 1012,2 hPa 0,0 l/m 0,7 km/h (0 Bft) W-SW 242 0 min 0,000 mm 0,0 UV-I 0 W/m 14,8 C 15,8 C 1,6 km/h (1 Bft) 95,65 %
28.05.2016 02:24 15,8 C 93 % 1012,2 hPa 0,0 l/m 0,0 km/h (0 Bft) W-SW 242 0 min 0,000 mm 0,0 UV-I 0 W/m 14,7 C 15,8 C 0,0 km/h (0 Bft) 95,83 %
28.05.2016 02:25 15,7 C 93 % 1012,2 hPa 0,0 l/m 0,0 km/h (0 Bft) W-SW 242 0 min 0,000 mm 0,0 UV-I 0 W/m 14,6 C 15,7 C 0,0 km/h (0 Bft) 100,00 %
28.05.2016 02:26 15,7 C 93 % 1012,2 hPa 0,0 l/m 0,0 km/h (0 Bft) W-SW 242 0 min 0,000 mm 0,0 UV-I 0 W/m 14,6 C 15,7 C 0,0 km/h (0 Bft) 96,30 %
28.05.2016 02:27 15,7 C 94 % 1012,2 hPa 0,0 l/m 0,7 km/h (0 Bft) W-SW 242 0 min 0,000 mm 0,0 UV-I 0 W/m 14,7 C 15,7 C 1,6 km/h (1 Bft) 96,15 %
28.05.2016 02:28 15,7 C 93 % 1012,2 hPa 0,0 l/m 2,1 km/h (1 Bft) W-SW 242 0 min 0,000 mm 0,0 UV-I 0 W/m 14,6 C 15,7 C 3,2 km/h (1 Bft) 95,83 %
28.05.2016 02:29 15,7 C 93 % 1012,2 hPa 0,0 l/m 3,1 km/h (1 Bft) W-SW 242 0 min 0,000 mm 0,0 UV-I 0 W/m 14,6 C 15,7 C 3,2 km/h (1 Bft) 100,00 %
28.05.2016 02:30 15,8 C 93 % 1012,2 hPa 0,0 l/m 3,6 km/h (1 Bft) W-SW 242 0 min 0,000 mm 0,0 UV-I 0 W/m 14,7 C 15,8 C 4,8 km/h (1 Bft) 95,83 %
28.05.2016 02:31 15,8 C 93 % 1012,2 hPa 0,0 l/m 4,0 km/h (1 Bft) W-SW 242 0 min 0,000 mm 0,0 UV-I 0 W/m 14,7 C 15,8 C 4,8 km/h (1 Bft) 100,00 %
28.05.2016 02:32 15,8 C 94 % 1012,2 hPa 0,0 l/m 0,9 km/h (0 Bft) W-SW 242 0 min 0,000 mm 0,0 UV-I 0 W/m 14,8 C 15,8 C 3,2 km/h (1 Bft) 95,83 %
28.05.2016 02:33 15,8 C 94 % 1012,2 hPa 0,0 l/m 0,0 km/h (0 Bft) W-SW 242 0 min 0,000 mm 0,0 UV-I 0 W/m 14,8 C 15,8 C 0,0 km/h (0 Bft) 95,65 %
28.05.2016 02:34 15,8 C 94 % 1012,2 hPa 0,0 l/m 0,0 km/h (0 Bft) W-SW 242 0 min 0,000 mm 0,0 UV-I 0 W/m 14,8 C 15,8 C 0,0 km/h (0 Bft) 100,00 %
28.05.2016 02:35 15,8 C 94 % 1012,2 hPa 0,0 l/m 0,0 km/h (0 Bft) W-SW 242 0 min 0,000 mm 0,0 UV-I 0 W/m 14,8 C 15,8 C 0,0 km/h (0 Bft) 96,15 %
28.05.2016 02:36 15,8 C 94 % 1012,2 hPa 0,0 l/m 0,0 km/h (0 Bft) W-SW 242 0 min 0,000 mm 0,0 UV-I 0 W/m 14,8 C 15,8 C 0,0 km/h (0 Bft) 100,00 %
28.05.2016 02:37 15,7 C 93 % 1012,2 hPa 0,0 l/m 0,0 km/h (0 Bft) W-SW 242 0 min 0,000 mm 0,0 UV-I 0 W/m 14,6 C 15,7 C 0,0 km/h (0 Bft) 95,65 %
28.05.2016 02:38 15,7 C 93 % 1012,2 hPa 0,0 l/m 1,5 km/h (1 Bft) W-SW 242 0 min 0,000 mm 0,0 UV-I 0 W/m 14,6 C 15,7 C 3,2 km/h (1 Bft) 100,00 %
28.05.2016 02:39 15,6 C 93 % 1012,1 hPa 0,0 l/m 3,1 km/h (1 Bft) W-SW 242 0 min 0,000 mm 0,0 UV-I 0 W/m 14,5 C 15,6 C 3,2 km/h (1 Bft) 100,00 %
28.05.2016 02:40 15,6 C 93 % 1012,1 hPa 0,0 l/m 2,8 km/h (1 Bft) W-SW 242 0 min 0,000 mm 0,0 UV-I 0 W/m 14,5 C 15,6 C 3,2 km/h (1 Bft) 100,00 %
28.05.2016 02:41 15,6 C 93 % 1012,1 hPa 0,0 l/m 1,8 km/h (1 Bft) W-SW 242 0 min 0,000 mm 0,0 UV-I 0 W/m 14,5 C 15,6 C 3,2 km/h (1 Bft) 100,00 %
28.05.2016 02:42 15,6 C 93 % 1012,1 hPa 0,0 l/m 1,3 km/h (1 Bft) W-SW 242 0 min 0,000 mm 0,0 UV-I 0 W/m 14,5 C 15,6 C 3,2 km/h (1 Bft) 100,00 %
28.05.2016 02:43 15,6 C 94 % 1012,0 hPa 0,0 l/m 0,8 km/h (0 Bft) W-SW 242 0 min 0,000 mm 0,0 UV-I 0 W/m 14,6 C 15,6 C 1,6 km/h (1 Bft) 100,00 %
28.05.2016 02:44 15,7 C 94 % 1012,0 hPa 0,0 l/m 0,1 km/h (0 Bft) W-SW 242 0 min 0,000 mm 0,0 UV-I 0 W/m 14,7 C 15,7 C 1,6 km/h (1 Bft) 96,15 %
28.05.2016 02:45 15,7 C 93 % 1012,0 hPa 0,0 l/m 0,0 km/h (0 Bft) W-SW 242 0 min 0,000 mm 0,0 UV-I 0 W/m 14,6 C 15,7 C 0,0 km/h (0 Bft) 100,00 %
28.05.2016 02:46 15,7 C 93 % 1012,0 hPa 0,0 l/m 0,0 km/h (0 Bft) W-SW 242 0 min 0,000 mm 0,0 UV-I 0 W/m 14,6 C 15,7 C 0,0 km/h (0 Bft) 100,00 %
28.05.2016 02:47 15,7 C 93 % 1012,0 hPa 0,0 l/m 0,0 km/h (0 Bft) W-SW 242 0 min 0,000 mm 0,0 UV-I 0 W/m 14,6 C 15,7 C 0,0 km/h (0 Bft) 100,00 %
28.05.2016 02:48 15,7 C 93 % 1012,0 hPa 0,0 l/m 0,0 km/h (0 Bft) W-SW 242 0 min 0,000 mm 0,0 UV-I 0 W/m 14,6 C 15,7 C 0,0 km/h (0 Bft) 100,00 %
28.05.2016 02:49 15,7 C 93 % 1012,0 hPa 0,0 l/m 0,0 km/h (0 Bft) W-SW 242 0 min 0,000 mm 0,0 UV-I 0 W/m 14,6 C 15,7 C 0,0 km/h (0 Bft) 100,00 %
28.05.2016 02:50 15,7 C 94 % 1012,0 hPa 0,0 l/m 1,3 km/h (1 Bft) W-SW 242 0 min 0,000 mm 0,0 UV-I 0 W/m 14,7 C 15,7 C 3,2 km/h (1 Bft) 100,00 %
28.05.2016 02:51 15,7 C 94 % 1012,0 hPa 0,0 l/m 2,6 km/h (1 Bft) W-SW 242 0 min 0,000 mm 0,0 UV-I 0 W/m 14,7 C 15,7 C 3,2 km/h (1 Bft) 96,30 %
28.05.2016 02:52 15,7 C 94 % 1012,1 hPa 0,0 l/m 2,8 km/h (1 Bft) W-SW 242 0 min 0,000 mm 0,0 UV-I 0 W/m 14,7 C 15,7 C 3,2 km/h (1 Bft) 96,15 %
28.05.2016 02:53 15,6 C 94 % 1012,1 hPa 0,0 l/m 3,0 km/h (1 Bft) W-SW 242 0 min 0,000 mm 0,0 UV-I 0 W/m 14,6 C 15,6 C 4,8 km/h (1 Bft) 93,33 %
28.05.2016 02:54 15,6 C 94 % 1012,2 hPa 0,0 l/m 3,2 km/h (1 Bft) W-SW 242 0 min 0,000 mm 0,0 UV-I 0 W/m 14,6 C 15,6 C 4,8 km/h (1 Bft) 100,00 %
28.05.2016 02:55 15,6 C 93 % 1012,2 hPa 0,0 l/m 4,6 km/h (1 Bft) W-SW 242 0 min 0,000 mm 0,0 UV-I 0 W/m 14,5 C 15,6 C 6,4 km/h (2 Bft) 100,00 %
28.05.2016 02:56 15,5 C 93 % 1012,3 hPa 0,0 l/m 5,1 km/h (1 Bft) SW 225 0 min 0,000 mm 0,0 UV-I 0 W/m 14,4 C 15,5 C 6,4 km/h (2 Bft) 100,00 %
28.05.2016 02:57 15,4 C 93 % 1012,3 hPa 0,0 l/m 4,3 km/h (1 Bft) SW 225 0 min 0,000 mm 0,0 UV-I 0 W/m 14,3 C 15,4 C 4,8 km/h (1 Bft) 100,00 %
28.05.2016 02:58 15,4 C 93 % 1012,3 hPa 0,0 l/m 4,9 km/h (1 Bft) SW 219 0 min 0,000 mm 0,0 UV-I 0 W/m 14,3 C 15,4 C 6,4 km/h (2 Bft) 100,00 %
28.05.2016 02:59 15,3 C 93 % 1012,3 hPa 0,0 l/m 2,5 km/h (1 Bft) SW 219 0 min 0,000 mm 0,0 UV-I 0 W/m 14,2 C 15,3 C 3,2 km/h (1 Bft) 100,00 %
28.05.2016 03:00 15,3 C 94 % 1012,3 hPa 0,0 l/m 4,9 km/h (1 Bft) S-SW 200 0 min 0,000 mm 0,0 UV-I 0 W/m 14,3 C 15,3 C 8,0 km/h (2 Bft) 91,67 %
28.05.2016 03:02 15,3 C 94 % 1012,3 hPa 0,0 l/m 5,2 km/h (1 Bft) S-SW 200 0 min 0,000 mm 0,0 UV-I 0 W/m 14,3 C 15,3 C 8,0 km/h (2 Bft) 100,00 %
28.05.2016 03:03 15,3 C 94 % 1012,3 hPa 0,0 l/m 3,5 km/h (1 Bft) S-SW 200 0 min 0,000 mm 0,0 UV-I 0 W/m 14,3 C 15,3 C 6,4 km/h (2 Bft) 100,00 %
28.05.2016 03:04 15,3 C 94 % 1012,3 hPa 0,0 l/m 3,6 km/h (1 Bft) S-SW 203 0 min 0,000 mm 0,0 UV-I 0 W/m 14,3 C 15,3 C 4,8 km/h (1 Bft) 100,00 %
28.05.2016 03:05 15,3 C 93 % 1012,3 hPa 0,0 l/m 3,3 km/h (1 Bft) S-SW 201 0 min 0,000 mm 0,0 UV-I 0 W/m 14,2 C 15,3 C 4,8 km/h (1 Bft) 100,00 %
28.05.2016 03:06 15,3 C 93 % 1012,1 hPa 0,0 l/m 4,0 km/h (1 Bft) S-SW 199 0 min 0,000 mm 0,0 UV-I 0 W/m 14,2 C 15,3 C 8,0 km/h (2 Bft) 96,67 %
28.05.2016 03:07 15,4 C 93 % 1012,1 hPa 0,0 l/m 3,5 km/h (1 Bft) S-SW 196 0 min 0,000 mm 0,0 UV-I 0 W/m 14,3 C 15,4 C 4,8 km/h (1 Bft) 100,00 %
28.05.2016 03:08 15,4 C 93 % 1012,1 hPa 0,0 l/m 3,0 km/h (1 Bft) S-SW 196 0 min 0,000 mm 0,0 UV-I 0 W/m 14,3 C 15,4 C 4,8 km/h (1 Bft) 100,00 %
28.05.2016 03:09 15,4 C 92 % 1012,1 hPa 0,0 l/m 3,8 km/h (1 Bft) S-SW 196 0 min 0,000 mm 0,0 UV-I 0 W/m 14,1 C 15,4 C 4,8 km/h (1 Bft) 100,00 %
28.05.2016 03:10 15,5 C 92 % 1012,2 hPa 0,0 l/m 4,2 km/h (1 Bft) S-SW 198 0 min 0,000 mm 0,0 UV-I 0 W/m 14,2 C 15,5 C 6,4 km/h (2 Bft) 100,00 %
28.05.2016 03:11 15,5 C 92 % 1012,3 hPa 0,0 l/m 4,6 km/h (1 Bft) S-SW 204 0 min 0,000 mm 0,0 UV-I 0 W/m 14,2 C 15,5 C 6,4 km/h (2 Bft) 100,00 %
28.05.2016 03:12 15,6 C 92 % 1012,3 hPa 0,0 l/m 3,2 km/h (1 Bft) S-SW 210 0 min 0,000 mm 0,0 UV-I 0 W/m 14,3 C 15,6 C 4,8 km/h (1 Bft) 100,00 %
28.05.2016 03:13 15,6 C 91 % 1012,3 hPa 0,0 l/m 4,0 km/h (1 Bft) S-SW 209 0 min 0,000 mm 0,0 UV-I 0 W/m 14,1 C 15,6 C 4,8 km/h (1 Bft) 97,37 %
28.05.2016 03:14 15,6 C 91 % 1012,3 hPa 0,0 l/m 3,5 km/h (1 Bft) S-SW 209 0 min 0,000 mm 0,0 UV-I 0 W/m 14,1 C 15,6 C 4,8 km/h (1 Bft) 95,83 %
28.05.2016 03:15 15,6 C 91 % 1012,3 hPa 0,0 l/m 1,9 km/h (1 Bft) S-SW 209 0 min 0,000 mm 0,0 UV-I 0 W/m 14,1 C 15,6 C 3,2 km/h (1 Bft) 94,44 %
28.05.2016 03:16 15,7 C 91 % 1012,3 hPa 0,0 l/m 1,7 km/h (1 Bft) S-SW 209 0 min 0,000 mm 0,0 UV-I 0 W/m 14,2 C 15,7 C 3,2 km/h (1 Bft) 96,55 %
28.05.2016 03:17 15,6 C 91 % 1012,3 hPa 0,0 l/m 1,9 km/h (1 Bft) S-SW 209 0 min 0,000 mm 0,0 UV-I 0 W/m 14,1 C 15,6 C 3,2 km/h (1 Bft) 100,00 %
28.05.2016 03:18 15,6 C 91 % 1012,3 hPa 0,0 l/m 2,9 km/h (1 Bft) S-SW 209 0 min 0,000 mm 0,0 UV-I 0 W/m 14,1 C 15,6 C 4,8 km/h (1 Bft) 100,00 %
28.05.2016 03:19 15,6 C 91 % 1012,3 hPa 0,0 l/m 4,2 km/h (1 Bft) S-SW 209 0 min 0,000 mm 0,0 UV-I 0 W/m 14,1 C 15,6 C 6,4 km/h (2 Bft) 95,83 %
28.05.2016 03:20 15,7 C 91 % 1012,3 hPa 0,0 l/m 2,7 km/h (1 Bft) S-SW 209 0 min 0,000 mm 0,0 UV-I 0 W/m 14,2 C 15,7 C 3,2 km/h (1 Bft) 96,15 %
28.05.2016 03:21 15,7 C 91 % 1012,3 hPa 0,0 l/m 3,5 km/h (1 Bft) S-SW 209 0 min 0,000 mm 0,0 UV-I 0 W/m 14,2 C 15,7 C 4,8 km/h (1 Bft) 96,30 %
28.05.2016 03:22 15,7 C 91 % 1012,4 hPa 0,0 l/m 2,6 km/h (1 Bft) S-SW 209 0 min 0,000 mm 0,0 UV-I 0 W/m 14,2 C 15,7 C 3,2 km/h (1 Bft) 96,15 %
28.05.2016 03:23 15,7 C 91 % 1012,4 hPa 0,0 l/m 2,1 km/h (1 Bft) S-SW 209 0 min 0,000 mm 0,0 UV-I 0 W/m 14,2 C 15,7 C 3,2 km/h (1 Bft) 100,00 %
28.05.2016 03:24 15,7 C 90 % 1012,4 hPa 0,0 l/m 1,3 km/h (1 Bft) S-SW 209 0 min 0,000 mm 0,0 UV-I 0 W/m 14,1 C 15,7 C 3,2 km/h (1 Bft) 100,00 %
28.05.2016 03:25 15,7 C 90 % 1012,4 hPa 0,0 l/m 0,7 km/h (0 Bft) S-SW 209 0 min 0,000 mm 0,0 UV-I 0 W/m 14,1 C 15,7 C 1,6 km/h (1 Bft) 100,00 %
28.05.2016 03:26 15,7 C 90 % 1012,4 hPa 0,0 l/m 0,2 km/h (0 Bft) S-SW 209 0 min 0,000 mm 0,0 UV-I 0 W/m 14,1 C 15,7 C 1,6 km/h (1 Bft) 100,00 %
28.05.2016 03:27 15,7 C 90 % 1012,4 hPa 0,0 l/m 0,4 km/h (0 Bft) S-SW 209 0 min 0,000 mm 0,0 UV-I 0 W/m 14,1 C 15,7 C 1,6 km/h (1 Bft) 100,00 %
28.05.2016 03:28 15,7 C 90 % 1012,4 hPa 0,0 l/m 0,3 km/h (0 Bft) S-SW 209 0 min 0,000 mm 0,0 UV-I 0 W/m 14,1 C 15,7 C 1,6 km/h (1 Bft) 100,00 %
28.05.2016 03:29 15,6 C 90 % 1012,4 hPa 0,0 l/m 0,1 km/h (0 Bft) S-SW 209 0 min 0,000 mm 0,0 UV-I 0 W/m 14,0 C 15,6 C 1,6 km/h (1 Bft) 100,00 %
28.05.2016 03:30 15,6 C 90 % 1012,3 hPa 0,0 l/m 0,1 km/h (0 Bft) S-SW 209 0 min 0,000 mm 0,0 UV-I 0 W/m 14,0 C 15,6 C 1,6 km/h (1 Bft) 100,00 %
28.05.2016 03:31 15,6 C 90 % 1012,3 hPa 0,0 l/m 0,5 km/h (0 Bft) S-SW 209 0 min 0,000 mm 0,0 UV-I 0 W/m 14,0 C 15,6 C 1,6 km/h (1 Bft) 95,83 %
28.05.2016 03:32 15,6 C 90 % 1012,3 hPa 0,0 l/m 0,3 km/h (0 Bft) S-SW 209 0 min 0,000 mm 0,0 UV-I 0 W/m 14,0 C 15,6 C 1,6 km/h (1 Bft) 100,00 %
28.05.2016 03:33 15,6 C 90 % 1012,3 hPa 0,0 l/m 0,9 km/h (0 Bft) S-SW 209 0 min 0,000 mm 0,0 UV-I 0 W/m 14,0 C 15,6 C 1,6 km/h (1 Bft) 100,00 %
28.05.2016 03:34 15,6 C 90 % 1012,3 hPa 0,0 l/m 1,7 km/h (1 Bft) S-SW 209 0 min 0,000 mm 0,0 UV-I 0 W/m 14,0 C 15,6 C 3,2 km/h (1 Bft) 100,00 %
28.05.2016 03:35 15,6 C 90 % 1012,3 hPa 0,0 l/m 1,1 km/h (1 Bft) S-SW 209 0 min 0,000 mm 0,0 UV-I 0 W/m 14,0 C 15,6 C 1,6 km/h (1 Bft) 100,00 %
28.05.2016 03:36 15,6 C 90 % 1012,3 hPa 0,0 l/m 0,4 km/h (0 Bft) S-SW 209 0 min 0,000 mm 0,0 UV-I 0 W/m 14,0 C 15,6 C 1,6 km/h (1 Bft) 92,59 %
28.05.2016 03:37 15,5 C 91 % 1012,3 hPa 0,0 l/m 1,0 km/h (0 Bft) S-SW 209 0 min 0,000 mm 0,0 UV-I 0 W/m 14,0 C 15,5 C 1,6 km/h (1 Bft) 100,00 %
28.05.2016 03:38 15,5 C 91 % 1012,3 hPa 0,0 l/m 1,1 km/h (1 Bft) S-SW 209 0 min 0,000 mm 0,0 UV-I 0 W/m 14,0 C 15,5 C 1,6 km/h (1 Bft) 100,00 %
28.05.2016 03:39 15,5 C 91 % 1012,3 hPa 0,0 l/m 1,1 km/h (1 Bft) S-SW 209 0 min 0,000 mm 0,0 UV-I 0 W/m 14,0 C 15,5 C 1,6 km/h (1 Bft) 100,00 %
28.05.2016 03:40 15,5 C 91 % 1012,2 hPa 0,0 l/m 1,0 km/h (0 Bft) S-SW 209 0 min 0,000 mm 0,0 UV-I 0 W/m 14,0 C 15,5 C 1,6 km/h (1 Bft) 95,83 %
28.05.2016 03:41 15,5 C 91 % 1012,2 hPa 0,0 l/m 0,4 km/h (0 Bft) S-SW 209 0 min 0,000 mm 0,0 UV-I 0 W/m 14,0 C 15,5 C 1,6 km/h (1 Bft) 100,00 %
28.05.2016 03:42 15,4 C 91 % 1012,2 hPa 0,0 l/m 0,7 km/h (0 Bft) S-SW 209 0 min 0,000 mm 0,0 UV-I 0 W/m 13,9 C 15,4 C 1,6 km/h (1 Bft) 100,00 %
28.05.2016 03:43 15,4 C 91 % 1012,2 hPa 0,0 l/m 1,5 km/h (1 Bft) S-SW 209 0 min 0,000 mm 0,0 UV-I 0 W/m 13,9 C 15,4 C 1,6 km/h (1 Bft) 100,00 %
28.05.2016 03:44 15,4 C 91 % 1012,1 hPa 0,0 l/m 0,5 km/h (0 Bft) S-SW 209 0 min 0,000 mm 0,0 UV-I 0 W/m 13,9 C 15,4 C 1,6 km/h (1 Bft) 100,00 %
28.05.2016 03:45 15,4 C 92 % 1012,1 hPa 0,0 l/m 0,4 km/h (0 Bft) S-SW 209 0 min 0,000 mm 0,0 UV-I 0 W/m 14,1 C 15,4 C 1,6 km/h (1 Bft) 100,00 %
28.05.2016 03:46 15,4 C 91 % 1012,1 hPa 0,0 l/m 0,3 km/h (0 Bft) S-SW 209 0 min 0,000 mm 0,0 UV-I 0 W/m 13,9 C 15,4 C 1,6 km/h (1 Bft) 100,00 %
28.05.2016 03:47 15,3 C 91 % 1012,1 hPa 0,0 l/m 0,6 km/h (0 Bft) S-SW 209 0 min 0,000 mm 0,0 UV-I 0 W/m 13,8 C 15,3 C 1,6 km/h (1 Bft) 100,00 %
28.05.2016 03:48 15,3 C 91 % 1012,1 hPa 0,0 l/m 1,5 km/h (1 Bft) S-SW 209 0 min 0,000 mm 0,0 UV-I 0 W/m 13,8 C 15,3 C 1,6 km/h (1 Bft) 100,00 %
28.05.2016 03:49 15,3 C 91 % 1012,1 hPa 0,0 l/m 1,5 km/h (1 Bft) S-SW 209 0 min 0,000 mm 0,0 UV-I 0 W/m 13,8 C 15,3 C 3,2 km/h (1 Bft) 100,00 %
28.05.2016 03:50 15,2 C 91 % 1012,1 hPa 0,0 l/m 1,2 km/h (1 Bft) S-SW 209 0 min 0,000 mm 0,0 UV-I 0 W/m 13,7 C 15,2 C 1,6 km/h (1 Bft) 100,00 %
28.05.2016 03:51 15,0 C 91 % 1012,1 hPa 0,0 l/m 1,1 km/h (1 Bft) S-SW 209 0 min 0,000 mm 0,0 UV-I 0 W/m 13,5 C 15,0 C 1,6 km/h (1 Bft) 92,31 %
28.05.2016 03:52 14,9 C 92 % 1012,1 hPa 0,0 l/m 0,5 km/h (0 Bft) S-SW 209 0 min 0,000 mm 0,0 UV-I 0 W/m 13,6 C 14,9 C 1,6 km/h (1 Bft) 100,00 %
28.05.2016 03:53 14,9 C 92 % 1012,1 hPa 0,0 l/m 0,0 km/h (0 Bft) S-SW 209 0 min 0,000 mm 0,0 UV-I 0 W/m 13,6 C 14,9 C 0,0 km/h (0 Bft) 100,00 %
28.05.2016 03:54 14,8 C 92 % 1012,1 hPa 0,0 l/m 1,9 km/h (1 Bft) S-SW 209 0 min 0,000 mm 0,0 UV-I 0 W/m 13,5 C 14,8 C 4,8 km/h (1 Bft) 100,00 %
28.05.2016 03:55 14,8 C 92 % 1012,1 hPa 0,0 l/m 5,4 km/h (1 Bft) O 79 0 min 0,000 mm 0,0 UV-I 0 W/m 13,5 C 14,8 C 6,4 km/h (2 Bft) 100,00 %
28.05.2016 03:56 14,8 C 93 % 1012,1 hPa 0,0 l/m 5,1 km/h (1 Bft) O 79 0 min 0,000 mm 0,0 UV-I 0 W/m 13,7 C 14,8 C 6,4 km/h (2 Bft) 100,00 %
28.05.2016 03:57 14,8 C 93 % 1012,0 hPa 0,0 l/m 4,7 km/h (1 Bft) O 79 0 min 0,000 mm 0,0 UV-I 0 W/m 13,7 C 14,8 C 4,8 km/h (1 Bft) 100,00 %
28.05.2016 03:58 14,8 C 93 % 1012,1 hPa 0,0 l/m 3,4 km/h (1 Bft) O 79 0 min 0,000 mm 0,0 UV-I 0 W/m 13,7 C 14,8 C 4,8 km/h (1 Bft) 100,00 %
28.05.2016 03:59 14,9 C 93 % 1012,1 hPa 0,0 l/m 2,8 km/h (1 Bft) O 79 0 min 0,000 mm 0,0 UV-I 0 W/m 13,8 C 14,9 C 3,2 km/h (1 Bft) 96,30 %
28.05.2016 04:00 14,8 C 91 % 1012,1 hPa 0,0 l/m 4,3 km/h (1 Bft) O 79 0 min 0,000 mm 0,0 UV-I 0 W/m 13,3 C 14,8 C 4,8 km/h (1 Bft) 100,00 %
28.05.2016 04:05 14,5 C 92 % 1012,0 hPa 0,0 l/m 6,4 km/h (2 Bft) O-SO 112 0 min 0,000 mm 0,0 UV-I 0 W/m 13,2 C 14,5 C 9,7 km/h (2 Bft) 99,12 %
28.05.2016 04:10 14,6 C 93 % 1012,0 hPa 0,0 l/m 1,6 km/h (1 Bft) SO 135 0 min 0,000 mm 0,0 UV-I 0 W/m 13,5 C 14,6 C 6,4 km/h (2 Bft) 99,12 %
28.05.2016 04:15 14,5 C 94 % 1012,0 hPa 0,0 l/m 1,6 km/h (1 Bft) SO 135 0 min 0,000 mm 0,0 UV-I 0 W/m 13,5 C 14,5 C 3,2 km/h (1 Bft) 100,00 %
28.05.2016 04:20 14,2 C 93 % 1012,1 hPa 0,0 l/m 1,6 km/h (1 Bft) S-SW 202 0 min 0,000 mm 0,0 UV-I 0 W/m 13,1 C 14,2 C 4,8 km/h (1 Bft) 98,25 %
28.05.2016 04:25 13,9 C 94 % 1012,2 hPa 0,0 l/m 1,6 km/h (1 Bft) S-SW 202 0 min 0,000 mm 0,0 UV-I 0 W/m 12,9 C 13,9 C 3,2 km/h (1 Bft) 100,00 %
28.05.2016 04:30 13,8 C 95 % 1012,1 hPa 0,0 l/m 1,6 km/h (1 Bft) S-SW 202 0 min 0,000 mm 0,0 UV-I 0 W/m 13,0 C 13,8 C 3,2 km/h (1 Bft) 98,25 %
28.05.2016 04:35 14,0 C 95 % 1012,0 hPa 0,0 l/m 1,6 km/h (1 Bft) S-SW 202 0 min 0,000 mm 0,0 UV-I 0 W/m 13,2 C 14,0 C 3,2 km/h (1 Bft) 100,00 %
28.05.2016 04:40 14,2 C 95 % 1011,9 hPa 0,0 l/m 1,6 km/h (1 Bft) S-SW 202 0 min 0,000 mm 0,0 UV-I 0 W/m 13,4 C 14,2 C 3,2 km/h (1 Bft) 97,37 %
28.05.2016 04:45 13,9 C 94 % 1011,9 hPa 0,0 l/m 1,6 km/h (1 Bft) S-SW 202 0 min 0,000 mm 0,0 UV-I 0 W/m 12,9 C 13,9 C 6,4 km/h (2 Bft) 98,25 %
28.05.2016 04:50 13,8 C 95 % 1012,0 hPa 0,0 l/m 4,8 km/h (1 Bft) S 180 0 min 0,000 mm 0,0 UV-I 0 W/m 13,0 C 13,8 C 8,0 km/h (2 Bft) 98,25 %
28.05.2016 04:55 13,8 C 95 % 1011,9 hPa 0,0 l/m 3,2 km/h (1 Bft) S 180 0 min 0,000 mm 0,0 UV-I 0 W/m 13,0 C 13,8 C 4,8 km/h (1 Bft) 97,37 %
28.05.2016 05:00 13,9 C 95 % 1011,8 hPa 0,0 l/m 1,6 km/h (1 Bft) S 180 0 min 0,000 mm 0,0 UV-I 0 W/m 13,1 C 13,9 C 4,8 km/h (1 Bft) 96,49 %
28.05.2016 05:05 13,7 C 94 % 1011,6 hPa 0,0 l/m 3,2 km/h (1 Bft) S 180 0 min 0,000 mm 0,0 UV-I 0 W/m 12,8 C 13,7 C 4,8 km/h (1 Bft) 98,25 %
28.05.2016 05:10 13,5 C 94 % 1011,6 hPa 0,0 l/m 3,2 km/h (1 Bft) S 180 0 min 0,000 mm 0,0 UV-I 0 W/m 12,6 C 13,5 C 4,8 km/h (1 Bft) 98,25 %
28.05.2016 05:15 13,7 C 95 % 1011,6 hPa 0,0 l/m 3,2 km/h (1 Bft) S 180 0 min 0,000 mm 0,0 UV-I 2 W/m 12,9 C 13,7 C 4,8 km/h (1 Bft) 96,49 %
28.05.2016 05:20 13,8 C 95 % 1011,6 hPa 0,0 l/m 1,6 km/h (1 Bft) S 180 0 min 0,000 mm 0,0 UV-I 5 W/m 13,0 C 13,8 C 3,2 km/h (1 Bft) 99,12 %
28.05.2016 05:25 13,7 C 94 % 1011,6 hPa 0,0 l/m 1,6 km/h (1 Bft) S 180 0 min 0,000 mm 0,0 UV-I 7 W/m 12,8 C 13,7 C 3,2 km/h (1 Bft) 98,25 %
28.05.2016 05:30 13,6 C 95 % 1011,7 hPa 0,0 l/m 0,0 km/h (0 Bft) S 180 0 min 0,000 mm 0,0 UV-I 9 W/m 12,8 C 13,6 C 3,2 km/h (1 Bft) 99,12 %
28.05.2016 05:35 13,6 C 95 % 1011,5 hPa 0,0 l/m 0,0 km/h (0 Bft) S 180 0 min 0,000 mm 0,0 UV-I 11 W/m 12,8 C 13,6 C 1,6 km/h (1 Bft) 99,12 %
28.05.2016 05:40 13,6 C 95 % 1011,6 hPa 0,0 l/m 1,6 km/h (1 Bft) S 180 0 min 0,000 mm 0,0 UV-I 15 W/m 12,8 C 13,6 C 3,2 km/h (1 Bft) 100,00 %
28.05.2016 05:45 13,7 C 94 % 1011,6 hPa 0,0 l/m 0,0 km/h (0 Bft) S 180 0 min 0,000 mm 0,0 UV-I 20 W/m 12,8 C 13,7 C 1,6 km/h (1 Bft) 99,12 %
28.05.2016 05:50 13,8 C 94 % 1011,7 hPa 0,0 l/m 0,0 km/h (0 Bft) S 180 0 min 0,000 mm 0,0 UV-I 24 W/m 12,9 C 13,8 C 1,6 km/h (1 Bft) 98,25 %
28.05.2016 05:55 13,9 C 93 % 1011,6 hPa 0,0 l/m 0,0 km/h (0 Bft) S 180 0 min 0,000 mm 0,0 UV-I 27 W/m 12,8 C 13,9 C 3,2 km/h (1 Bft) 98,25 %
28.05.2016 06:00 13,7 C 93 % 1011,7 hPa 0,0 l/m 1,6 km/h (1 Bft) S 180 0 min 0,000 mm 0,0 UV-I 28 W/m 12,6 C 13,7 C 3,2 km/h (1 Bft) 100,00 %
28.05.2016 06:05 13,7 C 94 % 1011,7 hPa 0,0 l/m 0,0 km/h (0 Bft) S 180 0 min 0,000 mm 0,0 UV-I 31 W/m 12,8 C 13,7 C 1,6 km/h (1 Bft) 100,00 %
28.05.2016 06:10 13,8 C 94 % 1011,6 hPa 0,0 l/m 0,0 km/h (0 Bft) N 0 0 min 0,000 mm 0,0 UV-I 39 W/m 12,9 C 13,8 C 0,0 km/h (0 Bft) 99,12 %
28.05.2016 06:15 13,9 C 94 % 1011,5 hPa 0,0 l/m 0,0 km/h (0 Bft) N 0 0 min 0,000 mm 0,0 UV-I 51 W/m 12,9 C 13,9 C 0,0 km/h (0 Bft) 100,00 %
28.05.2016 06:20 14,3 C 94 % 1011,5 hPa 0,0 l/m 0,0 km/h (0 Bft) N 0 0 min 0,000 mm 0,0 UV-I 56 W/m 13,3 C 14,3 C 0,0 km/h (0 Bft) 100,00 %
28.05.2016 06:25 14,4 C 94 % 1011,4 hPa 0,0 l/m 0,0 km/h (0 Bft) N 0 0 min 0,000 mm 0,0 UV-I 57 W/m 13,4 C 14,4 C 0,0 km/h (0 Bft) 99,12 %
28.05.2016 06:30 14,7 C 93 % 1011,4 hPa 0,0 l/m 0,0 km/h (0 Bft) N 0 0 min 0,000 mm 0,0 UV-I 49 W/m 13,6 C 14,7 C 0,0 km/h (0 Bft) 100,00 %
28.05.2016 06:35 14,9 C 93 % 1011,4 hPa 0,0 l/m 0,0 km/h (0 Bft) N 0 0 min 0,000 mm 0,0 UV-I 44 W/m 13,8 C 14,9 C 0,0 km/h (0 Bft) 100,00 %
28.05.2016 06:40 14,8 C 92 % 1011,3 hPa 0,0 l/m 0,0 km/h (0 Bft) N 0 0 min 0,000 mm 0,0 UV-I 47 W/m 13,5 C 14,8 C 0,0 km/h (0 Bft) 99,12 %
28.05.2016 06:45 14,8 C 93 % 1011,3 hPa 0,0 l/m 0,0 km/h (0 Bft) N 0 0 min 0,000 mm 0,0 UV-I 59 W/m 13,7 C 14,8 C 0,0 km/h (0 Bft) 100,00 %
28.05.2016 06:50 14,8 C 94 % 1011,4 hPa 0,0 l/m 0,0 km/h (0 Bft) N 0 0 min 0,000 mm 0,0 UV-I 79 W/m 13,8 C 14,8 C 0,0 km/h (0 Bft) 99,12 %
28.05.2016 06:55 15,1 C 93 % 1011,5 hPa 0,0 l/m 0,0 km/h (0 Bft) S 180 0 min 0,000 mm 0,0 UV-I 97 W/m 14,0 C 15,1 C 1,6 km/h (1 Bft) 98,25 %
28.05.2016 07:00 15,2 C 93 % 1011,4 hPa 0,0 l/m 0,0 km/h (0 Bft) N 0 0 min 0,025 mm 0,0 UV-I 103 W/m 14,1 C 15,2 C 0,0 km/h (0 Bft) 98,25 %
28.05.2016 07:05 15,3 C 92 % 1011,4 hPa 0,0 l/m 0,0 km/h (0 Bft) N 0 0 min 0,000 mm 0,0 UV-I 103 W/m 14,0 C 15,3 C 0,0 km/h (0 Bft) 97,37 %
28.05.2016 07:10 15,4 C 92 % 1011,6 hPa 0,0 l/m 0,0 km/h (0 Bft) N 0 0 min 0,000 mm 0,0 UV-I 126 W/m 14,1 C 15,4 C 0,0 km/h (0 Bft) 98,25 %
28.05.2016 07:15 15,6 C 89 % 1011,6 hPa 0,0 l/m 0,0 km/h (0 Bft) N 0 0 min 0,000 mm 0,0 UV-I 117 W/m 13,8 C 15,6 C 0,0 km/h (0 Bft) 97,37 %
28.05.2016 07:20 15,8 C 88 % 1011,6 hPa 0,0 l/m 0,0 km/h (0 Bft) N 0 0 min 0,000 mm 0,0 UV-I 119 W/m 13,8 C 15,8 C 0,0 km/h (0 Bft) 96,49 %
28.05.2016 07:25 15,9 C 89 % 1011,6 hPa 0,0 l/m 0,0 km/h (0 Bft) N 0 0 min 0,000 mm 0,0 UV-I 102 W/m 14,1 C 15,9 C 0,0 km/h (0 Bft) 98,25 %
28.05.2016 07:30 15,9 C 88 % 1011,7 hPa 0,0 l/m 0,0 km/h (0 Bft) N 0 0 min 0,000 mm 0,0 UV-I 98 W/m 13,9 C 15,9 C 0,0 km/h (0 Bft) 99,12 %
28.05.2016 07:35 16,0 C 89 % 1011,7 hPa 0,0 l/m 0,0 km/h (0 Bft) N 0 0 min 0,000 mm 0,5 UV-I 119 W/m 14,2 C 16,0 C 0,0 km/h (0 Bft) 100,00 %
28.05.2016 07:40 16,4 C 90 % 1011,7 hPa 0,0 l/m 0,0 km/h (0 Bft) N 0 5 min 0,000 mm 0,6 UV-I 283 W/m 14,8 C 16,4 C 0,0 km/h (0 Bft) 100,00 %
28.05.2016 07:45 16,8 C 87 % 1011,7 hPa 0,0 l/m 0,0 km/h (0 Bft) S 180 5 min 0,000 mm 0,7 UV-I 339 W/m 14,6 C 16,8 C 3,2 km/h (1 Bft) 100,00 %
28.05.2016 07:50 16,9 C 86 % 1011,8 hPa 0,0 l/m 0,0 km/h (0 Bft) S 180 0 min 0,000 mm 0,7 UV-I 185 W/m 14,5 C 16,9 C 1,6 km/h (1 Bft) 99,12 %
28.05.2016 07:55 16,8 C 87 % 1011,7 hPa 0,0 l/m 0,0 km/h (0 Bft) S 180 0 min 0,000 mm 0,7 UV-I 115 W/m 14,6 C 16,8 C 1,6 km/h (1 Bft) 100,00 %
28.05.2016 08:00 16,7 C 87 % 1011,6 hPa 0,0 l/m 0,0 km/h (0 Bft) S 180 0 min 0,076 mm 0,8 UV-I 157 W/m 14,5 C 16,7 C 1,6 km/h (1 Bft) 99,12 %
28.05.2016 08:04 16,8 C 88 % 1011,6 hPa 0,0 l/m 0,0 km/h (0 Bft) S 172 0 min 0,001 mm 0,8 UV-I 114 W/m 14,8 C 16,8 C 0,0 km/h (0 Bft) 100,00 %
28.05.2016 08:05 16,8 C 89 % 1011,6 hPa 0,0 l/m 0,1 km/h (0 Bft) S 172 0 min 0,000 mm 1,0 UV-I 227 W/m 15,0 C 16,8 C 1,6 km/h (1 Bft) 100,00 %
28.05.2016 08:06 16,9 C 88 % 1011,6 hPa 0,0 l/m 0,2 km/h (0 Bft) S 172 1 min 0,000 mm 1,1 UV-I 390 W/m 14,9 C 16,9 C 1,6 km/h (1 Bft) 100,00 %
28.05.2016 08:07 17,0 C 89 % 1011,7 hPa 0,0 l/m 0,0 km/h (0 Bft) S 172 1 min 0,000 mm 1,1 UV-I 399 W/m 15,2 C 17,0 C 0,0 km/h (0 Bft) 100,00 %
28.05.2016 08:08 17,2 C 90 % 1011,6 hPa 0,0 l/m 0,2 km/h (0 Bft) S 172 1 min 0,000 mm 1,1 UV-I 404 W/m 15,5 C 17,2 C 1,6 km/h (1 Bft) 100,00 %
28.05.2016 08:09 17,3 C 89 % 1011,6 hPa 0,0 l/m 0,5 km/h (0 Bft) S 173 1 min 0,000 mm 1,1 UV-I 411 W/m 15,5 C 17,3 C 1,6 km/h (1 Bft) 100,00 %
28.05.2016 08:10 17,3 C 89 % 1011,6 hPa 0,0 l/m 0,9 km/h (0 Bft) S 175 1 min 0,000 mm 1,0 UV-I 332 W/m 15,5 C 17,3 C 1,6 km/h (1 Bft) 100,00 %
28.05.2016 08:11 17,4 C 87 % 1011,6 hPa 0,0 l/m 0,9 km/h (0 Bft) S 175 0 min 0,000 mm 1,0 UV-I 197 W/m 15,2 C 17,4 C 1,6 km/h (1 Bft) 100,00 %
28.05.2016 08:12 17,4 C 87 % 1011,6 hPa 0,0 l/m 2,1 km/h (1 Bft) S-SW 193 1 min 0,000 mm 1,2 UV-I 345 W/m 15,2 C 17,4 C 3,2 km/h (1 Bft) 100,00 %
28.05.2016 08:13 17,4 C 86 % 1011,6 hPa 0,0 l/m 2,0 km/h (1 Bft) S-SW 194 1 min 0,000 mm 1,2 UV-I 429 W/m 15,0 C 17,4 C 3,2 km/h (1 Bft) 100,00 %
28.05.2016 08:14 17,4 C 86 % 1011,6 hPa 0,0 l/m 1,2 km/h (1 Bft) S-SW 194 1 min 0,000 mm 1,2 UV-I 433 W/m 15,0 C 17,4 C 3,2 km/h (1 Bft) 100,00 %
28.05.2016 08:15 17,4 C 87 % 1011,6 hPa 0,0 l/m 0,9 km/h (0 Bft) S-SW 200 1 min 0,000 mm 1,3 UV-I 436 W/m 15,2 C 17,4 C 3,2 km/h (1 Bft) 100,00 %
28.05.2016 08:16 17,5 C 86 % 1011,7 hPa 0,0 l/m 0,8 km/h (0 Bft) S-SW 200 1 min 0,000 mm 1,3 UV-I 445 W/m 15,1 C 17,5 C 1,6 km/h (1 Bft) 100,00 %
28.05.2016 08:17 17,6 C 87 % 1011,6 hPa 0,0 l/m 2,2 km/h (1 Bft) S-SW 200 1 min 0,000 mm 1,3 UV-I 446 W/m 15,4 C 17,6 C 4,8 km/h (1 Bft) 91,67 %
28.05.2016 08:18 17,7 C 87 % 1011,6 hPa 0,0 l/m 3,2 km/h (1 Bft) S-SW 200 1 min 0,000 mm 1,2 UV-I 446 W/m 15,5 C 17,7 C 4,8 km/h (1 Bft) 95,65 %
28.05.2016 08:19 17,7 C 88 % 1011,6 hPa 0,0 l/m 2,5 km/h (1 Bft) S-SW 200 0 min 0,000 mm 1,1 UV-I 252 W/m 15,7 C 17,7 C 4,8 km/h (1 Bft) 95,83 %
28.05.2016 08:20 17,7 C 88 % 1011,7 hPa 0,0 l/m 1,8 km/h (1 Bft) S-SW 200 0 min 0,000 mm 1,1 UV-I 196 W/m 15,7 C 17,7 C 3,2 km/h (1 Bft) 93,10 %
28.05.2016 08:21 17,7 C 88 % 1011,7 hPa 0,0 l/m 0,6 km/h (0 Bft) S-SW 200 0 min 0,000 mm 1,2 UV-I 215 W/m 15,7 C 17,7 C 1,6 km/h (1 Bft) 100,00 %
28.05.2016 08:22 17,7 C 87 % 1011,6 hPa 0,0 l/m 0,9 km/h (0 Bft) S-SW 201 0 min 0,000 mm 1,2 UV-I 262 W/m 15,5 C 17,7 C 3,2 km/h (1 Bft) 96,43 %
28.05.2016 08:23 17,8 C 87 % 1011,7 hPa 0,0 l/m 0,9 km/h (0 Bft) S-SW 206 1 min 0,000 mm 1,4 UV-I 343 W/m 15,6 C 17,8 C 3,2 km/h (1 Bft) 96,67 %
28.05.2016 08:24 17,8 C 87 % 1011,7 hPa 0,0 l/m 1,4 km/h (1 Bft) NW 317 1 min 0,000 mm 1,4 UV-I 464 W/m 15,6 C 17,8 C 3,2 km/h (1 Bft) 100,00 %
28.05.2016 08:25 17,9 C 88 % 1011,6 hPa 0,0 l/m 1,9 km/h (1 Bft) NW 319 1 min 0,000 mm 1,4 UV-I 464 W/m 15,9 C 17,9 C 3,2 km/h (1 Bft) 96,30 %
28.05.2016 08:26 17,9 C 87 % 1011,6 hPa 0,0 l/m 2,1 km/h (1 Bft) N 355 1 min 0,000 mm 1,3 UV-I 437 W/m 15,7 C 17,9 C 4,8 km/h (1 Bft) 96,88 %
28.05.2016 08:27 17,9 C 86 % 1011,6 hPa 0,0 l/m 1,0 km/h (0 Bft) N-NW 346 0 min 0,000 mm 1,2 UV-I 248 W/m 15,5 C 17,9 C 1,6 km/h (1 Bft) 91,67 %
28.05.2016 08:28 17,9 C 86 % 1011,6 hPa 0,0 l/m 1,0 km/h (0 Bft) N-NW 346 0 min 0,000 mm 1,4 UV-I 248 W/m 15,5 C 17,9 C 1,6 km/h (1 Bft) 96,55 %
28.05.2016 08:29 17,9 C 86 % 1011,6 hPa 0,0 l/m 2,7 km/h (1 Bft) NW 310 0 min 0,000 mm 1,6 UV-I 248 W/m 15,5 C 17,9 C 4,8 km/h (1 Bft) 100,00 %
28.05.2016 08:30 18,0 C 86 % 1011,6 hPa 0,0 l/m 1,9 km/h (1 Bft) NW 319 1 min 0,000 mm 1,6 UV-I 525 W/m 15,6 C 18,0 C 4,8 km/h (1 Bft) 96,15 %
28.05.2016 08:31 18,1 C 85 % 1011,6 hPa 0,0 l/m 2,1 km/h (1 Bft) NW 319 1 min 0,000 mm 1,5 UV-I 594 W/m 15,5 C 18,1 C 3,2 km/h (1 Bft) 100,00 %
28.05.2016 08:32 18,1 C 85 % 1011,6 hPa 0,0 l/m 1,9 km/h (1 Bft) N-NW 344 1 min 0,000 mm 1,4 UV-I 392 W/m 15,5 C 18,1 C 3,2 km/h (1 Bft) 96,55 %
28.05.2016 08:33 18,2 C 85 % 1011,6 hPa 0,0 l/m 3,5 km/h (1 Bft) NW 315 1 min 0,000 mm 1,2 UV-I 352 W/m 15,6 C 18,2 C 4,8 km/h (1 Bft) 100,00 %
28.05.2016 08:34 18,2 C 86 % 1011,6 hPa 0,0 l/m 1,7 km/h (1 Bft) NW 320 0 min 0,000 mm 1,2 UV-I 226 W/m 15,8 C 18,2 C 4,8 km/h (1 Bft) 95,65 %
28.05.2016 08:35 18,2 C 85 % 1011,7 hPa 0,0 l/m 1,8 km/h (1 Bft) N-NW 329 0 min 0,000 mm 1,1 UV-I 216 W/m 15,6 C 18,2 C 6,4 km/h (2 Bft) 95,83 %
28.05.2016 08:36 18,1 C 86 % 1011,7 hPa 0,0 l/m 0,1 km/h (0 Bft) N-NW 329 0 min 0,000 mm 1,2 UV-I 187 W/m 15,7 C 18,1 C 1,6 km/h (1 Bft) 100,00 %
28.05.2016 08:37 18,1 C 86 % 1011,7 hPa 0,0 l/m 0,8 km/h (0 Bft) N-NW 327 0 min 0,000 mm 1,2 UV-I 213 W/m 15,7 C 18,1 C 3,2 km/h (1 Bft) 95,65 %
28.05.2016 08:38 18,1 C 86 % 1011,8 hPa 0,0 l/m 0,4 km/h (0 Bft) N-NW 327 0 min 0,000 mm 1,2 UV-I 230 W/m 15,7 C 18,1 C 1,6 km/h (1 Bft) 100,00 %
28.05.2016 08:39 18,1 C 85 % 1011,8 hPa 0,0 l/m 2,5 km/h (1 Bft) NW 325 0 min 0,000 mm 1,2 UV-I 244 W/m 15,5 C 18,1 C 4,8 km/h (1 Bft) 93,33 %
28.05.2016 08:40 18,0 C 85 % 1011,8 hPa 0,0 l/m 1,6 km/h (1 Bft) NW 325 0 min 0,000 mm 1,3 UV-I 255 W/m 15,4 C 18,0 C 3,2 km/h (1 Bft) 100,00 %
28.05.2016 08:41 17,9 C 84 % 1011,9 hPa 0,0 l/m 1,0 km/h (0 Bft) NW 325 0 min 0,000 mm 1,3 UV-I 260 W/m 15,2 C 17,9 C 3,2 km/h (1 Bft) 91,30 %
28.05.2016 08:42 17,9 C 84 % 1011,8 hPa 0,0 l/m 0,8 km/h (0 Bft) NW 325 0 min 0,000 mm 1,3 UV-I 258 W/m 15,2 C 17,9 C 1,6 km/h (1 Bft) 100,00 %
28.05.2016 08:43 17,9 C 86 % 1011,9 hPa 0,0 l/m 3,0 km/h (1 Bft) N-NW 337 0 min 0,000 mm 1,3 UV-I 244 W/m 15,5 C 17,9 C 4,8 km/h (1 Bft) 96,15 %
28.05.2016 08:44 17,9 C 86 % 1011,9 hPa 0,0 l/m 3,2 km/h (1 Bft) N-NW 347 0 min 0,000 mm 1,3 UV-I 231 W/m 15,5 C 17,9 C 4,8 km/h (1 Bft) 95,83 %
28.05.2016 08:45 17,9 C 87 % 1011,9 hPa 0,0 l/m 4,0 km/h (1 Bft) N 5 0 min 0,000 mm 1,3 UV-I 219 W/m 15,7 C 17,9 C 6,4 km/h (2 Bft) 100,00 %
28.05.2016 08:46 17,9 C 87 % 1011,9 hPa 0,0 l/m 0,5 km/h (0 Bft) N 5 0 min 0,000 mm 1,3 UV-I 216 W/m 15,7 C 17,9 C 1,6 km/h (1 Bft) 95,83 %
28.05.2016 08:47 17,9 C 87 % 1011,9 hPa 0,0 l/m 2,3 km/h (1 Bft) N 5 0 min 0,000 mm 1,3 UV-I 216 W/m 15,7 C 17,9 C 4,8 km/h (1 Bft) 100,00 %
28.05.2016 08:48 17,9 C 86 % 1011,9 hPa 0,0 l/m 1,2 km/h (1 Bft) N 5 0 min 0,000 mm 1,3 UV-I 220 W/m 15,5 C 17,9 C 3,2 km/h (1 Bft) 96,30 %
28.05.2016 08:49 17,9 C 86 % 1012,0 hPa 0,0 l/m 0,5 km/h (0 Bft) N 5 0 min 0,000 mm 1,4 UV-I 231 W/m 15,5 C 17,9 C 3,2 km/h (1 Bft) 100,00 %
28.05.2016 08:50 17,9 C 87 % 1012,0 hPa 0,0 l/m 2,9 km/h (1 Bft) N 5 0 min 0,000 mm 1,4 UV-I 239 W/m 15,7 C 17,9 C 4,8 km/h (1 Bft) 91,67 %
28.05.2016 08:51 18,0 C 88 % 1011,9 hPa 0,0 l/m 2,7 km/h (1 Bft) N 5 0 min 0,000 mm 1,8 UV-I 239 W/m 16,0 C 18,0 C 3,2 km/h (1 Bft) 100,00 %
28.05.2016 08:52 18,1 C 88 % 1012,0 hPa 0,0 l/m 2,7 km/h (1 Bft) N 5 1 min 0,000 mm 1,8 UV-I 348 W/m 16,1 C 18,1 C 4,8 km/h (1 Bft) 96,15 %
28.05.2016 08:53 18,2 C 86 % 1012,0 hPa 0,0 l/m 1,8 km/h (1 Bft) N 5 1 min 0,000 mm 1,9 UV-I 493 W/m 15,8 C 18,2 C 4,8 km/h (1 Bft) 92,59 %
28.05.2016 08:54 18,2 C 86 % 1011,9 hPa 0,0 l/m 3,6 km/h (1 Bft) N 5 1 min 0,000 mm 1,6 UV-I 459 W/m 15,8 C 18,2 C 4,8 km/h (1 Bft) 91,30 %
28.05.2016 08:55 18,2 C 86 % 1011,9 hPa 0,0 l/m 3,7 km/h (1 Bft) N 11 0 min 0,000 mm 1,5 UV-I 250 W/m 15,8 C 18,2 C 6,4 km/h (2 Bft) 100,00 %
28.05.2016 08:56 18,3 C 88 % 1011,9 hPa 0,0 l/m 5,2 km/h (1 Bft) N 11 0 min 0,000 mm 1,9 UV-I 290 W/m 16,3 C 18,3 C 6,4 km/h (2 Bft) 100,00 %
28.05.2016 08:57 18,3 C 86 % 1011,9 hPa 0,0 l/m 4,2 km/h (1 Bft) N 11 1 min 0,000 mm 2,0 UV-I 537 W/m 15,9 C 18,3 C 4,8 km/h (1 Bft) 100,00 %
28.05.2016 08:58 18,3 C 86 % 1011,9 hPa 0,0 l/m 2,3 km/h (1 Bft) N 11 1 min 0,000 mm 1,9 UV-I 505 W/m 15,9 C 18,3 C 3,2 km/h (1 Bft) 100,00 %
28.05.2016 08:59 18,4 C 87 % 1011,9 hPa 0,0 l/m 3,6 km/h (1 Bft) N-NO 12 1 min 0,000 mm 1,7 UV-I 496 W/m 16,2 C 18,4 C 4,8 km/h (1 Bft) 100,00 %
28.05.2016 09:00 18,4 C 86 % 1011,9 hPa 0,0 l/m 3,0 km/h (1 Bft) N-NO 15 1 min 0,177 mm 1,6 UV-I 332 W/m 16,0 C 18,4 C 4,8 km/h (1 Bft) 95,65 %
28.05.2016 09:01 18,4 C 86 % 1011,9 hPa 0,0 l/m 4,4 km/h (1 Bft) NO 36 0 min 0,000 mm 1,4 UV-I 197 W/m 16,0 C 18,4 C 6,4 km/h (2 Bft) 95,83 %
28.05.2016 09:02 18,4 C 85 % 1011,9 hPa 0,0 l/m 2,1 km/h (1 Bft) NO 36 0 min 0,000 mm 1,5 UV-I 190 W/m 15,8 C 18,4 C 4,8 km/h (1 Bft) 100,00 %
28.05.2016 09:03 18,3 C 85 % 1011,9 hPa 0,0 l/m 3,6 km/h (1 Bft) NO 38 0 min 0,000 mm 1,5 UV-I 190 W/m 15,7 C 18,3 C 6,4 km/h (2 Bft) 100,00 %
28.05.2016 09:04 18,3 C 85 % 1011,9 hPa 0,0 l/m 3,9 km/h (1 Bft) NO 38 0 min 0,000 mm 1,6 UV-I 192 W/m 15,7 C 18,3 C 4,8 km/h (1 Bft) 100,00 %
28.05.2016 09:05 18,3 C 85 % 1011,9 hPa 0,0 l/m 3,4 km/h (1 Bft) NO 36 0 min 0,000 mm 1,8 UV-I 266 W/m 15,7 C 18,3 C 4,8 km/h (1 Bft) 100,00 %
28.05.2016 09:06 18,3 C 86 % 1011,9 hPa 0,0 l/m 3,1 km/h (1 Bft) N-NO 30 0 min 0,000 mm 1,8 UV-I 260 W/m 15,9 C 18,3 C 4,8 km/h (1 Bft) 100,00 %
28.05.2016 09:07 18,3 C 84 % 1011,9 hPa 0,0 l/m 2,3 km/h (1 Bft) NO 42 0 min 0,000 mm 1,9 UV-I 311 W/m 15,5 C 18,3 C 4,8 km/h (1 Bft) 100,00 %
28.05.2016 09:08 18,3 C 86 % 1011,9 hPa 0,0 l/m 2,3 km/h (1 Bft) NO 42 0 min 0,000 mm 2,2 UV-I 318 W/m 15,9 C 18,3 C 3,2 km/h (1 Bft) 100,00 %
28.05.2016 09:09 18,4 C 85 % 1012,0 hPa 0,0 l/m 1,7 km/h (1 Bft) N-NO 32 0 min 0,000 mm 1,9 UV-I 318 W/m 15,8 C 18,4 C 3,2 km/h (1 Bft) 96,30 %
28.05.2016 09:10 18,6 C 87 % 1012,0 hPa 0,0 l/m 3,4 km/h (1 Bft) N-NO 16 1 min 0,000 mm 2,2 UV-I 422 W/m 16,4 C 18,6 C 4,8 km/h (1 Bft) 100,00 %
28.05.2016 09:11 18,7 C 86 % 1012,0 hPa 0,0 l/m 2,8 km/h (1 Bft) N-NO 16 1 min 0,000 mm 2,3 UV-I 521 W/m 16,3 C 18,7 C 4,8 km/h (1 Bft) 100,00 %
28.05.2016 09:12 18,8 C 84 % 1012,0 hPa 0,0 l/m 2,1 km/h (1 Bft) N-NO 16 1 min 0,000 mm 2,4 UV-I 534 W/m 16,0 C 18,8 C 3,2 km/h (1 Bft) 96,15 %
28.05.2016 09:13 18,8 C 85 % 1012,0 hPa 0,0 l/m 2,4 km/h (1 Bft) N-NO 16 1 min 0,000 mm 2,4 UV-I 541 W/m 16,2 C 18,8 C 3,2 km/h (1 Bft) 100,00 %
28.05.2016 09:14 18,9 C 85 % 1012,0 hPa 0,0 l/m 3,4 km/h (1 Bft) NO 45 1 min 0,000 mm 2,2 UV-I 474 W/m 16,3 C 18,9 C 6,4 km/h (2 Bft) 100,00 %
28.05.2016 09:15 19,0 C 84 % 1012,0 hPa 0,0 l/m 3,8 km/h (1 Bft) NO 45 1 min 0,000 mm 2,2 UV-I 406 W/m 16,2 C 19,0 C 4,8 km/h (1 Bft) 100,00 %
28.05.2016 09:16 19,1 C 83 % 1012,0 hPa 0,0 l/m 2,7 km/h (1 Bft) NO 45 1 min 0,000 mm 2,0 UV-I 390 W/m 16,1 C 19,1 C 3,2 km/h (1 Bft) 100,00 %
28.05.2016 09:17 19,0 C 83 % 1012,0 hPa 0,0 l/m 2,7 km/h (1 Bft) NO 45 1 min 0,000 mm 1,8 UV-I 385 W/m 16,0 C 19,0 C 3,2 km/h (1 Bft) 100,00 %
28.05.2016 09:18 18,9 C 84 % 1011,9 hPa 0,0 l/m 3,6 km/h (1 Bft) NO 49 0 min 0,000 mm 1,6 UV-I 278 W/m 16,1 C 18,9 C 4,8 km/h (1 Bft) 100,00 %
28.05.2016 09:19 18,8 C 84 % 1011,9 hPa 0,0 l/m 4,0 km/h (1 Bft) NO 49 0 min 0,000 mm 1,6 UV-I 252 W/m 16,0 C 18,8 C 6,4 km/h (2 Bft) 100,00 %
28.05.2016 09:20 18,8 C 85 % 1012,0 hPa 0,0 l/m 4,1 km/h (1 Bft) NO 50 0 min 0,000 mm 1,7 UV-I 265 W/m 16,2 C 18,8 C 6,4 km/h (2 Bft) 100,00 %
28.05.2016 09:21 18,8 C 83 % 1011,9 hPa 0,0 l/m 4,2 km/h (1 Bft) NO 49 0 min 0,000 mm 1,7 UV-I 285 W/m 15,8 C 18,8 C 6,4 km/h (2 Bft) 100,00 %
28.05.2016 09:22 18,8 C 83 % 1011,9 hPa 0,0 l/m 3,6 km/h (1 Bft) NO 42 0 min 0,000 mm 1,8 UV-I 304 W/m 15,8 C 18,8 C 4,8 km/h (1 Bft) 100,00 %
28.05.2016 09:23 18,8 C 85 % 1011,9 hPa 0,0 l/m 4,3 km/h (1 Bft) N-NO 26 0 min 0,000 mm 1,9 UV-I 324 W/m 16,2 C 18,8 C 6,4 km/h (2 Bft) 100,00 %
28.05.2016 09:24 18,8 C 84 % 1011,9 hPa 0,0 l/m 2,3 km/h (1 Bft) N-NO 25 0 min 0,000 mm 1,9 UV-I 342 W/m 16,0 C 18,8 C 4,8 km/h (1 Bft) 96,30 %
28.05.2016 09:25 18,9 C 85 % 1011,9 hPa 0,0 l/m 3,4 km/h (1 Bft) N-NO 27 1 min 0,000 mm 1,9 UV-I 360 W/m 16,3 C 18,9 C 4,8 km/h (1 Bft) 100,00 %
28.05.2016 09:26 18,9 C 84 % 1011,9 hPa 0,0 l/m 3,0 km/h (1 Bft) N-NO 27 1 min 0,000 mm 2,0 UV-I 381 W/m 16,1 C 18,9 C 4,8 km/h (1 Bft) 100,00 %
28.05.2016 09:27 19,0 C 83 % 1011,9 hPa 0,0 l/m 3,8 km/h (1 Bft) N-NO 27 1 min 0,000 mm 2,1 UV-I 421 W/m 16,0 C 19,0 C 4,8 km/h (1 Bft) 100,00 %
28.05.2016 09:28 19,1 C 81 % 1012,0 hPa 0,0 l/m 3,2 km/h (1 Bft) N-NO 27 1 min 0,000 mm 2,1 UV-I 382 W/m 15,8 C 19,1 C 4,8 km/h (1 Bft) 100,00 %
28.05.2016 09:29 19,0 C 80 % 1011,9 hPa 0,0 l/m 3,4 km/h (1 Bft) N-NO 29 0 min 0,000 mm 1,9 UV-I 342 W/m 15,5 C 19,0 C 4,8 km/h (1 Bft) 100,00 %
28.05.2016 09:30 18,9 C 83 % 1011,9 hPa 0,0 l/m 4,4 km/h (1 Bft) NO 39 0 min 0,000 mm 1,9 UV-I 332 W/m 15,9 C 18,9 C 6,4 km/h (2 Bft) 100,00 %
28.05.2016 09:31 19,0 C 83 % 1011,9 hPa 0,0 l/m 4,2 km/h (1 Bft) NO 40 0 min 0,000 mm 2,0 UV-I 341 W/m 16,0 C 19,0 C 4,8 km/h (1 Bft) 100,00 %
28.05.2016 09:32 19,0 C 82 % 1011,9 hPa 0,0 l/m 3,5 km/h (1 Bft) NO 40 1 min 0,000 mm 2,0 UV-I 364 W/m 15,9 C 19,0 C 4,8 km/h (1 Bft) 100,00 %
28.05.2016 09:33 19,0 C 83 % 1011,9 hPa 0,0 l/m 1,7 km/h (1 Bft) NO 40 0 min 0,000 mm 2,0 UV-I 354 W/m 16,0 C 19,0 C 3,2 km/h (1 Bft) 100,00 %
28.05.2016 09:34 19,1 C 81 % 1011,9 hPa 0,0 l/m 1,3 km/h (1 Bft) NO 40 1 min 0,000 mm 2,2 UV-I 371 W/m 15,8 C 19,1 C 1,6 km/h (1 Bft) 97,37 %
28.05.2016 09:35 19,1 C 82 % 1011,9 hPa 0,0 l/m 2,5 km/h (1 Bft) NO 40 1 min 0,000 mm 2,4 UV-I 405 W/m 16,0 C 19,1 C 3,2 km/h (1 Bft) 92,59 %
28.05.2016 09:36 19,1 C 83 % 1011,9 hPa 0,0 l/m 0,6 km/h (0 Bft) NO 40 1 min 0,000 mm 2,3 UV-I 411 W/m 16,1 C 19,1 C 1,6 km/h (1 Bft) 100,00 %
28.05.2016 09:37 19,2 C 83 % 1011,9 hPa 0,0 l/m 1,1 km/h (1 Bft) NO 40 1 min 0,000 mm 2,5 UV-I 483 W/m 16,2 C 19,2 C 3,2 km/h (1 Bft) 100,00 %
28.05.2016 09:38 19,2 C 82 % 1011,9 hPa 0,0 l/m 0,9 km/h (0 Bft) NO 40 1 min 0,000 mm 2,6 UV-I 512 W/m 16,0 C 19,2 C 1,6 km/h (1 Bft) 100,00 %
28.05.2016 09:39 19,2 C 81 % 1011,9 hPa 0,0 l/m 0,2 km/h (0 Bft) NO 40 1 min 0,000 mm 2,4 UV-I 483 W/m 15,9 C 19,2 C 1,6 km/h (1 Bft) 100,00 %
28.05.2016 09:40 19,2 C 83 % 1011,9 hPa 0,0 l/m 0,2 km/h (0 Bft) NO 40 1 min 0,000 mm 2,4 UV-I 429 W/m 16,2 C 19,2 C 1,6 km/h (1 Bft) 100,00 %
28.05.2016 09:41 19,3 C 83 % 1011,9 hPa 0,0 l/m 0,3 km/h (0 Bft) NO 40 1 min 0,000 mm 2,5 UV-I 463 W/m 16,3 C 19,3 C 1,6 km/h (1 Bft) 100,00 %
28.05.2016 09:42 19,3 C 82 % 1012,0 hPa 0,0 l/m 1,9 km/h (1 Bft) NO 40 1 min 0,000 mm 2,6 UV-I 487 W/m 16,1 C 19,3 C 3,2 km/h (1 Bft) 100,00 %
28.05.2016 09:43 19,3 C 81 % 1012,0 hPa 0,0 l/m 1,2 km/h (1 Bft) NO 40 1 min 0,000 mm 2,5 UV-I 475 W/m 16,0 C 19,3 C 3,2 km/h (1 Bft) 100,00 %
28.05.2016 09:44 19,3 C 81 % 1012,0 hPa 0,0 l/m 1,9 km/h (1 Bft) NO 40 1 min 0,000 mm 2,2 UV-I 419 W/m 16,0 C 19,3 C 3,2 km/h (1 Bft) 100,00 %
28.05.2016 09:45 19,3 C 82 % 1012,0 hPa 0,0 l/m 2,9 km/h (1 Bft) NO 38 0 min 0,000 mm 2,2 UV-I 341 W/m 16,1 C 19,3 C 4,8 km/h (1 Bft) 100,00 %
28.05.2016 09:46 19,3 C 80 % 1012,0 hPa 0,0 l/m 3,7 km/h (1 Bft) N-NO 33 0 min 0,000 mm 2,3 UV-I 357 W/m 15,8 C 19,3 C 4,8 km/h (1 Bft) 100,00 %
28.05.2016 09:47 19,3 C 80 % 1012,0 hPa 0,0 l/m 1,0 km/h (0 Bft) N-NO 33 1 min 0,000 mm 2,4 UV-I 391 W/m 15,8 C 19,3 C 3,2 km/h (1 Bft) 100,00 %
28.05.2016 09:48 19,3 C 80 % 1012,0 hPa 0,0 l/m 1,3 km/h (1 Bft) N-NO 33 1 min 0,000 mm 2,5 UV-I 394 W/m 15,8 C 19,3 C 3,2 km/h (1 Bft) 100,00 %
28.05.2016 09:49 19,4 C 79 % 1012,0 hPa 0,0 l/m 0,3 km/h (0 Bft) N-NO 33 1 min 0,000 mm 3,2 UV-I 394 W/m 15,7 C 19,4 C 1,6 km/h (1 Bft) 100,00 %
28.05.2016 09:50 19,4 C 82 % 1012,0 hPa 0,0 l/m 0,0 km/h (0 Bft) N-NO 33 1 min 0,000 mm 3,3 UV-I 394 W/m 16,2 C 19,4 C 0,0 km/h (0 Bft) 100,00 %
28.05.2016 09:51 19,6 C 79 % 1012,1 hPa 0,0 l/m 0,0 km/h (0 Bft) N-NO 33 1 min 0,000 mm 3,0 UV-I 394 W/m 15,9 C 19,6 C 0,0 km/h (0 Bft) 100,00 %
28.05.2016 09:52 19,7 C 79 % 1012,1 hPa 0,0 l/m 1,1 km/h (1 Bft) NO 34 1 min 0,000 mm 3,1 UV-I 565 W/m 16,0 C 19,7 C 3,2 km/h (1 Bft) 100,00 %
28.05.2016 09:53 19,7 C 78 % 1012,0 hPa 0,0 l/m 0,4 km/h (0 Bft) NO 34 1 min 0,000 mm 2,7 UV-I 640 W/m 15,8 C 19,7 C 3,2 km/h (1 Bft) 100,00 %
28.05.2016 09:54 19,7 C 78 % 1012,1 hPa 0,0 l/m 1,3 km/h (1 Bft) NO 34 1 min 0,000 mm 2,4 UV-I 421 W/m 15,8 C 19,7 C 3,2 km/h (1 Bft) 95,65 %
28.05.2016 09:55 19,7 C 79 % 1012,1 hPa 0,0 l/m 0,6 km/h (0 Bft) NO 34 1 min 0,000 mm 2,5 UV-I 424 W/m 16,0 C 19,7 C 3,2 km/h (1 Bft) 100,00 %
28.05.2016 09:56 19,7 C 79 % 1012,1 hPa 0,0 l/m 0,1 km/h (0 Bft) NO 34 1 min 0,000 mm 2,4 UV-I 410 W/m 16,0 C 19,7 C 1,6 km/h (1 Bft) 100,00 %
28.05.2016 09:57 19,6 C 79 % 1012,0 hPa 0,0 l/m 1,8 km/h (1 Bft) NO 34 1 min 0,000 mm 2,4 UV-I 402 W/m 15,9 C 19,6 C 3,2 km/h (1 Bft) 100,00 %
28.05.2016 09:58 19,7 C 80 % 1012,0 hPa 0,0 l/m 0,9 km/h (0 Bft) NO 34 1 min 0,000 mm 2,4 UV-I 404 W/m 16,1 C 19,7 C 1,6 km/h (1 Bft) 100,00 %
28.05.2016 09:59 19,7 C 80 % 1012,0 hPa 0,0 l/m 0,8 km/h (0 Bft) NO 34 1 min 0,000 mm 2,5 UV-I 477 W/m 16,1 C 19,7 C 1,6 km/h (1 Bft) 100,00 %
28.05.2016 10:00 19,8 C 80 % 1012,0 hPa 0,0 l/m 0,2 km/h (0 Bft) NO 34 1 min 0,000 mm 2,5 UV-I 423 W/m 16,2 C 19,8 C 1,6 km/h (1 Bft) 100,00 %
28.05.2016 10:02 19,9 C 78 % 1012,0 hPa 0,0 l/m 0,1 km/h (0 Bft) NO 34 2 min 0,229 mm 2,4 UV-I 423 W/m 15,9 C 19,9 C 1,6 km/h (1 Bft) 100,00 %
28.05.2016 10:03 19,8 C 77 % 1012,0 hPa 0,0 l/m 0,0 km/h (0 Bft) NO 34 1 min 0,000 mm 2,5 UV-I 437 W/m 15,6 C 19,8 C 0,0 km/h (0 Bft) 100,00 %
28.05.2016 10:04 19,9 C 79 % 1012,0 hPa 0,0 l/m 0,8 km/h (0 Bft) NO 34 1 min 0,000 mm 2,4 UV-I 412 W/m 16,1 C 19,9 C 1,6 km/h (1 Bft) 98,58 %
28.05.2016 10:05 19,9 C 81 % 1012,0 hPa 0,0 l/m 1,7 km/h (1 Bft) NO 34 1 min 0,000 mm 2,5 UV-I 422 W/m 16,5 C 19,9 C 3,2 km/h (1 Bft) 100,00 %
28.05.2016 10:06 20,0 C 79 % 1012,0 hPa 0,0 l/m 1,1 km/h (1 Bft) NO 34 1 min 0,000 mm 2,7 UV-I 424 W/m 16,2 C 20,0 C 3,2 km/h (1 Bft) 100,00 %
28.05.2016 10:07 20,1 C 78 % 1012,0 hPa 0,0 l/m 0,6 km/h (0 Bft) NO 34 1 min 0,000 mm 2,5 UV-I 428 W/m 16,1 C 20,1 C 1,6 km/h (1 Bft) 100,00 %
28.05.2016 10:08 20,1 C 78 % 1011,9 hPa 0,0 l/m 1,8 km/h (1 Bft) NO 34 1 min 0,000 mm 2,6 UV-I 432 W/m 16,1 C 20,1 C 4,8 km/h (1 Bft) 100,00 %
28.05.2016 10:09 20,2 C 79 % 1011,9 hPa 0,0 l/m 2,3 km/h (1 Bft) NO 34 1 min 0,000 mm 2,5 UV-I 425 W/m 16,4 C 20,2 C 3,2 km/h (1 Bft) 100,00 %
28.05.2016 10:10 20,2 C 80 % 1012,0 hPa 0,0 l/m 2,5 km/h (1 Bft) NO 34 1 min 0,000 mm 2,8 UV-I 472 W/m 16,6 C 20,2 C 3,2 km/h (1 Bft) 100,00 %
28.05.2016 10:11 20,3 C 79 % 1011,9 hPa 0,0 l/m 2,1 km/h (1 Bft) NO 34 1 min 0,000 mm 3,3 UV-I 489 W/m 16,5 C 20,3 C 3,2 km/h (1 Bft) 95,65 %
28.05.2016 10:12 20,4 C 80 % 1011,9 hPa 0,0 l/m 3,4 km/h (1 Bft) N-NO 32 1 min 0,000 mm 3,2 UV-I 510 W/m 16,8 C 20,4 C 4,8 km/h (1 Bft) 100,00 %
28.05.2016 10:13 20,4 C 80 % 1011,9 hPa 0,0 l/m 2,9 km/h (1 Bft) N-NO 32 1 min 0,000 mm 3,2 UV-I 584 W/m 16,8 C 20,4 C 4,8 km/h (1 Bft) 100,00 %
28.05.2016 10:14 20,6 C 80 % 1011,9 hPa 0,0 l/m 2,1 km/h (1 Bft) N-NO 29 1 min 0,000 mm 2,9 UV-I 535 W/m 17,0 C 20,6 C 3,2 km/h (1 Bft) 100,00 %
28.05.2016 10:15 20,6 C 79 % 1011,9 hPa 0,0 l/m 0,7 km/h (0 Bft) N-NO 29 1 min 0,000 mm 2,7 UV-I 444 W/m 16,8 C 20,6 C 1,6 km/h (1 Bft) 96,30 %
28.05.2016 10:16 20,6 C 78 % 1011,9 hPa 0,0 l/m 0,9 km/h (0 Bft) N-NW 346 0 min 0,000 mm 2,5 UV-I 400 W/m 16,6 C 20,6 C 1,6 km/h (1 Bft) 100,00 %
28.05.2016 10:17 20,7 C 77 % 1011,9 hPa 0,0 l/m 2,3 km/h (1 Bft) N-NW 331 0 min 0,000 mm 2,5 UV-I 379 W/m 16,5 C 20,7 C 3,2 km/h (1 Bft) 100,00 %
28.05.2016 10:18 20,6 C 75 % 1011,9 hPa 0,0 l/m 1,1 km/h (1 Bft) N-NW 331 0 min 0,000 mm 2,5 UV-I 364 W/m 16,0 C 20,6 C 3,2 km/h (1 Bft) 100,00 %
28.05.2016 10:19 20,5 C 71 % 1011,9 hPa 0,0 l/m 1,1 km/h (1 Bft) N-NW 331 0 min 0,000 mm 2,5 UV-I 353 W/m 15,1 C 20,5 C 1,6 km/h (1 Bft) 100,00 %
28.05.2016 10:20 20,4 C 71 % 1011,9 hPa 0,0 l/m 0,7 km/h (0 Bft) N-NW 331 0 min 0,000 mm 2,5 UV-I 349 W/m 15,0 C 20,4 C 3,2 km/h (1 Bft) 95,65 %
28.05.2016 10:21 20,3 C 73 % 1011,9 hPa 0,0 l/m 0,4 km/h (0 Bft) N-NW 331 0 min 0,000 mm 2,5 UV-I 350 W/m 15,3 C 20,3 C 1,6 km/h (1 Bft) 95,83 %
28.05.2016 10:22 20,3 C 74 % 1011,9 hPa 0,0 l/m 0,0 km/h (0 Bft) N-NW 331 0 min 0,000 mm 3,0 UV-I 352 W/m 15,5 C 20,3 C 0,0 km/h (0 Bft) 95,65 %
28.05.2016 10:23 20,4 C 74 % 1011,9 hPa 0,0 l/m 0,9 km/h (0 Bft) N-NW 331 0 min 0,000 mm 3,3 UV-I 352 W/m 15,6 C 20,4 C 3,2 km/h (1 Bft) 95,83 %
28.05.2016 10:24 20,4 C 69 % 1011,9 hPa 0,0 l/m 1,9 km/h (1 Bft) N-NW 331 0 min 0,000 mm 3,8 UV-I 398 W/m 14,5 C 20,4 C 3,2 km/h (1 Bft) 96,55 %
28.05.2016 10:25 20,5 C 75 % 1011,9 hPa 0,0 l/m 1,5 km/h (1 Bft) N-NW 331 1 min 0,000 mm 4,0 UV-I 807 W/m 15,9 C 20,5 C 3,2 km/h (1 Bft) 95,83 %
28.05.2016 10:26 20,6 C 73 % 1011,9 hPa 0,0 l/m 0,5 km/h (0 Bft) N-NW 331 1 min 0,000 mm 4,0 UV-I 802 W/m 15,6 C 20,6 C 1,6 km/h (1 Bft) 95,65 %
28.05.2016 10:27 20,7 C 76 % 1011,9 hPa 0,0 l/m 0,1 km/h (0 Bft) N-NW 331 1 min 0,000 mm 4,0 UV-I 802 W/m 16,3 C 20,7 C 1,6 km/h (1 Bft) 93,33 %
28.05.2016 10:28 20,8 C 74 % 1011,9 hPa 0,0 l/m 0,7 km/h (0 Bft) N-NW 331 1 min 0,000 mm 3,7 UV-I 802 W/m 16,0 C 20,8 C 1,6 km/h (1 Bft) 95,65 %
28.05.2016 10:29 20,8 C 72 % 1012,0 hPa 0,0 l/m 1,9 km/h (1 Bft) N-NW 331 1 min 0,000 mm 3,9 UV-I 795 W/m 15,6 C 20,8 C 3,2 km/h (1 Bft) 95,83 %
28.05.2016 10:30 20,8 C 73 % 1012,0 hPa 0,0 l/m 0,4 km/h (0 Bft) N-NW 331 1 min 0,000 mm 4,1 UV-I 730 W/m 15,8 C 20,8 C 1,6 km/h (1 Bft) 95,83 %
28.05.2016 10:31 20,8 C 75 % 1012,0 hPa 0,0 l/m 1,0 km/h (0 Bft) N-NW 331 1 min 0,000 mm 4,0 UV-I 794 W/m 16,2 C 20,8 C 3,2 km/h (1 Bft) 100,00 %
28.05.2016 10:32 20,9 C 76 % 1012,0 hPa 0,0 l/m 2,3 km/h (1 Bft) N-NW 331 1 min 0,000 mm 4,1 UV-I 794 W/m 16,5 C 20,9 C 3,2 km/h (1 Bft) 96,15 %
28.05.2016 10:33 21,2 C 75 % 1011,9 hPa 0,0 l/m 2,5 km/h (1 Bft) N-NW 336 1 min 0,000 mm 4,0 UV-I 752 W/m 16,6 C 21,2 C 4,8 km/h (1 Bft) 100,00 %
28.05.2016 10:34 21,3 C 75 % 1011,9 hPa 0,0 l/m 4,3 km/h (1 Bft) N-NO 23 1 min 0,000 mm 4,2 UV-I 779 W/m 16,7 C 21,3 C 4,8 km/h (1 Bft) 91,67 %
28.05.2016 10:35 21,4 C 75 % 1011,9 hPa 0,0 l/m 1,6 km/h (1 Bft) N-NO 23 1 min 0,000 mm 4,3 UV-I 782 W/m 16,8 C 21,4 C 3,2 km/h (1 Bft) 100,00 %
28.05.2016 10:36 21,6 C 78 % 1011,9 hPa 0,0 l/m 1,5 km/h (1 Bft) N 355 1 min 0,000 mm 4,3 UV-I 784 W/m 17,6 C 21,6 C 3,2 km/h (1 Bft) 95,83 %
28.05.2016 10:37 21,7 C 74 % 1011,9 hPa 0,0 l/m 0,6 km/h (0 Bft) N 355 1 min 0,000 mm 4,3 UV-I 784 W/m 16,9 C 21,7 C 1,6 km/h (1 Bft) 96,15 %
28.05.2016 10:38 21,7 C 75 % 1011,9 hPa 0,0 l/m 2,3 km/h (1 Bft) N-NW 338 1 min 0,000 mm 4,4 UV-I 786 W/m 17,1 C 21,7 C 4,8 km/h (1 Bft) 100,00 %
28.05.2016 10:39 21,6 C 72 % 1011,9 hPa 0,0 l/m 1,0 km/h (0 Bft) N-NW 337 1 min 0,000 mm 4,4 UV-I 787 W/m 16,3 C 21,6 C 3,2 km/h (1 Bft) 92,31 %
28.05.2016 10:40 21,5 C 73 % 1011,8 hPa 0,0 l/m 3,6 km/h (1 Bft) N 5 1 min 0,000 mm 4,4 UV-I 790 W/m 16,4 C 21,5 C 6,4 km/h (2 Bft) 100,00 %
28.05.2016 10:41 21,6 C 74 % 1011,8 hPa 0,0 l/m 2,8 km/h (1 Bft) N-NO 15 1 min 0,000 mm 4,5 UV-I 792 W/m 16,8 C 21,6 C 4,8 km/h (1 Bft) 96,15 %
28.05.2016 10:42 21,6 C 74 % 1011,8 hPa 0,0 l/m 1,9 km/h (1 Bft) N-NO 15 1 min 0,000 mm 4,5 UV-I 799 W/m 16,8 C 21,6 C 4,8 km/h (1 Bft) 100,00 %
28.05.2016 10:43 21,7 C 74 % 1011,8 hPa 0,0 l/m 3,3 km/h (1 Bft) N-NW 327 1 min 0,000 mm 4,6 UV-I 809 W/m 16,9 C 21,7 C 4,8 km/h (1 Bft) 96,15 %
28.05.2016 10:44 21,7 C 71 % 1011,8 hPa 0,0 l/m 3,6 km/h (1 Bft) W-NW 298 1 min 0,000 mm 4,6 UV-I 816 W/m 16,2 C 21,7 C 4,8 km/h (1 Bft) 100,00 %
28.05.2016 10:45 21,8 C 71 % 1011,9 hPa 0,0 l/m 2,4 km/h (1 Bft) W-NW 298 1 min 0,000 mm 4,7 UV-I 830 W/m 16,3 C 21,8 C 4,8 km/h (1 Bft) 96,55 %
28.05.2016 10:46 21,8 C 72 % 1011,8 hPa 0,0 l/m 4,2 km/h (1 Bft) W-NW 292 1 min 0,000 mm 4,8 UV-I 847 W/m 16,5 C 21,8 C 6,4 km/h (2 Bft) 95,83 %
28.05.2016 10:47 21,9 C 72 % 1011,8 hPa 0,0 l/m 2,1 km/h (1 Bft) W-NW 298 1 min 0,000 mm 4,8 UV-I 865 W/m 16,6 C 21,9 C 4,8 km/h (1 Bft) 100,00 %
28.05.2016 10:48 22,0 C 75 % 1011,9 hPa 0,0 l/m 4,3 km/h (1 Bft) N-NW 333 1 min 0,000 mm 4,2 UV-I 803 W/m 17,4 C 22,0 C 8,0 km/h (2 Bft) 95,83 %
28.05.2016 10:49 21,9 C 71 % 1011,8 hPa 0,0 l/m 1,5 km/h (1 Bft) N-NW 337 1 min 0,000 mm 4,3 UV-I 745 W/m 16,4 C 21,9 C 3,2 km/h (1 Bft) 100,00 %
28.05.2016 10:50 21,8 C 71 % 1011,8 hPa 0,0 l/m 2,8 km/h (1 Bft) N-NW 346 1 min 0,000 mm 3,7 UV-I 745 W/m 16,3 C 21,8 C 4,8 km/h (1 Bft) 91,67 %
28.05.2016 10:51 21,7 C 70 % 1011,7 hPa 0,0 l/m 1,1 km/h (1 Bft) N-NW 346 1 min 0,000 mm 3,8 UV-I 725 W/m 16,0 C 21,7 C 1,6 km/h (1 Bft) 100,00 %
28.05.2016 10:52 21,7 C 72 % 1011,7 hPa 0,0 l/m 3,4 km/h (1 Bft) N-NW 328 1 min 0,000 mm 3,7 UV-I 717 W/m 16,4 C 21,7 C 4,8 km/h (1 Bft) 100,00 %
28.05.2016 10:53 21,6 C 70 % 1011,7 hPa 0,0 l/m 2,5 km/h (1 Bft) N-NW 328 1 min 0,000 mm 3,6 UV-I 489 W/m 15,9 C 21,6 C 3,2 km/h (1 Bft) 100,00 %
28.05.2016 10:54 21,6 C 69 % 1011,7 hPa 0,0 l/m 2,0 km/h (1 Bft) N 355 1 min 0,000 mm 3,6 UV-I 498 W/m 15,7 C 21,6 C 3,2 km/h (1 Bft) 96,15 %
28.05.2016 10:55 21,6 C 72 % 1011,6 hPa 0,0 l/m 3,3 km/h (1 Bft) N-NO 21 1 min 0,000 mm 3,8 UV-I 510 W/m 16,3 C 21,6 C 6,4 km/h (2 Bft) 100,00 %
28.05.2016 10:56 21,6 C 71 % 1011,6 hPa 0,0 l/m 4,8 km/h (1 Bft) N-NO 26 1 min 0,000 mm 3,5 UV-I 476 W/m 16,1 C 21,6 C 6,4 km/h (2 Bft) 100,00 %
28.05.2016 10:57 21,6 C 73 % 1011,6 hPa 0,0 l/m 5,9 km/h (2 Bft) N-NO 16 1 min 0,000 mm 3,3 UV-I 475 W/m 16,5 C 21,6 C 8,0 km/h (2 Bft) 95,83 %
28.05.2016 10:58 21,6 C 73 % 1011,6 hPa 0,0 l/m 6,7 km/h (2 Bft) NO 39 1 min 0,000 mm 3,4 UV-I 450 W/m 16,5 C 21,5 C 8,0 km/h (2 Bft) 100,00 %
28.05.2016 10:59 21,6 C 71 % 1011,5 hPa 0,0 l/m 2,9 km/h (1 Bft) NO 40 1 min 0,000 mm 3,3 UV-I 443 W/m 16,1 C 21,6 C 6,4 km/h (2 Bft) 100,00 %
28.05.2016 11:00 21,5 C 70 % 1011,6 hPa 0,0 l/m 1,8 km/h (1 Bft) NO 40 1 min 0,356 mm 3,3 UV-I 461 W/m 15,8 C 21,5 C 3,2 km/h (1 Bft) 95,65 %
28.05.2016 11:02 21,5 C 75 % 1011,5 hPa 0,0 l/m 2,8 km/h (1 Bft) N-NO 14 2 min 0,000 mm 3,5 UV-I 496 W/m 16,9 C 21,5 C 6,4 km/h (2 Bft) 100,00 %
28.05.2016 11:03 21,6 C 72 % 1011,5 hPa 0,0 l/m 1,6 km/h (1 Bft) N 355 1 min 0,000 mm 3,4 UV-I 485 W/m 16,3 C 21,6 C 3,2 km/h (1 Bft) 100,00 %
28.05.2016 11:04 21,5 C 70 % 1011,5 hPa 0,0 l/m 2,1 km/h (1 Bft) N 11 1 min 0,000 mm 3,4 UV-I 454 W/m 15,8 C 21,5 C 4,8 km/h (1 Bft) 100,00 %
28.05.2016 11:05 21,5 C 73 % 1011,5 hPa 0,0 l/m 3,5 km/h (1 Bft) N-NO 15 1 min 0,000 mm 3,4 UV-I 472 W/m 16,4 C 21,5 C 4,8 km/h (1 Bft) 100,00 %
28.05.2016 11:06 21,5 C 70 % 1011,4 hPa 0,0 l/m 2,0 km/h (1 Bft) N-NO 15 1 min 0,000 mm 3,6 UV-I 505 W/m 15,8 C 21,5 C 3,2 km/h (1 Bft) 100,00 %
28.05.2016 11:07 21,6 C 73 % 1011,5 hPa 0,0 l/m 3,2 km/h (1 Bft) N 5 1 min 0,000 mm 3,9 UV-I 520 W/m 16,5 C 21,6 C 6,4 km/h (2 Bft) 100,00 %
28.05.2016 11:08 21,6 C 71 % 1011,4 hPa 0,0 l/m 4,4 km/h (1 Bft) N 11 1 min 0,000 mm 3,7 UV-I 523 W/m 16,1 C 21,6 C 11,3 km/h (2 Bft) 100,00 %
28.05.2016 11:09 21,6 C 71 % 1011,4 hPa 0,0 l/m 3,0 km/h (1 Bft) N 355 1 min 0,000 mm 3,9 UV-I 558 W/m 16,1 C 21,6 C 4,8 km/h (1 Bft) 100,00 %
28.05.2016 11:10 21,7 C 75 % 1011,4 hPa 0,0 l/m 2,7 km/h (1 Bft) N 11 1 min 0,000 mm 4,1 UV-I 599 W/m 17,1 C 21,7 C 4,8 km/h (1 Bft) 100,00 %
28.05.2016 11:11 21,8 C 72 % 1011,4 hPa 0,0 l/m 3,4 km/h (1 Bft) N 5 1 min 0,000 mm 3,7 UV-I 564 W/m 16,5 C 21,8 C 4,8 km/h (1 Bft) 100,00 %
28.05.2016 11:12 21,8 C 73 % 1011,4 hPa 0,0 l/m 5,0 km/h (1 Bft) N 5 1 min 0,000 mm 3,6 UV-I 453 W/m 16,7 C 21,8 C 11,3 km/h (2 Bft) 100,00 %
28.05.2016 11:13 21,7 C 71 % 1011,4 hPa 0,0 l/m 3,4 km/h (1 Bft) NW 314 0 min 0,000 mm 3,5 UV-I 428 W/m 16,2 C 21,7 C 4,8 km/h (1 Bft) 100,00 %
28.05.2016 11:14 21,7 C 69 % 1011,4 hPa 0,0 l/m 2,7 km/h (1 Bft) NW 315 0 min 0,000 mm 3,5 UV-I 415 W/m 15,8 C 21,7 C 3,2 km/h (1 Bft) 100,00 %
28.05.2016 11:15 21,7 C 70 % 1011,3 hPa 0,0 l/m 1,8 km/h (1 Bft) NW 321 0 min 0,000 mm 3,4 UV-I 415 W/m 16,0 C 21,7 C 3,2 km/h (1 Bft) 100,00 %
28.05.2016 11:16 21,7 C 71 % 1011,3 hPa 0,0 l/m 2,7 km/h (1 Bft) N-NW 334 0 min 0,000 mm 3,4 UV-I 415 W/m 16,2 C 21,7 C 3,2 km/h (1 Bft) 100,00 %
28.05.2016 11:17 21,6 C 69 % 1011,3 hPa 0,0 l/m 1,5 km/h (1 Bft) N 351 0 min 0,000 mm 3,1 UV-I 392 W/m 15,7 C 21,6 C 1,6 km/h (1 Bft) 100,00 %
28.05.2016 11:18 21,6 C 71 % 1011,3 hPa 0,0 l/m 3,4 km/h (1 Bft) N-NO 30 0 min 0,000 mm 3,1 UV-I 356 W/m 16,1 C 21,6 C 4,8 km/h (1 Bft) 100,00 %
28.05.2016 11:19 21,6 C 73 % 1011,3 hPa 0,0 l/m 4,7 km/h (1 Bft) NO 49 0 min 0,000 mm 3,2 UV-I 358 W/m 16,5 C 21,6 C 6,4 km/h (2 Bft) 100,00 %
28.05.2016 11:20 21,6 C 68 % 1011,3 hPa 0,0 l/m 3,4 km/h (1 Bft) NO 49 0 min 0,000 mm 3,7 UV-I 362 W/m 15,4 C 21,6 C 4,8 km/h (1 Bft) 96,30 %
28.05.2016 11:21 21,6 C 70 % 1011,4 hPa 0,0 l/m 0,8 km/h (0 Bft) NO 49 0 min 0,000 mm 4,6 UV-I 367 W/m 15,9 C 21,6 C 1,6 km/h (1 Bft) 100,00 %
28.05.2016 11:22 21,7 C 72 % 1011,4 hPa 0,0 l/m 1,8 km/h (1 Bft) N-NO 30 0 min 0,000 mm 4,9 UV-I 367 W/m 16,4 C 21,7 C 4,8 km/h (1 Bft) 100,00 %
28.05.2016 11:23 21,8 C 72 % 1011,4 hPa 0,0 l/m 4,1 km/h (1 Bft) N-NO 26 1 min 0,000 mm 5,0 UV-I 458 W/m 16,5 C 21,8 C 6,4 km/h (2 Bft) 96,15 %
28.05.2016 11:24 22,0 C 76 % 1011,3 hPa 0,0 l/m 5,6 km/h (1 Bft) N 11 1 min 0,000 mm 5,5 UV-I 943 W/m 17,6 C 22,0 C 8,0 km/h (2 Bft) 100,00 %
28.05.2016 11:25 22,2 C 73 % 1011,3 hPa 0,0 l/m 4,5 km/h (1 Bft) N-NO 22 1 min 0,000 mm 5,5 UV-I 942 W/m 17,1 C 22,2 C 8,0 km/h (2 Bft) 91,30 %
28.05.2016 11:26 22,3 C 70 % 1011,3 hPa 0,0 l/m 3,6 km/h (1 Bft) NO 46 1 min 0,000 mm 5,5 UV-I 931 W/m 16,6 C 22,3 C 6,4 km/h (2 Bft) 95,83 %
28.05.2016 11:27 22,4 C 70 % 1011,3 hPa 0,0 l/m 5,2 km/h (1 Bft) N-NO 31 1 min 0,000 mm 5,6 UV-I 920 W/m 16,7 C 22,4 C 6,4 km/h (2 Bft) 100,00 %
28.05.2016 11:28 22,6 C 72 % 1011,2 hPa 0,0 l/m 3,5 km/h (1 Bft) N-NO 31 1 min 0,000 mm 5,5 UV-I 932 W/m 17,3 C 22,6 C 4,8 km/h (1 Bft) 95,83 %
28.05.2016 11:29 22,6 C 70 % 1011,2 hPa 0,0 l/m 4,0 km/h (1 Bft) N-NO 31 1 min 0,000 mm 5,5 UV-I 932 W/m 16,8 C 22,6 C 4,8 km/h (1 Bft) 100,00 %
28.05.2016 11:30 22,6 C 70 % 1011,2 hPa 0,0 l/m 1,7 km/h (1 Bft) N 11 1 min 0,000 mm 5,4 UV-I 932 W/m 16,8 C 22,6 C 3,2 km/h (1 Bft) 100,00 %
28.05.2016 11:31 22,6 C 72 % 1011,2 hPa 0,0 l/m 0,7 km/h (0 Bft) N 9 1 min 0,000 mm 5,5 UV-I 932 W/m 17,3 C 22,6 C 1,6 km/h (1 Bft) 91,67 %
28.05.2016 11:32 22,6 C 70 % 1011,2 hPa 0,0 l/m 1,1 km/h (1 Bft) N-NW 348 1 min 0,000 mm 5,7 UV-I 942 W/m 16,8 C 22,6 C 3,2 km/h (1 Bft) 100,00 %
28.05.2016 11:33 22,6 C 69 % 1011,2 hPa 0,0 l/m 3,6 km/h (1 Bft) NW 305 1 min 0,000 mm 5,6 UV-I 947 W/m 16,6 C 22,6 C 6,4 km/h (2 Bft) 96,67 %
28.05.2016 11:34 22,7 C 67 % 1011,2 hPa 0,0 l/m 1,6 km/h (1 Bft) NW 309 1 min 0,000 mm 5,6 UV-I 920 W/m 16,2 C 22,7 C 3,2 km/h (1 Bft) 100,00 %
28.05.2016 11:35 22,7 C 74 % 1011,2 hPa 0,0 l/m 4,0 km/h (1 Bft) W 267 1 min 0,000 mm 5,5 UV-I 899 W/m 17,8 C 22,7 C 6,4 km/h (2 Bft) 93,33 %
28.05.2016 11:36 22,7 C 68 % 1011,1 hPa 0,0 l/m 4,7 km/h (1 Bft) NW 306 1 min 0,000 mm 5,5 UV-I 877 W/m 16,5 C 22,7 C 6,4 km/h (2 Bft) 96,15 %
28.05.2016 11:37 22,6 C 71 % 1011,2 hPa 0,0 l/m 3,3 km/h (1 Bft) N-NW 330 1 min 0,000 mm 5,5 UV-I 870 W/m 17,1 C 22,6 C 6,4 km/h (2 Bft) 100,00 %
28.05.2016 11:38 22,6 C 67 % 1011,2 hPa 0,0 l/m 5,4 km/h (1 Bft) W 264 1 min 0,000 mm 5,5 UV-I 855 W/m 16,2 C 22,6 C 6,4 km/h (2 Bft) 98,38 %
28.05.2016 11:39 22,5 C 66 % 1011,2 hPa 0,0 l/m 4,0 km/h (1 Bft) W 265 1 min 0,000 mm 5,4 UV-I 844 W/m 15,8 C 22,5 C 6,4 km/h (2 Bft) 100,00 %
28.05.2016 11:40 22,4 C 67 % 1011,2 hPa 0,0 l/m 2,1 km/h (1 Bft) W 265 1 min 0,000 mm 5,4 UV-I 831 W/m 16,0 C 22,4 C 3,2 km/h (1 Bft) 96,15 %
28.05.2016 11:41 22,5 C 72 % 1011,2 hPa 0,0 l/m 2,8 km/h (1 Bft) N-NO 31 1 min 0,000 mm 5,4 UV-I 831 W/m 17,2 C 22,5 C 8,0 km/h (2 Bft) 100,00 %
28.05.2016 11:42 22,6 C 70 % 1011,1 hPa 0,0 l/m 3,3 km/h (1 Bft) N-NW 331 1 min 0,000 mm 5,4 UV-I 830 W/m 16,8 C 22,6 C 8,0 km/h (2 Bft) 100,00 %
28.05.2016 11:43 22,6 C 69 % 1011,2 hPa 0,0 l/m 2,2 km/h (1 Bft) NW 319 1 min 0,000 mm 5,5 UV-I 829 W/m 16,6 C 22,6 C 4,8 km/h (1 Bft) 100,00 %
28.05.2016 11:44 22,7 C 72 % 1011,1 hPa 0,0 l/m 0,9 km/h (0 Bft) N-NO 25 1 min 0,000 mm 5,4 UV-I 847 W/m 17,4 C 22,7 C 3,2 km/h (1 Bft) 100,00 %
28.05.2016 11:45 22,7 C 73 % 1011,2 hPa 0,0 l/m 2,8 km/h (1 Bft) N-NO 14 1 min 0,000 mm 5,5 UV-I 849 W/m 17,6 C 22,7 C 4,8 km/h (1 Bft) 95,83 %
28.05.2016 11:46 22,7 C 72 % 1011,1 hPa 0,0 l/m 3,4 km/h (1 Bft) N-NO 19 1 min 0,000 mm 5,5 UV-I 843 W/m 17,4 C 22,7 C 6,4 km/h (2 Bft) 100,00 %
28.05.2016 11:47 22,7 C 71 % 1011,2 hPa 0,0 l/m 3,6 km/h (1 Bft) N-NO 19 1 min 0,000 mm 5,6 UV-I 838 W/m 17,2 C 22,7 C 4,8 km/h (1 Bft) 100,00 %
28.05.2016 11:48 22,8 C 73 % 1011,2 hPa 0,0 l/m 1,5 km/h (1 Bft) N-NO 19 1 min 0,000 mm 5,5 UV-I 835 W/m 17,7 C 22,8 C 3,2 km/h (1 Bft) 95,65 %
28.05.2016 11:49 22,8 C 69 % 1011,1 hPa 0,0 l/m 5,1 km/h (1 Bft) N-NO 26 1 min 0,000 mm 5,5 UV-I 832 W/m 16,8 C 22,8 C 8,0 km/h (2 Bft) 100,00 %
28.05.2016 11:50 22,8 C 67 % 1011,1 hPa 0,0 l/m 4,8 km/h (1 Bft) W-SW 252 1 min 0,000 mm 5,5 UV-I 831 W/m 16,3 C 22,8 C 8,0 km/h (2 Bft) 100,00 %
28.05.2016 11:51 22,8 C 67 % 1011,2 hPa 0,0 l/m 3,5 km/h (1 Bft) NW 320 1 min 0,000 mm 5,5 UV-I 828 W/m 16,3 C 22,8 C 4,8 km/h (1 Bft) 100,00 %
28.05.2016 11:52 22,8 C 69 % 1011,1 hPa 0,0 l/m 2,5 km/h (1 Bft) W 266 1 min 0,000 mm 5,5 UV-I 827 W/m 16,8 C 22,8 C 4,8 km/h (1 Bft) 100,00 %
28.05.2016 11:53 22,7 C 66 % 1011,1 hPa 0,0 l/m 2,4 km/h (1 Bft) W 266 1 min 0,000 mm 5,5 UV-I 830 W/m 16,0 C 22,7 C 4,8 km/h (1 Bft) 100,00 %
28.05.2016 11:54 22,7 C 68 % 1011,1 hPa 0,0 l/m 0,6 km/h (0 Bft) W 275 1 min 0,000 mm 5,5 UV-I 831 W/m 16,5 C 22,7 C 1,6 km/h (1 Bft) 100,00 %
28.05.2016 11:55 22,8 C 73 % 1011,1 hPa 0,0 l/m 0,6 km/h (0 Bft) NW 325 1 min 0,000 mm 5,6 UV-I 835 W/m 17,7 C 22,8 C 3,2 km/h (1 Bft) 100,00 %
28.05.2016 11:56 22,8 C 71 % 1011,1 hPa 0,0 l/m 2,3 km/h (1 Bft) N-NW 333 1 min 0,000 mm 5,6 UV-I 835 W/m 17,3 C 22,8 C 3,2 km/h (1 Bft) 100,00 %
28.05.2016 11:57 22,8 C 69 % 1011,1 hPa 0,0 l/m 1,0 km/h (0 Bft) N-NW 345 1 min 0,000 mm 5,6 UV-I 831 W/m 16,8 C 22,8 C 1,6 km/h (1 Bft) 100,00 %
28.05.2016 11:58 22,8 C 70 % 1011,0 hPa 0,0 l/m 3,3 km/h (1 Bft) N 5 1 min 0,000 mm 5,6 UV-I 832 W/m 17,0 C 22,8 C 4,8 km/h (1 Bft) 95,83 %
28.05.2016 11:59 22,8 C 70 % 1011,0 hPa 0,0 l/m 5,4 km/h (1 Bft) NO 47 1 min 0,000 mm 5,6 UV-I 838 W/m 17,0 C 22,8 C 9,7 km/h (2 Bft) 100,00 %
28.05.2016 12:00 22,8 C 68 % 1011,0 hPa 0,0 l/m 3,6 km/h (1 Bft) NO 44 1 min 0,457 mm 5,6 UV-I 836 W/m 16,6 C 22,8 C 8,0 km/h (2 Bft) 100,00 %
28.05.2016 12:02 22,6 C 66 % 1011,0 hPa 0,0 l/m 2,4 km/h (1 Bft) O-SO 119 2 min 0,000 mm 5,6 UV-I 833 W/m 15,9 C 22,6 C 4,8 km/h (1 Bft) 94,74 %
28.05.2016 12:03 22,7 C 70 % 1011,0 hPa 0,0 l/m 0,8 km/h (0 Bft) O-SO 119 1 min 0,000 mm 5,6 UV-I 844 W/m 16,9 C 22,7 C 3,2 km/h (1 Bft) 100,00 %
28.05.2016 12:04 22,7 C 68 % 1011,0 hPa 0,0 l/m 2,4 km/h (1 Bft) O-SO 112 1 min 0,000 mm 4,8 UV-I 844 W/m 16,5 C 22,7 C 3,2 km/h (1 Bft) 100,00 %
28.05.2016 12:05 22,7 C 68 % 1011,0 hPa 0,0 l/m 0,6 km/h (0 Bft) O-SO 112 1 min 0,000 mm 5,6 UV-I 856 W/m 16,5 C 22,7 C 3,2 km/h (1 Bft) 100,00 %
28.05.2016 12:06 22,7 C 70 % 1011,0 hPa 0,0 l/m 1,6 km/h (1 Bft) O-NO 59 1 min 0,000 mm 5,7 UV-I 867 W/m 16,9 C 22,7 C 4,8 km/h (1 Bft) 100,00 %
28.05.2016 12:07 22,8 C 68 % 1011,0 hPa 0,0 l/m 5,0 km/h (1 Bft) N-NW 342 1 min 0,000 mm 5,7 UV-I 864 W/m 16,6 C 22,8 C 8,0 km/h (2 Bft) 100,00 %
28.05.2016 12:08 22,9 C 68 % 1011,0 hPa 0,0 l/m 2,2 km/h (1 Bft) N 11 1 min 0,000 mm 5,8 UV-I 861 W/m 16,7 C 22,9 C 6,4 km/h (2 Bft) 96,55 %
28.05.2016 12:09 22,8 C 69 % 1011,0 hPa 0,0 l/m 2,2 km/h (1 Bft) N-NW 346 1 min 0,000 mm 5,8 UV-I 861 W/m 16,8 C 22,8 C 4,8 km/h (1 Bft) 100,00 %
28.05.2016 12:10 22,8 C 68 % 1011,0 hPa 0,0 l/m 1,1 km/h (1 Bft) N-NW 347 1 min 0,000 mm 5,8 UV-I 857 W/m 16,6 C 22,8 C 1,6 km/h (1 Bft) 100,00 %
28.05.2016 12:11 22,8 C 68 % 1011,0 hPa 0,0 l/m 3,7 km/h (1 Bft) N 5 1 min 0,000 mm 5,7 UV-I 852 W/m 16,6 C 22,8 C 6,4 km/h (2 Bft) 100,00 %
28.05.2016 12:12 22,9 C 71 % 1011,0 hPa 0,0 l/m 1,1 km/h (1 Bft) N 360 1 min 0,000 mm 5,7 UV-I 854 W/m 17,4 C 22,9 C 3,2 km/h (1 Bft) 95,65 %
28.05.2016 12:13 22,9 C 70 % 1010,9 hPa 0,0 l/m 2,0 km/h (1 Bft) N-NO 25 1 min 0,000 mm 5,8 UV-I 857 W/m 17,1 C 22,9 C 6,4 km/h (2 Bft) 100,00 %
28.05.2016 12:14 23,0 C 73 % 1010,9 hPa 0,0 l/m 5,6 km/h (1 Bft) O-NO 63 1 min 0,000 mm 5,8 UV-I 863 W/m 17,9 C 23,0 C 8,0 km/h (2 Bft) 93,10 %
28.05.2016 12:15 23,1 C 69 % 1010,9 hPa 0,0 l/m 5,0 km/h (1 Bft) NO 49 1 min 0,000 mm 5,8 UV-I 867 W/m 17,1 C 23,1 C 6,4 km/h (2 Bft) 100,00 %
28.05.2016 12:16 23,1 C 67 % 1010,9 hPa 0,0 l/m 5,9 km/h (2 Bft) N 5 1 min 0,000 mm 5,8 UV-I 869 W/m 16,6 C 23,1 C 9,7 km/h (2 Bft) 95,65 %
28.05.2016 12:17 23,2 C 73 % 1010,8 hPa 0,0 l/m 2,9 km/h (1 Bft) NO 34 1 min 0,000 mm 5,9 UV-I 873 W/m 18,1 C 23,2 C 6,4 km/h (2 Bft) 100,00 %
28.05.2016 12:18 23,2 C 73 % 1010,9 hPa 0,0 l/m 3,6 km/h (1 Bft) N-NW 327 1 min 0,000 mm 5,9 UV-I 875 W/m 18,1 C 23,2 C 6,4 km/h (2 Bft) 92,86 %
28.05.2016 12:19 23,2 C 68 % 1010,8 hPa 0,0 l/m 4,9 km/h (1 Bft) NW 311 1 min 0,000 mm 5,9 UV-I 879 W/m 17,0 C 23,2 C 6,4 km/h (2 Bft) 100,00 %
28.05.2016 12:20 23,2 C 67 % 1010,8 hPa 0,0 l/m 4,2 km/h (1 Bft) W-NW 298 1 min 0,000 mm 5,9 UV-I 885 W/m 16,7 C 23,2 C 8,0 km/h (2 Bft) 96,15 %
28.05.2016 12:21 23,2 C 67 % 1010,8 hPa 0,0 l/m 2,7 km/h (1 Bft) N-NW 329 1 min 0,000 mm 5,9 UV-I 870 W/m 16,7 C 23,2 C 3,2 km/h (1 Bft) 95,83 %
28.05.2016 12:22 23,2 C 67 % 1010,8 hPa 0,0 l/m 2,4 km/h (1 Bft) W-NW 298 1 min 0,000 mm 5,9 UV-I 842 W/m 16,7 C 23,2 C 4,8 km/h (1 Bft) 100,00 %
28.05.2016 12:23 23,2 C 70 % 1010,8 hPa 0,0 l/m 1,9 km/h (1 Bft) N-NW 329 1 min 0,000 mm 6,0 UV-I 902 W/m 17,4 C 23,2 C 3,2 km/h (1 Bft) 93,33 %
28.05.2016 12:24 23,3 C 68 % 1010,8 hPa 0,0 l/m 3,1 km/h (1 Bft) N-NW 338 1 min 0,000 mm 6,0 UV-I 892 W/m 17,1 C 23,3 C 4,8 km/h (1 Bft) 100,00 %
28.05.2016 12:25 23,3 C 69 % 1010,8 hPa 0,0 l/m 2,4 km/h (1 Bft) NW 326 1 min 0,000 mm 5,7 UV-I 897 W/m 17,3 C 23,3 C 4,8 km/h (1 Bft) 95,83 %
28.05.2016 12:26 23,2 C 66 % 1010,8 hPa 0,0 l/m 2,6 km/h (1 Bft) N-NW 344 1 min 0,000 mm 5,9 UV-I 911 W/m 16,5 C 23,2 C 4,8 km/h (1 Bft) 100,00 %
28.05.2016 12:27 23,3 C 73 % 1010,7 hPa 0,0 l/m 2,9 km/h (1 Bft) N-NO 19 1 min 0,000 mm 6,1 UV-I 917 W/m 18,2 C 23,3 C 6,4 km/h (2 Bft) 95,83 %
28.05.2016 12:28 23,4 C 75 % 1010,8 hPa 0,0 l/m 5,2 km/h (1 Bft) NO 40 1 min 0,000 mm 6,1 UV-I 922 W/m 18,7 C 23,4 C 8,0 km/h (2 Bft) 100,00 %
28.05.2016 12:29 23,6 C 74 % 1010,8 hPa 0,0 l/m 4,9 km/h (1 Bft) NO 42 1 min 0,000 mm 6,1 UV-I 929 W/m 18,7 C 23,6 C 8,0 km/h (2 Bft) 95,65 %
28.05.2016 12:30 23,6 C 70 % 1010,7 hPa 0,0 l/m 2,0 km/h (1 Bft) NW 319 1 min 0,000 mm 6,2 UV-I 937 W/m 17,8 C 23,6 C 3,2 km/h (1 Bft) 96,15 %
28.05.2016 12:31 23,6 C 67 % 1010,7 hPa 0,0 l/m 4,2 km/h (1 Bft) N-NO 17 1 min 0,000 mm 6,2 UV-I 947 W/m 17,1 C 23,6 C 6,4 km/h (2 Bft) 95,83 %
28.05.2016 12:32 23,6 C 64 % 1010,7 hPa 0,0 l/m 3,1 km/h (1 Bft) N-NO 17 1 min 0,000 mm 6,3 UV-I 959 W/m 16,4 C 23,6 C 4,8 km/h (1 Bft) 100,00 %
28.05.2016 12:33 23,4 C 65 % 1010,7 hPa 0,0 l/m 3,6 km/h (1 Bft) N-NO 17 1 min 0,000 mm 6,3 UV-I 983 W/m 16,4 C 23,4 C 4,8 km/h (1 Bft) 96,15 %
28.05.2016 12:34 23,4 C 65 % 1010,7 hPa 0,0 l/m 3,6 km/h (1 Bft) N-NO 20 1 min 0,000 mm 6,4 UV-I 1000 W/m 16,4 C 23,4 C 4,8 km/h (1 Bft) 96,67 %
28.05.2016 12:35 23,4 C 66 % 1010,7 hPa 0,0 l/m 2,8 km/h (1 Bft) N-NO 31 1 min 0,000 mm 6,3 UV-I 1017 W/m 16,7 C 23,4 C 4,8 km/h (1 Bft) 100,00 %
28.05.2016 12:36 23,3 C 64 % 1010,7 hPa 0,0 l/m 4,9 km/h (1 Bft) NO 49 1 min 0,000 mm 5,0 UV-I 1021 W/m 16,1 C 23,3 C 6,4 km/h (2 Bft) 93,33 %
28.05.2016 12:37 23,3 C 67 % 1010,6 hPa 0,0 l/m 4,7 km/h (1 Bft) O-NO 61 1 min 0,000 mm 4,7 UV-I 589 W/m 16,8 C 23,3 C 6,4 km/h (2 Bft) 100,00 %
28.05.2016 12:38 23,2 C 66 % 1010,6 hPa 0,0 l/m 4,4 km/h (1 Bft) O 94 0 min 0,000 mm 4,7 UV-I 476 W/m 16,5 C 23,2 C 6,4 km/h (2 Bft) 100,00 %
28.05.2016 12:39 23,2 C 64 % 1010,6 hPa 0,0 l/m 5,4 km/h (1 Bft) O-SO 104 0 min 0,000 mm 3,8 UV-I 402 W/m 16,0 C 23,2 C 9,7 km/h (2 Bft) 95,65 %
28.05.2016 12:40 23,1 C 65 % 1010,6 hPa 0,0 l/m 5,1 km/h (1 Bft) O-NO 66 0 min 0,000 mm 3,8 UV-I 407 W/m 16,2 C 23,1 C 8,0 km/h (2 Bft) 100,00 %
28.05.2016 12:41 23,1 C 69 % 1010,6 hPa 0,0 l/m 3,2 km/h (1 Bft) O-NO 63 0 min 0,000 mm 3,9 UV-I 422 W/m 17,1 C 23,1 C 4,8 km/h (1 Bft) 91,30 %
28.05.2016 12:42 23,1 C 71 % 1010,6 hPa 0,0 l/m 1,4 km/h (1 Bft) N-NW 346 0 min 0,000 mm 4,0 UV-I 422 W/m 17,5 C 23,1 C 3,2 km/h (1 Bft) 100,00 %
28.05.2016 12:43 23,1 C 67 % 1010,6 hPa 0,0 l/m 1,9 km/h (1 Bft) N-NW 337 1 min 0,000 mm 4,3 UV-I 702 W/m 16,6 C 23,1 C 4,8 km/h (1 Bft) 96,15 %
28.05.2016 12:44 23,1 C 64 % 1010,6 hPa 0,0 l/m 2,4 km/h (1 Bft) W-NW 287 1 min 0,000 mm 4,8 UV-I 772 W/m 15,9 C 23,1 C 6,4 km/h (2 Bft) 100,00 %
28.05.2016 12:45 23,0 C 65 % 1010,6 hPa 0,0 l/m 3,1 km/h (1 Bft) N-NW 331 1 min 0,000 mm 4,8 UV-I 772 W/m 16,1 C 23,0 C 6,4 km/h (2 Bft) 93,33 %
28.05.2016 12:46 22,9 C 66 % 1010,5 hPa 0,0 l/m 0,7 km/h (0 Bft) N-NW 331 1 min 0,000 mm 4,0 UV-I 594 W/m 16,2 C 22,9 C 1,6 km/h (1 Bft) 100,00 %
28.05.2016 12:47 22,9 C 65 % 1010,5 hPa 0,0 l/m 0,9 km/h (0 Bft) N-NW 331 0 min 0,000 mm 4,4 UV-I 346 W/m 16,0 C 22,9 C 1,6 km/h (1 Bft) 100,00 %
28.05.2016 12:48 22,9 C 69 % 1010,5 hPa 0,0 l/m 1,0 km/h (0 Bft) N-NW 331 0 min 0,000 mm 5,2 UV-I 346 W/m 16,9 C 22,9 C 1,6 km/h (1 Bft) 100,00 %
28.05.2016 12:49 23,1 C 70 % 1010,5 hPa 0,0 l/m 0,7 km/h (0 Bft) N-NW 331 0 min 0,000 mm 4,7 UV-I 346 W/m 17,3 C 23,1 C 1,6 km/h (1 Bft) 100,00 %
28.05.2016 12:50 23,2 C 66 % 1010,5 hPa 0,0 l/m 1,0 km/h (0 Bft) N-NW 331 0 min 0,000 mm 6,3 UV-I 454 W/m 16,5 C 23,2 C 3,2 km/h (1 Bft) 93,33 %
28.05.2016 12:51 23,3 C 65 % 1010,5 hPa 0,0 l/m 3,9 km/h (1 Bft) NO 47 1 min 0,000 mm 6,5 UV-I 1064 W/m 16,3 C 23,3 C 4,8 km/h (1 Bft) 100,00 %
28.05.2016 12:52 23,5 C 68 % 1010,4 hPa 0,0 l/m 1,8 km/h (1 Bft) O-NO 57 1 min 0,000 mm 6,6 UV-I 1059 W/m 17,2 C 23,5 C 3,2 km/h (1 Bft) 96,15 %
28.05.2016 12:53 23,6 C 65 % 1010,4 hPa 0,0 l/m 3,0 km/h (1 Bft) NO 51 1 min 0,000 mm 6,5 UV-I 1060 W/m 16,6 C 23,6 C 4,8 km/h (1 Bft) 100,00 %
28.05.2016 12:54 23,7 C 66 % 1010,5 hPa 0,0 l/m 3,4 km/h (1 Bft) NO 42 1 min 0,000 mm 6,6 UV-I 1066 W/m 17,0 C 23,7 C 4,8 km/h (1 Bft) 96,55 %
28.05.2016 12:55 23,7 C 67 % 1010,4 hPa 0,0 l/m 2,1 km/h (1 Bft) NO 34 1 min 0,000 mm 6,5 UV-I 1053 W/m 17,2 C 23,7 C 4,8 km/h (1 Bft) 100,00 %
28.05.2016 12:56 23,9 C 70 % 1010,4 hPa 0,0 l/m 3,8 km/h (1 Bft) N-NW 347 1 min 0,000 mm 6,6 UV-I 1085 W/m 18,1 C 23,9 C 4,8 km/h (1 Bft) 95,65 %
28.05.2016 12:57 24,1 C 69 % 1010,4 hPa 0,0 l/m 4,4 km/h (1 Bft) N-NO 21 1 min 0,000 mm 6,4 UV-I 954 W/m 18,0 C 24,1 C 6,4 km/h (2 Bft) 100,00 %
28.05.2016 12:58 24,2 C 69 % 1010,4 hPa 0,0 l/m 3,0 km/h (1 Bft) N 5 1 min 0,000 mm 6,4 UV-I 670 W/m 18,1 C 24,2 C 6,4 km/h (2 Bft) 100,00 %
28.05.2016 12:59 24,2 C 70 % 1010,4 hPa 0,0 l/m 2,4 km/h (1 Bft) N-NW 348 1 min 0,000 mm 5,9 UV-I 645 W/m 18,4 C 24,2 C 3,2 km/h (1 Bft) 100,00 %
28.05.2016 13:00 24,1 C 67 % 1010,4 hPa 0,0 l/m 2,1 km/h (1 Bft) N-NW 348 1 min 0,508 mm 5,1 UV-I 645 W/m 17,6 C 24,1 C 3,2 km/h (1 Bft) 100,00 %
28.05.2016 13:02 23,9 C 69 % 1010,4 hPa 0,0 l/m 1,4 km/h (1 Bft) N 360 2 min 0,000 mm 6,1 UV-I 839 W/m 17,9 C 23,9 C 3,2 km/h (1 Bft) 100,00 %
28.05.2016 13:03 23,8 C 66 % 1010,4 hPa 0,0 l/m 1,1 km/h (1 Bft) N 360 1 min 0,000 mm 6,4 UV-I 1064 W/m 17,1 C 23,8 C 3,2 km/h (1 Bft) 100,00 %
28.05.2016 13:04 23,8 C 68 % 1010,4 hPa 0,0 l/m 3,3 km/h (1 Bft) N 11 1 min 0,000 mm 6,5 UV-I 1126 W/m 17,5 C 23,8 C 6,4 km/h (2 Bft) 100,00 %
28.05.2016 13:05 23,9 C 66 % 1010,4 hPa 0,0 l/m 4,4 km/h (1 Bft) N-NO 23 1 min 0,000 mm 5,8 UV-I 1103 W/m 17,1 C 23,9 C 8,0 km/h (2 Bft) 100,00 %
28.05.2016 13:06 23,9 C 72 % 1010,5 hPa 0,0 l/m 4,6 km/h (1 Bft) N-NO 19 1 min 0,000 mm 5,3 UV-I 1078 W/m 18,5 C 23,9 C 6,4 km/h (2 Bft) 100,00 %
28.05.2016 13:07 24,0 C 72 % 1010,4 hPa 0,0 l/m 2,3 km/h (1 Bft) N 9 1 min 0,000 mm 6,3 UV-I 1078 W/m 18,6 C 24,0 C 6,4 km/h (2 Bft) 100,00 %
28.05.2016 13:08 24,1 C 69 % 1010,4 hPa 0,0 l/m 1,9 km/h (1 Bft) N 355 1 min 0,000 mm 6,6 UV-I 1083 W/m 18,0 C 24,1 C 3,2 km/h (1 Bft) 100,00 %
28.05.2016 13:09 24,1 C 67 % 1010,4 hPa 0,0 l/m 4,2 km/h (1 Bft) N-NO 31 1 min 0,000 mm 6,1 UV-I 1083 W/m 17,6 C 24,1 C 6,4 km/h (2 Bft) 100,00 %
28.05.2016 13:10 24,1 C 64 % 1010,4 hPa 0,0 l/m 4,6 km/h (1 Bft) N-NO 27 1 min 0,000 mm 5,0 UV-I 1058 W/m 16,9 C 24,1 C 6,4 km/h (2 Bft) 100,00 %
28.05.2016 13:11 24,1 C 66 % 1010,4 hPa 0,0 l/m 4,0 km/h (1 Bft) NO 38 1 min 0,000 mm 5,1 UV-I 1058 W/m 17,3 C 24,1 C 6,4 km/h (2 Bft) 100,00 %
28.05.2016 13:12 24,1 C 66 % 1010,3 hPa 0,0 l/m 5,4 km/h (1 Bft) SO 130 1 min 0,000 mm 4,5 UV-I 1058 W/m 17,3 C 24,1 C 9,7 km/h (2 Bft) 100,00 %
28.05.2016 13:13 24,0 C 63 % 1010,4 hPa 0,0 l/m 7,0 km/h (2 Bft) O-NO 75 1 min 0,000 mm 5,8 UV-I 1056 W/m 16,5 C 23,8 C 9,7 km/h (2 Bft) 100,00 %
28.05.2016 13:14 24,0 C 63 % 1010,4 hPa 0,0 l/m 6,2 km/h (2 Bft) O-SO 107 1 min 0,000 mm 6,4 UV-I 1041 W/m 16,5 C 24,0 C 8,0 km/h (2 Bft) 100,00 %
28.05.2016 13:15 23,9 C 63 % 1010,4 hPa 0,0 l/m 2,8 km/h (1 Bft) O 94 1 min 0,000 mm 6,4 UV-I 1041 W/m 16,4 C 23,9 C 4,8 km/h (1 Bft) 100,00 %
28.05.2016 13:16 24,0 C 67 % 1010,4 hPa 0,0 l/m 6,4 km/h (2 Bft) W-SW 244 1 min 0,000 mm 6,3 UV-I 1011 W/m 17,5 C 24,0 C 9,7 km/h (2 Bft) 100,00 %
28.05.2016 13:17 24,2 C 63 % 1010,4 hPa 0,0 l/m 3,3 km/h (1 Bft) SW 224 1 min 0,000 mm 6,2 UV-I 985 W/m 16,7 C 24,2 C 6,4 km/h (2 Bft) 100,00 %
28.05.2016 13:18 24,3 C 66 % 1010,4 hPa 0,0 l/m 2,3 km/h (1 Bft) W 275 1 min 0,000 mm 6,1 UV-I 966 W/m 17,5 C 24,3 C 4,8 km/h (1 Bft) 100,00 %
28.05.2016 13:19 24,5 C 63 % 1010,4 hPa 0,0 l/m 4,1 km/h (1 Bft) W-NW 296 1 min 0,000 mm 6,0 UV-I 944 W/m 17,0 C 24,5 C 6,4 km/h (2 Bft) 100,00 %
28.05.2016 13:20 24,6 C 64 % 1010,4 hPa 0,0 l/m 5,0 km/h (1 Bft) W 276 1 min 0,000 mm 6,0 UV-I 930 W/m 17,3 C 24,6 C 9,7 km/h (2 Bft) 100,00 %
28.05.2016 13:21 24,5 C 63 % 1010,4 hPa 0,0 l/m 3,1 km/h (1 Bft) W-NW 284 1 min 0,000 mm 6,0 UV-I 922 W/m 17,0 C 24,5 C 6,4 km/h (2 Bft) 100,00 %
28.05.2016 13:22 24,4 C 64 % 1010,4 hPa 0,0 l/m 2,3 km/h (1 Bft) NW 312 1 min 0,000 mm 5,9 UV-I 918 W/m 17,1 C 24,4 C 3,2 km/h (1 Bft) 96,30 %
28.05.2016 13:23 24,4 C 65 % 1010,4 hPa 0,0 l/m 1,2 km/h (1 Bft) W-NW 298 1 min 0,000 mm 5,9 UV-I 909 W/m 17,4 C 24,4 C 3,2 km/h (1 Bft) 92,86 %
28.05.2016 13:24 24,4 C 73 % 1010,4 hPa 0,0 l/m 1,7 km/h (1 Bft) N-NO 24 1 min 0,000 mm 5,9 UV-I 905 W/m 19,2 C 24,4 C 3,2 km/h (1 Bft) 95,83 %
28.05.2016 13:25 24,5 C 67 % 1010,4 hPa 0,0 l/m 1,5 km/h (1 Bft) W-NW 302 1 min 0,000 mm 5,8 UV-I 895 W/m 18,0 C 24,5 C 3,2 km/h (1 Bft) 100,00 %
28.05.2016 13:26 24,4 C 66 % 1010,3 hPa 0,0 l/m 2,1 km/h (1 Bft) N 355 1 min 0,000 mm 5,8 UV-I 890 W/m 17,6 C 24,4 C 3,2 km/h (1 Bft) 100,00 %
28.05.2016 13:27 24,4 C 64 % 1010,3 hPa 0,0 l/m 2,0 km/h (1 Bft) NW 317 1 min 0,000 mm 5,8 UV-I 882 W/m 17,1 C 24,4 C 4,8 km/h (1 Bft) 96,15 %
28.05.2016 13:28 24,4 C 72 % 1010,3 hPa 0,0 l/m 1,8 km/h (1 Bft) N 11 1 min 0,000 mm 5,8 UV-I 882 W/m 19,0 C 24,4 C 3,2 km/h (1 Bft) 100,00 %
28.05.2016 13:29 24,5 C 70 % 1010,3 hPa 0,0 l/m 1,8 km/h (1 Bft) NW 316 1 min 0,000 mm 5,8 UV-I 892 W/m 18,7 C 24,5 C 3,2 km/h (1 Bft) 100,00 %
28.05.2016 13:30 24,6 C 66 % 1010,3 hPa 0,0 l/m 1,4 km/h (1 Bft) N-NW 327 1 min 0,000 mm 5,7 UV-I 878 W/m 17,8 C 24,6 C 3,2 km/h (1 Bft) 100,00 %
28.05.2016 13:31 24,6 C 67 % 1010,3 hPa 0,0 l/m 3,0 km/h (1 Bft) NW 323 1 min 0,000 mm 5,7 UV-I 867 W/m 18,1 C 24,6 C 8,0 km/h (2 Bft) 100,00 %
28.05.2016 13:32 24,5 C 69 % 1010,3 hPa 0,0 l/m 2,8 km/h (1 Bft) N-NW 332 1 min 0,000 mm 5,8 UV-I 859 W/m 18,4 C 24,5 C 6,4 km/h (2 Bft) 100,00 %
28.05.2016 13:33 24,4 C 64 % 1010,3 hPa 0,0 l/m 3,2 km/h (1 Bft) NW 307 1 min 0,000 mm 5,8 UV-I 855 W/m 17,1 C 24,4 C 4,8 km/h (1 Bft) 100,00 %
28.05.2016 13:34 24,4 C 64 % 1010,3 hPa 0,0 l/m 3,3 km/h (1 Bft) NW 312 1 min 0,000 mm 5,8 UV-I 856 W/m 17,1 C 24,4 C 4,8 km/h (1 Bft) 96,15 %
28.05.2016 13:35 24,3 C 63 % 1010,3 hPa 0,0 l/m 3,8 km/h (1 Bft) NW 319 1 min 0,000 mm 5,8 UV-I 857 W/m 16,8 C 24,3 C 6,4 km/h (2 Bft) 96,67 %
28.05.2016 13:36 24,3 C 62 % 1010,3 hPa 0,0 l/m 2,0 km/h (1 Bft) N 9 1 min 0,000 mm 5,8 UV-I 860 W/m 16,5 C 24,3 C 4,8 km/h (1 Bft) 100,00 %
28.05.2016 13:37 24,2 C 61 % 1010,3 hPa 0,0 l/m 3,2 km/h (1 Bft) NW 308 1 min 0,000 mm 5,8 UV-I 860 W/m 16,2 C 24,2 C 4,8 km/h (1 Bft) 100,00 %
28.05.2016 13:38 24,1 C 64 % 1010,2 hPa 0,0 l/m 1,9 km/h (1 Bft) NW 308 1 min 0,000 mm 5,8 UV-I 860 W/m 16,9 C 24,1 C 3,2 km/h (1 Bft) 100,00 %
28.05.2016 13:39 24,1 C 63 % 1010,2 hPa 0,0 l/m 1,3 km/h (1 Bft) NW 308 1 min 0,000 mm 5,8 UV-I 862 W/m 16,6 C 24,1 C 1,6 km/h (1 Bft) 95,83 %
28.05.2016 13:40 24,1 C 66 % 1010,2 hPa 0,0 l/m 1,4 km/h (1 Bft) W 277 1 min 0,000 mm 5,8 UV-I 861 W/m 17,3 C 24,1 C 3,2 km/h (1 Bft) 100,00 %
28.05.2016 13:41 24,1 C 65 % 1010,2 hPa 0,0 l/m 3,4 km/h (1 Bft) W 273 1 min 0,000 mm 5,8 UV-I 858 W/m 17,1 C 24,1 C 6,4 km/h (2 Bft) 100,00 %
28.05.2016 13:42 24,2 C 66 % 1010,2 hPa 0,0 l/m 2,6 km/h (1 Bft) NW 323 1 min 0,000 mm 5,8 UV-I 861 W/m 17,4 C 24,2 C 4,8 km/h (1 Bft) 100,00 %
28.05.2016 13:43 24,3 C 64 % 1010,1 hPa 0,0 l/m 5,1 km/h (1 Bft) W-SW 256 1 min 0,000 mm 5,8 UV-I 864 W/m 17,0 C 24,3 C 6,4 km/h (2 Bft) 100,00 %
28.05.2016 13:44 24,3 C 62 % 1010,1 hPa 0,0 l/m 3,5 km/h (1 Bft) W 261 1 min 0,000 mm 5,8 UV-I 865 W/m 16,5 C 24,3 C 6,4 km/h (2 Bft) 100,00 %
28.05.2016 13:45 24,4 C 67 % 1010,1 hPa 0,0 l/m 3,2 km/h (1 Bft) W-NW 284 1 min 0,000 mm 5,8 UV-I 867 W/m 17,9 C 24,4 C 4,8 km/h (1 Bft) 100,00 %
28.05.2016 13:46 24,5 C 63 % 1010,2 hPa 0,0 l/m 0,7 km/h (0 Bft) W-NW 288 1 min 0,000 mm 5,4 UV-I 824 W/m 17,0 C 24,5 C 1,6 km/h (1 Bft) 100,00 %
28.05.2016 13:47 24,5 C 63 % 1010,1 hPa 0,0 l/m 3,9 km/h (1 Bft) W-NW 297 1 min 0,000 mm 5,6 UV-I 805 W/m 17,0 C 24,5 C 6,4 km/h (2 Bft) 100,00 %
28.05.2016 13:48 24,5 C 64 % 1010,1 hPa 0,0 l/m 2,6 km/h (1 Bft) W-NW 296 1 min 0,000 mm 5,8 UV-I 862 W/m 17,2 C 24,5 C 4,8 km/h (1 Bft) 100,00 %
28.05.2016 13:49 24,5 C 62 % 1010,1 hPa 0,0 l/m 1,3 km/h (1 Bft) NW 320 1 min 0,000 mm 5,8 UV-I 872 W/m 16,7 C 24,5 C 3,2 km/h (1 Bft) 100,00 %
28.05.2016 13:50 24,5 C 66 % 1010,0 hPa 0,0 l/m 3,7 km/h (1 Bft) W-SW 238 1 min 0,000 mm 5,8 UV-I 875 W/m 17,7 C 24,5 C 4,8 km/h (1 Bft) 95,83 %
28.05.2016 13:51 24,4 C 61 % 1010,0 hPa 0,0 l/m 6,6 km/h (2 Bft) W-SW 258 1 min 0,000 mm 5,5 UV-I 877 W/m 16,4 C 24,4 C 11,3 km/h (2 Bft) 100,00 %
28.05.2016 13:52 24,4 C 64 % 1010,0 hPa 0,0 l/m 4,7 km/h (1 Bft) W-NW 297 1 min 0,000 mm 5,5 UV-I 877 W/m 17,1 C 24,4 C 6,4 km/h (2 Bft) 100,00 %
28.05.2016 13:53 24,4 C 62 % 1010,0 hPa 0,0 l/m 4,0 km/h (1 Bft) W 276 1 min 0,000 mm 5,7 UV-I 852 W/m 16,6 C 24,4 C 4,8 km/h (1 Bft) 100,00 %
28.05.2016 13:54 24,3 C 59 % 1010,0 hPa 0,0 l/m 1,9 km/h (1 Bft) W-SW 240 1 min 0,000 mm 5,7 UV-I 849 W/m 15,8 C 24,3 C 3,2 km/h (1 Bft) 100,00 %
28.05.2016 13:55 24,3 C 60 % 1010,0 hPa 0,0 l/m 0,5 km/h (0 Bft) W-SW 240 1 min 0,000 mm 5,7 UV-I 848 W/m 16,0 C 24,3 C 1,6 km/h (1 Bft) 96,55 %
28.05.2016 13:56 24,3 C 64 % 1009,9 hPa 0,0 l/m 1,0 km/h (0 Bft) W 279 1 min 0,000 mm 5,7 UV-I 846 W/m 17,0 C 24,3 C 1,6 km/h (1 Bft) 100,00 %
28.05.2016 13:57 24,3 C 61 % 1009,9 hPa 0,0 l/m 3,4 km/h (1 Bft) NW 322 1 min 0,000 mm 5,7 UV-I 848 W/m 16,3 C 24,3 C 4,8 km/h (1 Bft) 100,00 %
28.05.2016 13:58 24,3 C 62 % 1009,8 hPa 0,0 l/m 2,5 km/h (1 Bft) NW 323 1 min 0,000 mm 5,7 UV-I 848 W/m 16,5 C 24,3 C 4,8 km/h (1 Bft) 100,00 %
28.05.2016 13:59 24,3 C 63 % 1009,8 hPa 0,0 l/m 1,8 km/h (1 Bft) NW 313 1 min 0,000 mm 5,7 UV-I 846 W/m 16,8 C 24,3 C 3,2 km/h (1 Bft) 100,00 %
28.05.2016 14:00 24,4 C 64 % 1009,8 hPa 0,0 l/m 6,0 km/h (2 Bft) W-NW 302 1 min 0,000 mm 5,6 UV-I 842 W/m 17,1 C 24,4 C 8,0 km/h (2 Bft) 100,00 %
28.05.2016 14:02 24,4 C 61 % 1009,8 hPa 0,0 l/m 1,9 km/h (1 Bft) W-NW 298 2 min 0,559 mm 5,6 UV-I 840 W/m 16,4 C 24,4 C 3,2 km/h (1 Bft) 95,12 %
28.05.2016 14:03 24,3 C 63 % 1009,6 hPa 0,0 l/m 1,3 km/h (1 Bft) NW 319 1 min 0,000 mm 5,6 UV-I 841 W/m 16,8 C 24,3 C 3,2 km/h (1 Bft) 100,00 %
28.05.2016 14:04 24,4 C 61 % 1009,7 hPa 0,0 l/m 2,5 km/h (1 Bft) N-NO 13 1 min 0,000 mm 5,6 UV-I 845 W/m 16,4 C 24,4 C 4,8 km/h (1 Bft) 91,67 %
28.05.2016 14:05 24,5 C 66 % 1009,6 hPa 0,0 l/m 1,4 km/h (1 Bft) N-NO 13 1 min 0,000 mm 5,6 UV-I 847 W/m 17,7 C 24,5 C 4,8 km/h (1 Bft) 100,00 %
28.05.2016 14:06 24,6 C 64 % 1009,5 hPa 0,0 l/m 1,9 km/h (1 Bft) N-NO 19 1 min 0,000 mm 5,6 UV-I 847 W/m 17,3 C 24,6 C 3,2 km/h (1 Bft) 96,15 %
28.05.2016 14:07 24,5 C 66 % 1009,6 hPa 0,0 l/m 3,6 km/h (1 Bft) N-NO 17 1 min 0,000 mm 5,6 UV-I 847 W/m 17,7 C 24,5 C 6,4 km/h (2 Bft) 96,30 %
28.05.2016 14:08 24,5 C 63 % 1009,6 hPa 0,0 l/m 2,0 km/h (1 Bft) N-NW 327 1 min 0,000 mm 5,6 UV-I 845 W/m 17,0 C 24,5 C 3,2 km/h (1 Bft) 100,00 %
28.05.2016 14:09 24,6 C 62 % 1009,6 hPa 0,0 l/m 2,4 km/h (1 Bft) N 5 1 min 0,000 mm 5,5 UV-I 806 W/m 16,8 C 24,6 C 3,2 km/h (1 Bft) 95,83 %
28.05.2016 14:10 24,6 C 61 % 1009,5 hPa 0,0 l/m 2,7 km/h (1 Bft) N 5 1 min 0,000 mm 5,6 UV-I 828 W/m 16,6 C 24,6 C 4,8 km/h (1 Bft) 95,65 %
28.05.2016 14:11 24,4 C 60 % 1009,5 hPa 0,0 l/m 2,3 km/h (1 Bft) W-NW 291 1 min 0,000 mm 5,6 UV-I 846 W/m 16,1 C 24,4 C 4,8 km/h (1 Bft) 91,67 %
28.05.2016 14:12 24,4 C 59 % 1009,5 hPa 0,0 l/m 2,4 km/h (1 Bft) W-SW 252 1 min 0,000 mm 5,5 UV-I 838 W/m 15,9 C 24,4 C 6,4 km/h (2 Bft) 100,00 %
28.05.2016 14:13 24,6 C 62 % 1009,5 hPa 0,0 l/m 2,7 km/h (1 Bft) W-NW 284 1 min 0,000 mm 5,5 UV-I 840 W/m 16,8 C 24,6 C 4,8 km/h (1 Bft) 95,83 %
28.05.2016 14:14 24,6 C 61 % 1009,5 hPa 0,0 l/m 5,6 km/h (1 Bft) N 355 1 min 0,000 mm 5,5 UV-I 844 W/m 16,6 C 24,6 C 9,7 km/h (2 Bft) 95,65 %
28.05.2016 14:15 24,6 C 59 % 1009,5 hPa 0,0 l/m 3,7 km/h (1 Bft) NW 312 1 min 0,000 mm 5,5 UV-I 852 W/m 16,0 C 24,6 C 6,4 km/h (2 Bft) 100,00 %
28.05.2016 14:16 24,6 C 59 % 1009,5 hPa 0,0 l/m 3,9 km/h (1 Bft) W-NW 295 1 min 0,000 mm 5,4 UV-I 848 W/m 16,0 C 24,6 C 6,4 km/h (2 Bft) 86,96 %
28.05.2016 14:17 24,6 C 60 % 1009,5 hPa 0,0 l/m 3,9 km/h (1 Bft) W 275 1 min 0,000 mm 5,4 UV-I 822 W/m 16,3 C 24,6 C 9,7 km/h (2 Bft) 100,00 %
28.05.2016 14:18 24,6 C 61 % 1009,5 hPa 0,0 l/m 2,0 km/h (1 Bft) W-NW 300 1 min 0,000 mm 5,4 UV-I 833 W/m 16,6 C 24,6 C 4,8 km/h (1 Bft) 95,65 %
28.05.2016 14:19 24,7 C 61 % 1009,5 hPa 0,0 l/m 1,2 km/h (1 Bft) NW 311 1 min 0,000 mm 5,4 UV-I 825 W/m 16,7 C 24,7 C 3,2 km/h (1 Bft) 95,83 %
28.05.2016 14:20 24,7 C 60 % 1009,5 hPa 0,0 l/m 2,7 km/h (1 Bft) NW 309 1 min 0,000 mm 5,3 UV-I 781 W/m 16,4 C 24,7 C 4,8 km/h (1 Bft) 95,65 %
28.05.2016 14:21 24,7 C 58 % 1009,4 hPa 0,0 l/m 4,4 km/h (1 Bft) W-NW 291 1 min 0,000 mm 5,4 UV-I 831 W/m 15,9 C 24,7 C 8,0 km/h (2 Bft) 96,97 %
28.05.2016 14:22 24,7 C 58 % 1009,4 hPa 0,0 l/m 5,6 km/h (1 Bft) NW 304 1 min 0,000 mm 5,2 UV-I 844 W/m 15,9 C 24,7 C 8,0 km/h (2 Bft) 100,00 %
28.05.2016 14:23 24,6 C 56 % 1009,5 hPa 0,0 l/m 2,3 km/h (1 Bft) NW 306 1 min 0,000 mm 5,3 UV-I 846 W/m 15,2 C 24,6 C 4,8 km/h (1 Bft) 100,00 %
28.05.2016 14:24 24,7 C 57 % 1009,4 hPa 0,0 l/m 2,1 km/h (1 Bft) NW 309 1 min 0,000 mm 5,4 UV-I 832 W/m 15,6 C 24,7 C 3,2 km/h (1 Bft) 96,55 %
28.05.2016 14:25 24,7 C 57 % 1009,4 hPa 0,0 l/m 2,3 km/h (1 Bft) NW 309 1 min 0,000 mm 5,3 UV-I 824 W/m 15,6 C 24,7 C 3,2 km/h (1 Bft) 93,33 %
28.05.2016 14:26 24,7 C 55 % 1009,4 hPa 0,0 l/m 0,8 km/h (0 Bft) NW 309 1 min 0,000 mm 5,3 UV-I 826 W/m 15,0 C 24,7 C 1,6 km/h (1 Bft) 100,00 %
28.05.2016 14:27 24,7 C 55 % 1009,3 hPa 0,0 l/m 1,8 km/h (1 Bft) W 279 1 min 0,000 mm 5,3 UV-I 823 W/m 15,0 C 24,7 C 4,8 km/h (1 Bft) 95,65 %
28.05.2016 14:28 24,7 C 57 % 1009,3 hPa 0,0 l/m 5,0 km/h (1 Bft) W-NW 286 1 min 0,000 mm 5,3 UV-I 819 W/m 15,6 C 24,7 C 6,4 km/h (2 Bft) 100,00 %
28.05.2016 14:29 24,7 C 58 % 1009,3 hPa 0,0 l/m 4,1 km/h (1 Bft) W 269 1 min 0,000 mm 5,3 UV-I 817 W/m 15,9 C 24,7 C 6,4 km/h (2 Bft) 95,65 %
28.05.2016 14:30 24,7 C 57 % 1009,3 hPa 0,0 l/m 2,9 km/h (1 Bft) W-NW 293 1 min 0,000 mm 5,3 UV-I 816 W/m 15,6 C 24,7 C 6,4 km/h (2 Bft) 100,00 %
28.05.2016 14:31 24,8 C 58 % 1009,3 hPa 0,0 l/m 3,2 km/h (1 Bft) NW 304 1 min 0,000 mm 5,3 UV-I 818 W/m 16,0 C 24,8 C 8,0 km/h (2 Bft) 96,15 %
28.05.2016 14:32 24,8 C 64 % 1009,3 hPa 0,0 l/m 3,1 km/h (1 Bft) N-NW 330 1 min 0,000 mm 5,3 UV-I 820 W/m 17,5 C 24,8 C 6,4 km/h (2 Bft) 100,00 %
28.05.2016 14:33 24,8 C 59 % 1009,3 hPa 0,0 l/m 3,1 km/h (1 Bft) N-NO 14 1 min 0,000 mm 5,2 UV-I 817 W/m 16,2 C 24,8 C 6,4 km/h (2 Bft) 96,55 %
28.05.2016 14:34 24,8 C 60 % 1009,2 hPa 0,0 l/m 3,3 km/h (1 Bft) N-NW 338 1 min 0,000 mm 5,2 UV-I 814 W/m 16,5 C 24,8 C 6,4 km/h (2 Bft) 100,00 %
28.05.2016 14:35 24,8 C 63 % 1009,2 hPa 0,0 l/m 4,3 km/h (1 Bft) NO 43 1 min 0,000 mm 5,2 UV-I 812 W/m 17,3 C 24,8 C 4,8 km/h (1 Bft) 100,00 %
28.05.2016 14:36 24,9 C 58 % 1009,2 hPa 0,0 l/m 3,4 km/h (1 Bft) N 355 1 min 0,000 mm 5,1 UV-I 808 W/m 16,1 C 24,9 C 4,8 km/h (1 Bft) 100,00 %
28.05.2016 14:37 24,9 C 60 % 1009,2 hPa 0,0 l/m 5,2 km/h (1 Bft) NO 42 1 min 0,000 mm 5,1 UV-I 803 W/m 16,6 C 24,9 C 8,0 km/h (2 Bft) 100,00 %
28.05.2016 14:38 24,9 C 64 % 1009,2 hPa 0,0 l/m 6,2 km/h (2 Bft) NO 55 1 min 0,000 mm 5,1 UV-I 805 W/m 17,6 C 24,9 C 8,0 km/h (2 Bft) 100,00 %
28.05.2016 14:39 25,0 C 61 % 1009,2 hPa 0,0 l/m 3,5 km/h (1 Bft) NO 40 1 min 0,000 mm 5,1 UV-I 806 W/m 16,9 C 25,0 C 4,8 km/h (1 Bft) 100,00 %
28.05.2016 14:40 25,0 C 62 % 1009,1 hPa 0,0 l/m 3,5 km/h (1 Bft) N-NO 13 1 min 0,000 mm 5,1 UV-I 806 W/m 17,2 C 25,0 C 6,4 km/h (2 Bft) 100,00 %
28.05.2016 14:41 25,0 C 63 % 1009,1 hPa 0,0 l/m 3,6 km/h (1 Bft) N 360 1 min 0,000 mm 5,1 UV-I 803 W/m 17,5 C 25,0 C 6,4 km/h (2 Bft) 95,65 %
28.05.2016 14:42 25,1 C 68 % 1009,1 hPa 0,0 l/m 2,8 km/h (1 Bft) N-NO 17 1 min 0,000 mm 5,0 UV-I 797 W/m 18,8 C 25,1 C 4,8 km/h (1 Bft) 100,00 %
28.05.2016 14:43 25,1 C 58 % 1009,1 hPa 0,0 l/m 0,8 km/h (0 Bft) N-NO 16 1 min 0,000 mm 5,0 UV-I 796 W/m 16,2 C 25,1 C 1,6 km/h (1 Bft) 98,42 %
28.05.2016 14:44 25,0 C 56 % 1009,1 hPa 0,0 l/m 3,0 km/h (1 Bft) W-NW 297 1 min 0,000 mm 5,0 UV-I 800 W/m 15,6 C 25,0 C 8,0 km/h (2 Bft) 100,00 %
28.05.2016 14:45 24,9 C 58 % 1009,1 hPa 0,0 l/m 4,6 km/h (1 Bft) N-NO 22 1 min 0,000 mm 5,0 UV-I 800 W/m 16,1 C 24,9 C 8,0 km/h (2 Bft) 100,00 %
28.05.2016 14:46 25,1 C 64 % 1009,1 hPa 0,0 l/m 2,4 km/h (1 Bft) N-NO 13 1 min 0,000 mm 4,9 UV-I 794 W/m 17,8 C 25,1 C 6,4 km/h (2 Bft) 100,00 %
28.05.2016 14:47 25,1 C 65 % 1009,1 hPa 0,0 l/m 1,7 km/h (1 Bft) NW 323 1 min 0,000 mm 4,9 UV-I 795 W/m 18,0 C 25,1 C 3,2 km/h (1 Bft) 100,00 %
28.05.2016 14:48 25,2 C 66 % 1009,1 hPa 0,0 l/m 1,3 km/h (1 Bft) NW 323 1 min 0,000 mm 4,9 UV-I 794 W/m 18,4 C 25,2 C 3,2 km/h (1 Bft) 100,00 %
28.05.2016 14:49 25,1 C 58 % 1009,0 hPa 0,0 l/m 1,4 km/h (1 Bft) NW 323 1 min 0,000 mm 4,9 UV-I 793 W/m 16,2 C 25,1 C 3,2 km/h (1 Bft) 100,00 %
28.05.2016 14:50 25,1 C 58 % 1009,0 hPa 0,0 l/m 1,1 km/h (1 Bft) NW 323 1 min 0,000 mm 4,9 UV-I 794 W/m 16,2 C 25,1 C 1,6 km/h (1 Bft) 100,00 %
28.05.2016 14:51 25,0 C 57 % 1009,0 hPa 0,0 l/m 1,2 km/h (1 Bft) NW 323 1 min 0,000 mm 4,9 UV-I 795 W/m 15,9 C 25,0 C 3,2 km/h (1 Bft) 100,00 %
28.05.2016 14:52 25,0 C 58 % 1009,0 hPa 0,0 l/m 1,1 km/h (1 Bft) NW 325 1 min 0,000 mm 4,9 UV-I 794 W/m 16,1 C 25,0 C 1,6 km/h (1 Bft) 100,00 %
28.05.2016 14:53 25,1 C 59 % 1009,0 hPa 0,0 l/m 2,2 km/h (1 Bft) NW 312 1 min 0,000 mm 4,9 UV-I 796 W/m 16,5 C 25,1 C 3,2 km/h (1 Bft) 100,00 %
28.05.2016 14:54 25,2 C 63 % 1009,0 hPa 0,0 l/m 2,5 km/h (1 Bft) NW 308 1 min 0,000 mm 4,9 UV-I 795 W/m 17,6 C 25,2 C 4,8 km/h (1 Bft) 100,00 %
28.05.2016 14:55 25,3 C 62 % 1009,0 hPa 0,0 l/m 2,7 km/h (1 Bft) W-NW 299 1 min 0,000 mm 4,9 UV-I 792 W/m 17,5 C 25,3 C 4,8 km/h (1 Bft) 100,00 %
28.05.2016 14:56 25,3 C 59 % 1008,9 hPa 0,0 l/m 1,6 km/h (1 Bft) N 9 1 min 0,000 mm 4,8 UV-I 791 W/m 16,7 C 25,3 C 3,2 km/h (1 Bft) 92,86 %
28.05.2016 14:57 25,3 C 57 % 1008,9 hPa 0,0 l/m 1,8 km/h (1 Bft) N 5 1 min 0,000 mm 4,8 UV-I 793 W/m 16,2 C 25,3 C 3,2 km/h (1 Bft) 100,00 %
28.05.2016 14:58 25,2 C 57 % 1008,9 hPa 0,0 l/m 3,9 km/h (1 Bft) N-NW 328 1 min 0,000 mm 4,8 UV-I 802 W/m 16,1 C 25,2 C 4,8 km/h (1 Bft) 96,55 %
28.05.2016 14:59 25,3 C 57 % 1008,9 hPa 0,0 l/m 3,8 km/h (1 Bft) W-NW 289 1 min 0,000 mm 4,8 UV-I 805 W/m 16,2 C 25,3 C 6,4 km/h (2 Bft) 100,00 %
28.05.2016 15:00 25,3 C 55 % 1008,8 hPa 0,0 l/m 1,6 km/h (1 Bft) W-NW 291 1 min 0,000 mm 4,8 UV-I 802 W/m 15,6 C 25,3 C 3,2 km/h (1 Bft) 100,00 %
28.05.2016 15:02 25,2 C 60 % 1008,8 hPa 0,0 l/m 2,6 km/h (1 Bft) NW 323 2 min 0,533 mm 4,7 UV-I 793 W/m 16,9 C 25,2 C 6,4 km/h (2 Bft) 98,11 %
28.05.2016 15:03 25,2 C 57 % 1008,8 hPa 0,0 l/m 1,3 km/h (1 Bft) NW 322 1 min 0,000 mm 4,7 UV-I 792 W/m 16,1 C 25,2 C 3,2 km/h (1 Bft) 95,83 %
28.05.2016 15:04 25,1 C 57 % 1008,8 hPa 0,0 l/m 2,0 km/h (1 Bft) N-NO 30 1 min 0,000 mm 4,7 UV-I 789 W/m 16,0 C 25,1 C 6,4 km/h (2 Bft) 100,00 %
28.05.2016 15:05 25,1 C 58 % 1008,8 hPa 0,0 l/m 6,6 km/h (2 Bft) N-NO 30 1 min 0,000 mm 4,7 UV-I 788 W/m 16,2 C 25,1 C 8,0 km/h (2 Bft) 100,00 %
28.05.2016 15:06 25,2 C 60 % 1008,8 hPa 0,0 l/m 5,9 km/h (2 Bft) NO 40 1 min 0,000 mm 4,6 UV-I 784 W/m 16,9 C 25,2 C 6,4 km/h (2 Bft) 96,30 %
28.05.2016 15:07 25,3 C 61 % 1008,7 hPa 0,0 l/m 3,9 km/h (1 Bft) N-NO 15 1 min 0,000 mm 4,6 UV-I 775 W/m 17,2 C 25,3 C 6,4 km/h (2 Bft) 100,00 %
28.05.2016 15:08 25,3 C 59 % 1008,7 hPa 0,0 l/m 3,2 km/h (1 Bft) W-NW 294 1 min 0,000 mm 4,6 UV-I 771 W/m 16,7 C 25,3 C 4,8 km/h (1 Bft) 100,00 %
28.05.2016 15:09 25,3 C 57 % 1008,7 hPa 0,0 l/m 2,1 km/h (1 Bft) W-NW 298 1 min 0,000 mm 4,5 UV-I 767 W/m 16,2 C 25,3 C 4,8 km/h (1 Bft) 100,00 %
28.05.2016 15:10 25,3 C 60 % 1008,7 hPa 0,0 l/m 0,8 km/h (0 Bft) N-NW 331 1 min 0,000 mm 4,5 UV-I 768 W/m 17,0 C 25,3 C 1,6 km/h (1 Bft) 100,00 %
28.05.2016 15:11 25,4 C 63 % 1008,7 hPa 0,0 l/m 2,6 km/h (1 Bft) N-NW 329 1 min 0,000 mm 4,5 UV-I 766 W/m 17,8 C 25,4 C 4,8 km/h (1 Bft) 100,00 %
28.05.2016 15:12 25,4 C 61 % 1008,7 hPa 0,0 l/m 5,0 km/h (1 Bft) W-NW 293 1 min 0,000 mm 4,5 UV-I 764 W/m 17,3 C 25,4 C 8,0 km/h (2 Bft) 100,00 %
28.05.2016 15:13 25,4 C 55 % 1008,7 hPa 0,0 l/m 4,3 km/h (1 Bft) W-SW 254 1 min 0,000 mm 4,5 UV-I 761 W/m 15,7 C 25,4 C 6,4 km/h (2 Bft) 100,00 %
28.05.2016 15:14 25,4 C 58 % 1008,7 hPa 0,0 l/m 4,0 km/h (1 Bft) W-NW 286 1 min 0,000 mm 4,4 UV-I 758 W/m 16,5 C 25,4 C 4,8 km/h (1 Bft) 98,48 %
28.05.2016 15:15 25,5 C 57 % 1008,7 hPa 0,0 l/m 3,4 km/h (1 Bft) W-NW 294 1 min 0,000 mm 4,4 UV-I 754 W/m 16,3 C 25,5 C 4,8 km/h (1 Bft) 100,00 %
28.05.2016 15:16 25,5 C 61 % 1008,6 hPa 0,0 l/m 5,1 km/h (1 Bft) N 11 1 min 0,000 mm 4,4 UV-I 751 W/m 17,4 C 25,5 C 11,3 km/h (2 Bft) 100,00 %
28.05.2016 15:17 25,5 C 60 % 1008,6 hPa 0,0 l/m 8,2 km/h (2 Bft) NO 42 1 min 0,000 mm 4,3 UV-I 748 W/m 17,2 C 25,1 C 14,5 km/h (3 Bft) 100,00 %
28.05.2016 15:18 25,5 C 61 % 1008,6 hPa 0,0 l/m 7,3 km/h (2 Bft) O-NO 62 1 min 0,000 mm 4,3 UV-I 747 W/m 17,4 C 25,3 C 12,9 km/h (3 Bft) 96,30 %
28.05.2016 15:19 25,6 C 56 % 1008,6 hPa 0,0 l/m 7,5 km/h (2 Bft) N-NO 18 1 min 0,000 mm 4,3 UV-I 748 W/m 16,2 C 25,3 C 9,7 km/h (2 Bft) 100,00 %
28.05.2016 15:20 25,6 C 63 % 1008,6 hPa 0,0 l/m 7,0 km/h (2 Bft) N-NO 16 1 min 0,000 mm 4,3 UV-I 746 W/m 18,0 C 25,5 C 11,3 km/h (2 Bft) 100,00 %
28.05.2016 15:21 25,6 C 61 % 1008,6 hPa 0,0 l/m 5,6 km/h (1 Bft) NO 52 1 min 0,000 mm 4,2 UV-I 738 W/m 17,5 C 25,6 C 8,0 km/h (2 Bft) 100,00 %
28.05.2016 15:22 25,5 C 57 % 1008,6 hPa 0,0 l/m 4,7 km/h (1 Bft) NO 51 1 min 0,000 mm 4,2 UV-I 735 W/m 16,3 C 25,5 C 6,4 km/h (2 Bft) 100,00 %
28.05.2016 15:23 25,5 C 57 % 1008,5 hPa 0,0 l/m 4,2 km/h (1 Bft) NO 51 1 min 0,000 mm 4,2 UV-I 736 W/m 16,3 C 25,5 C 4,8 km/h (1 Bft) 100,00 %
28.05.2016 15:24 25,6 C 56 % 1008,6 hPa 0,0 l/m 4,5 km/h (1 Bft) NO 51 1 min 0,000 mm 4,2 UV-I 734 W/m 16,2 C 25,6 C 4,8 km/h (1 Bft) 96,30 %
28.05.2016 15:25 25,6 C 55 % 1008,5 hPa 0,0 l/m 2,9 km/h (1 Bft) NO 49 1 min 0,000 mm 4,2 UV-I 735 W/m 15,9 C 25,6 C 4,8 km/h (1 Bft) 100,00 %
28.05.2016 15:26 25,6 C 55 % 1008,5 hPa 0,0 l/m 5,6 km/h (1 Bft) NO 36 1 min 0,000 mm 4,1 UV-I 734 W/m 15,9 C 25,6 C 8,0 km/h (2 Bft) 100,00 %
28.05.2016 15:27 25,6 C 62 % 1008,4 hPa 0,0 l/m 8,5 km/h (2 Bft) NO 45 1 min 0,000 mm 4,2 UV-I 737 W/m 17,8 C 25,1 C 9,7 km/h (2 Bft) 93,33 %
28.05.2016 15:28 25,6 C 59 % 1008,5 hPa 0,0 l/m 6,7 km/h (2 Bft) O-NO 65 1 min 0,000 mm 4,1 UV-I 733 W/m 17,0 C 25,5 C 8,0 km/h (2 Bft) 100,00 %
28.05.2016 15:29 25,6 C 55 % 1008,4 hPa 0,0 l/m 4,4 km/h (1 Bft) N-NO 31 1 min 0,000 mm 4,1 UV-I 730 W/m 15,9 C 25,6 C 6,4 km/h (2 Bft) 95,83 %
28.05.2016 15:30 25,6 C 58 % 1008,4 hPa 0,0 l/m 2,6 km/h (1 Bft) N 360 1 min 0,000 mm 4,1 UV-I 727 W/m 16,7 C 25,6 C 4,8 km/h (1 Bft) 100,00 %
28.05.2016 15:31 25,5 C 52 % 1008,4 hPa 0,0 l/m 1,1 km/h (1 Bft) N 360 1 min 0,000 mm 4,1 UV-I 726 W/m 14,9 C 25,5 C 1,6 km/h (1 Bft) 95,83 %
28.05.2016 15:32 25,5 C 55 % 1008,4 hPa 0,0 l/m 2,7 km/h (1 Bft) NO 48 1 min 0,000 mm 4,1 UV-I 729 W/m 15,8 C 25,5 C 8,0 km/h (2 Bft) 100,00 %
28.05.2016 15:33 25,6 C 56 % 1008,4 hPa 0,0 l/m 3,6 km/h (1 Bft) NO 49 1 min 0,000 mm 4,0 UV-I 728 W/m 16,2 C 25,6 C 4,8 km/h (1 Bft) 100,00 %
28.05.2016 15:34 25,7 C 60 % 1008,4 hPa 0,0 l/m 8,1 km/h (2 Bft) NO 55 1 min 0,000 mm 4,0 UV-I 724 W/m 17,3 C 25,3 C 9,7 km/h (2 Bft) 100,00 %
28.05.2016 15:35 25,7 C 55 % 1008,4 hPa 0,0 l/m 7,0 km/h (2 Bft) NO 54 1 min 0,000 mm 4,0 UV-I 722 W/m 16,0 C 25,6 C 9,7 km/h (2 Bft) 100,00 %
28.05.2016 15:36 25,7 C 54 % 1008,4 hPa 0,0 l/m 7,6 km/h (2 Bft) O-NO 65 1 min 0,000 mm 4,0 UV-I 722 W/m 15,7 C 25,4 C 12,9 km/h (3 Bft) 96,15 %
28.05.2016 15:37 25,7 C 54 % 1008,3 hPa 0,0 l/m 4,7 km/h (1 Bft) NO 39 1 min 0,000 mm 4,0 UV-I 719 W/m 15,7 C 25,7 C 6,4 km/h (2 Bft) 95,83 %
28.05.2016 15:38 25,8 C 59 % 1008,3 hPa 0,0 l/m 2,1 km/h (1 Bft) N 10 1 min 0,000 mm 3,9 UV-I 717 W/m 17,2 C 25,8 C 3,2 km/h (1 Bft) 100,00 %
28.05.2016 15:39 25,7 C 55 % 1008,3 hPa 0,0 l/m 1,7 km/h (1 Bft) N-NW 327 1 min 0,000 mm 3,9 UV-I 714 W/m 16,0 C 25,7 C 4,8 km/h (1 Bft) 100,00 %
28.05.2016 15:40 25,7 C 57 % 1008,3 hPa 0,0 l/m 3,6 km/h (1 Bft) NW 315 1 min 0,000 mm 3,9 UV-I 711 W/m 16,5 C 25,7 C 6,4 km/h (2 Bft) 100,00 %
28.05.2016 15:41 25,7 C 55 % 1008,3 hPa 0,0 l/m 4,4 km/h (1 Bft) N 5 1 min 0,000 mm 3,8 UV-I 706 W/m 16,0 C 25,7 C 11,3 km/h (2 Bft) 100,00 %
28.05.2016 15:42 25,7 C 58 % 1008,3 hPa 0,0 l/m 4,9 km/h (1 Bft) N-NO 31 1 min 0,000 mm 3,8 UV-I 704 W/m 16,8 C 25,7 C 11,3 km/h (2 Bft) 100,00 %
28.05.2016 15:43 25,6 C 62 % 1008,2 hPa 0,0 l/m 3,0 km/h (1 Bft) N 9 1 min 0,000 mm 3,8 UV-I 706 W/m 17,8 C 25,6 C 4,8 km/h (1 Bft) 100,00 %
28.05.2016 15:44 25,6 C 59 % 1008,3 hPa 0,0 l/m 1,3 km/h (1 Bft) N 9 1 min 0,000 mm 3,8 UV-I 704 W/m 17,0 C 25,6 C 3,2 km/h (1 Bft) 100,00 %
28.05.2016 15:45 25,6 C 59 % 1008,2 hPa 0,0 l/m 1,5 km/h (1 Bft) N 355 1 min 0,000 mm 3,7 UV-I 698 W/m 17,0 C 25,6 C 3,2 km/h (1 Bft) 100,00 %
28.05.2016 15:46 25,6 C 59 % 1008,2 hPa 0,0 l/m 1,9 km/h (1 Bft) N-NO 30 1 min 0,000 mm 3,6 UV-I 680 W/m 17,0 C 25,6 C 3,2 km/h (1 Bft) 100,00 %
28.05.2016 15:47 25,7 C 54 % 1008,3 hPa 0,0 l/m 3,9 km/h (1 Bft) O-SO 102 1 min 0,000 mm 3,6 UV-I 675 W/m 15,7 C 25,7 C 4,8 km/h (1 Bft) 100,00 %
28.05.2016 15:48 25,7 C 52 % 1008,2 hPa 0,0 l/m 3,8 km/h (1 Bft) O-SO 110 1 min 0,000 mm 3,6 UV-I 678 W/m 15,1 C 25,7 C 6,4 km/h (2 Bft) 100,00 %
28.05.2016 15:49 25,7 C 52 % 1008,2 hPa 0,0 l/m 2,0 km/h (1 Bft) N-NO 30 1 min 0,000 mm 3,6 UV-I 680 W/m 15,1 C 25,7 C 4,8 km/h (1 Bft) 95,65 %
28.05.2016 15:50 25,7 C 58 % 1008,2 hPa 0,0 l/m 5,5 km/h (1 Bft) N-NO 24 1 min 0,000 mm 3,5 UV-I 674 W/m 16,8 C 25,7 C 6,4 km/h (2 Bft) 100,00 %
28.05.2016 15:51 25,8 C 61 % 1008,2 hPa 0,0 l/m 3,9 km/h (1 Bft) N-NO 17 1 min 0,000 mm 3,5 UV-I 666 W/m 17,7 C 25,8 C 6,4 km/h (2 Bft) 96,55 %
28.05.2016 15:52 25,8 C 58 % 1008,1 hPa 0,0 l/m 4,3 km/h (1 Bft) N-NO 19 1 min 0,000 mm 3,5 UV-I 664 W/m 16,9 C 25,8 C 6,4 km/h (2 Bft) 93,33 %
28.05.2016 15:53 25,7 C 55 % 1008,1 hPa 0,0 l/m 2,4 km/h (1 Bft) N-NO 19 1 min 0,000 mm 3,5 UV-I 679 W/m 16,0 C 25,7 C 3,2 km/h (1 Bft) 95,65 %
28.05.2016 15:54 25,7 C 52 % 1008,1 hPa 0,0 l/m 1,3 km/h (1 Bft) N-NO 14 1 min 0,000 mm 3,5 UV-I 680 W/m 15,1 C 25,7 C 3,2 km/h (1 Bft) 100,00 %
28.05.2016 15:55 25,7 C 60 % 1008,1 hPa 0,0 l/m 5,5 km/h (1 Bft) NO 34 1 min 0,000 mm 3,5 UV-I 679 W/m 17,3 C 25,7 C 9,7 km/h (2 Bft) 96,15 %
28.05.2016 15:56 25,8 C 57 % 1008,1 hPa 0,0 l/m 5,7 km/h (1 Bft) NO 34 1 min 0,000 mm 3,5 UV-I 680 W/m 16,6 C 25,8 C 9,7 km/h (2 Bft) 96,30 %
28.05.2016 15:57 25,8 C 58 % 1008,0 hPa 0,0 l/m 3,5 km/h (1 Bft) O-NO 61 1 min 0,000 mm 3,4 UV-I 675 W/m 16,9 C 25,8 C 4,8 km/h (1 Bft) 100,00 %
28.05.2016 15:58 25,7 C 53 % 1008,0 hPa 0,0 l/m 3,4 km/h (1 Bft) O-NO 61 1 min 0,000 mm 3,4 UV-I 685 W/m 15,4 C 25,7 C 4,8 km/h (1 Bft) 100,00 %
28.05.2016 15:59 25,7 C 59 % 1008,0 hPa 0,0 l/m 2,1 km/h (1 Bft) O-NO 61 1 min 0,000 mm 3,4 UV-I 683 W/m 17,1 C 25,7 C 3,2 km/h (1 Bft) 95,65 %
28.05.2016 16:00 25,7 C 53 % 1008,1 hPa 0,0 l/m 0,9 km/h (0 Bft) O-NO 61 1 min 0,000 mm 3,4 UV-I 684 W/m 15,4 C 25,7 C 1,6 km/h (1 Bft) 96,30 %
28.05.2016 16:02 25,9 C 61 % 1008,0 hPa 0,0 l/m 2,9 km/h (1 Bft) N-NO 20 2 min 0,483 mm 3,4 UV-I 679 W/m 17,8 C 25,9 C 6,4 km/h (2 Bft) 98,00 %
28.05.2016 16:03 25,8 C 62 % 1008,0 hPa 0,0 l/m 4,3 km/h (1 Bft) N-NO 21 1 min 0,000 mm 3,3 UV-I 675 W/m 18,0 C 25,8 C 6,4 km/h (2 Bft) 100,00 %
28.05.2016 16:04 25,8 C 61 % 1008,0 hPa 0,0 l/m 1,3 km/h (1 Bft) N-NO 21 1 min 0,000 mm 3,3 UV-I 613 W/m 17,7 C 25,8 C 3,2 km/h (1 Bft) 96,55 %
28.05.2016 16:05 25,7 C 60 % 1008,0 hPa 0,0 l/m 1,0 km/h (0 Bft) N-NO 17 1 min 0,000 mm 2,9 UV-I 557 W/m 17,3 C 25,7 C 1,6 km/h (1 Bft) 100,00 %
28.05.2016 16:06 25,7 C 55 % 1007,9 hPa 0,0 l/m 0,9 km/h (0 Bft) N-NO 17 1 min 0,000 mm 2,6 UV-I 394 W/m 16,0 C 25,7 C 1,6 km/h (1 Bft) 92,59 %
28.05.2016 16:07 25,7 C 54 % 1007,9 hPa 0,0 l/m 2,9 km/h (1 Bft) W-NW 294 0 min 0,000 mm 2,4 UV-I 237 W/m 15,7 C 25,7 C 6,4 km/h (2 Bft) 95,65 %
28.05.2016 16:08 25,6 C 54 % 1007,9 hPa 0,0 l/m 3,0 km/h (1 Bft) W-NW 296 0 min 0,000 mm 2,9 UV-I 207 W/m 15,6 C 25,6 C 4,8 km/h (1 Bft) 100,00 %
28.05.2016 16:09 25,6 C 55 % 1007,9 hPa 0,0 l/m 1,1 km/h (1 Bft) W-NW 296 0 min 0,000 mm 3,2 UV-I 280 W/m 15,9 C 25,6 C 3,2 km/h (1 Bft) 96,67 %
28.05.2016 16:10 25,6 C 54 % 1007,9 hPa 0,0 l/m 2,5 km/h (1 Bft) NW 319 1 min 0,000 mm 3,2 UV-I 668 W/m 15,6 C 25,6 C 3,2 km/h (1 Bft) 100,00 %
28.05.2016 16:11 25,7 C 56 % 1007,9 hPa 0,0 l/m 5,1 km/h (1 Bft) NO 42 1 min 0,000 mm 3,2 UV-I 665 W/m 16,2 C 25,7 C 9,7 km/h (2 Bft) 100,00 %
28.05.2016 16:12 25,7 C 57 % 1007,9 hPa 0,0 l/m 3,7 km/h (1 Bft) NO 53 1 min 0,000 mm 3,2 UV-I 661 W/m 16,5 C 25,7 C 6,4 km/h (2 Bft) 96,55 %
28.05.2016 16:13 25,8 C 58 % 1007,9 hPa 0,0 l/m 1,9 km/h (1 Bft) NO 55 1 min 0,000 mm 3,2 UV-I 654 W/m 16,9 C 25,8 C 3,2 km/h (1 Bft) 96,30 %
28.05.2016 16:14 25,9 C 57 % 1007,9 hPa 0,0 l/m 2,3 km/h (1 Bft) N 5 1 min 0,000 mm 3,1 UV-I 649 W/m 16,7 C 25,9 C 3,2 km/h (1 Bft) 100,00 %
28.05.2016 16:15 26,0 C 65 % 1007,9 hPa 0,0 l/m 2,1 km/h (1 Bft) N 11 1 min 0,000 mm 3,1 UV-I 641 W/m 18,9 C 26,0 C 3,2 km/h (1 Bft) 92,59 %
28.05.2016 16:16 25,9 C 59 % 1007,8 hPa 0,0 l/m 1,8 km/h (1 Bft) NW 322 1 min 0,000 mm 3,0 UV-I 634 W/m 17,3 C 25,9 C 3,2 km/h (1 Bft) 100,00 %
28.05.2016 16:17 25,8 C 61 % 1007,8 hPa 0,0 l/m 2,3 km/h (1 Bft) N 355 1 min 0,000 mm 3,0 UV-I 630 W/m 17,7 C 25,8 C 4,8 km/h (1 Bft) 96,30 %
28.05.2016 16:18 25,8 C 60 % 1007,8 hPa 0,0 l/m 3,4 km/h (1 Bft) N-NW 327 1 min 0,000 mm 3,0 UV-I 629 W/m 17,4 C 25,8 C 6,4 km/h (2 Bft) 95,65 %
28.05.2016 16:19 25,7 C 56 % 1007,8 hPa 0,0 l/m 2,2 km/h (1 Bft) N-NW 336 1 min 0,000 mm 2,9 UV-I 629 W/m 16,2 C 25,7 C 3,2 km/h (1 Bft) 100,00 %
28.05.2016 16:20 25,7 C 58 % 1007,8 hPa 0,0 l/m 1,2 km/h (1 Bft) N-NW 336 1 min 0,000 mm 2,9 UV-I 629 W/m 16,8 C 25,7 C 3,2 km/h (1 Bft) 95,65 %
28.05.2016 16:21 25,6 C 62 % 1007,8 hPa 0,0 l/m 1,3 km/h (1 Bft) W-NW 296 1 min 0,000 mm 3,0 UV-I 628 W/m 17,8 C 25,6 C 4,8 km/h (1 Bft) 95,83 %
28.05.2016 16:22 25,6 C 59 % 1007,8 hPa 0,0 l/m 2,4 km/h (1 Bft) NW 309 1 min 0,000 mm 2,9 UV-I 627 W/m 17,0 C 25,6 C 3,2 km/h (1 Bft) 100,00 %
28.05.2016 16:23 25,6 C 61 % 1007,8 hPa 0,0 l/m 1,4 km/h (1 Bft) N-NW 344 1 min 0,000 mm 2,9 UV-I 622 W/m 17,5 C 25,6 C 3,2 km/h (1 Bft) 100,00 %
28.05.2016 16:24 25,5 C 57 % 1007,9 hPa 0,0 l/m 2,9 km/h (1 Bft) N 355 1 min 0,000 mm 2,9 UV-I 618 W/m 16,3 C 25,5 C 6,4 km/h (2 Bft) 100,00 %
28.05.2016 16:25 25,5 C 57 % 1007,9 hPa 0,0 l/m 5,2 km/h (1 Bft) N 10 1 min 0,000 mm 2,8 UV-I 614 W/m 16,3 C 25,5 C 12,9 km/h (3 Bft) 100,00 %
28.05.2016 16:26 25,5 C 63 % 1007,9 hPa 0,0 l/m 5,5 km/h (1 Bft) W-NW 297 1 min 0,000 mm 2,8 UV-I 610 W/m 17,9 C 25,5 C 11,3 km/h (2 Bft) 100,00 %
28.05.2016 16:27 25,5 C 59 % 1007,9 hPa 0,0 l/m 3,0 km/h (1 Bft) W-NW 302 1 min 0,000 mm 2,8 UV-I 607 W/m 16,9 C 25,5 C 4,8 km/h (1 Bft) 100,00 %
28.05.2016 16:28 25,6 C 60 % 1007,9 hPa 0,0 l/m 1,9 km/h (1 Bft) N-NW 342 1 min 0,000 mm 2,7 UV-I 601 W/m 17,2 C 25,6 C 3,2 km/h (1 Bft) 100,00 %
28.05.2016 16:29 25,6 C 57 % 1007,9 hPa 0,0 l/m 1,8 km/h (1 Bft) N-NW 342 1 min 0,000 mm 2,7 UV-I 597 W/m 16,4 C 25,6 C 3,2 km/h (1 Bft) 95,65 %
28.05.2016 16:30 25,7 C 58 % 1007,9 hPa 0,0 l/m 1,4 km/h (1 Bft) N-NW 348 1 min 0,000 mm 2,7 UV-I 592 W/m 16,8 C 25,7 C 3,2 km/h (1 Bft) 100,00 %
28.05.2016 16:31 25,8 C 58 % 1007,9 hPa 0,0 l/m 10,4 km/h (2 Bft) N 5 1 min 0,000 mm 2,7 UV-I 594 W/m 16,9 C 25,0 C 14,5 km/h (3 Bft) 100,00 %
28.05.2016 16:32 25,8 C 60 % 1007,9 hPa 0,0 l/m 7,4 km/h (2 Bft) N-NO 16 1 min 0,000 mm 2,6 UV-I 591 W/m 17,4 C 25,6 C 12,9 km/h (3 Bft) 100,00 %
28.05.2016 16:33 25,8 C 61 % 1007,9 hPa 0,0 l/m 6,1 km/h (2 Bft) N-NO 17 1 min 0,000 mm 2,6 UV-I 591 W/m 17,7 C 25,8 C 14,5 km/h (3 Bft) 100,00 %
28.05.2016 16:34 25,7 C 59 % 1007,9 hPa 0,0 l/m 1,1 km/h (1 Bft) NW 319 1 min 0,000 mm 2,6 UV-I 588 W/m 17,1 C 25,7 C 1,6 km/h (1 Bft) 100,00 %
28.05.2016 16:35 25,7 C 62 % 1007,9 hPa 0,0 l/m 6,2 km/h (2 Bft) N-NO 24 1 min 0,000 mm 2,6 UV-I 585 W/m 17,9 C 25,7 C 12,9 km/h (3 Bft) 100,00 %
28.05.2016 16:36 25,6 C 60 % 1007,9 hPa 0,0 l/m 4,8 km/h (1 Bft) N-NO 21 1 min 0,000 mm 2,5 UV-I 581 W/m 17,2 C 25,6 C 8,0 km/h (2 Bft) 96,30 %
28.05.2016 16:37 25,6 C 63 % 1007,9 hPa 0,0 l/m 5,3 km/h (1 Bft) NO 36 1 min 0,000 mm 2,5 UV-I 578 W/m 18,0 C 25,6 C 8,0 km/h (2 Bft) 100,00 %
28.05.2016 16:38 25,6 C 61 % 1007,8 hPa 0,0 l/m 4,0 km/h (1 Bft) N 5 1 min 0,000 mm 2,5 UV-I 575 W/m 17,5 C 25,6 C 6,4 km/h (2 Bft) 100,00 %
28.05.2016 16:39 25,6 C 61 % 1007,8 hPa 0,0 l/m 2,5 km/h (1 Bft) N-NW 338 1 min 0,000 mm 2,5 UV-I 573 W/m 17,5 C 25,6 C 4,8 km/h (1 Bft) 100,00 %
28.05.2016 16:40 25,6 C 62 % 1007,8 hPa 0,0 l/m 2,6 km/h (1 Bft) N 351 1 min 0,000 mm 2,5 UV-I 576 W/m 17,8 C 25,6 C 4,8 km/h (1 Bft) 100,00 %
28.05.2016 16:41 25,7 C 63 % 1007,8 hPa 0,0 l/m 2,1 km/h (1 Bft) N-NO 26 1 min 0,000 mm 2,5 UV-I 571 W/m 18,1 C 25,7 C 3,2 km/h (1 Bft) 100,00 %
28.05.2016 16:42 25,7 C 61 % 1007,8 hPa 0,0 l/m 1,4 km/h (1 Bft) N-NO 14 1 min 0,000 mm 2,4 UV-I 569 W/m 17,6 C 25,7 C 1,6 km/h (1 Bft) 100,00 %
28.05.2016 16:43 25,6 C 62 % 1007,8 hPa 0,0 l/m 4,2 km/h (1 Bft) N-NO 18 1 min 0,000 mm 2,4 UV-I 568 W/m 17,8 C 25,6 C 9,7 km/h (2 Bft) 100,00 %
28.05.2016 16:44 25,6 C 63 % 1007,8 hPa 0,0 l/m 5,1 km/h (1 Bft) N-NW 338 1 min 0,000 mm 2,4 UV-I 564 W/m 18,0 C 25,6 C 8,0 km/h (2 Bft) 100,00 %
28.05.2016 16:45 25,6 C 63 % 1007,8 hPa 0,0 l/m 2,5 km/h (1 Bft) N-NW 337 1 min 0,000 mm 2,4 UV-I 564 W/m 18,0 C 25,6 C 3,2 km/h (1 Bft) 93,33 %
28.05.2016 16:46 25,5 C 60 % 1007,7 hPa 0,0 l/m 4,1 km/h (1 Bft) N-NO 18 1 min 0,000 mm 2,3 UV-I 563 W/m 17,2 C 25,5 C 6,4 km/h (2 Bft) 100,00 %
28.05.2016 16:47 25,5 C 57 % 1007,7 hPa 0,0 l/m 3,3 km/h (1 Bft) N-NO 30 1 min 0,000 mm 2,3 UV-I 563 W/m 16,3 C 25,5 C 6,4 km/h (2 Bft) 100,00 %
28.05.2016 16:48 25,5 C 59 % 1007,7 hPa 0,0 l/m 5,0 km/h (1 Bft) NO 34 1 min 0,000 mm 2,3 UV-I 560 W/m 16,9 C 25,5 C 8,0 km/h (2 Bft) 100,00 %
28.05.2016 16:49 25,6 C 63 % 1007,7 hPa 0,0 l/m 3,4 km/h (1 Bft) N 355 1 min 0,000 mm 2,2 UV-I 552 W/m 18,0 C 25,6 C 8,0 km/h (2 Bft) 100,00 %
28.05.2016 16:50 25,6 C 57 % 1007,7 hPa 0,0 l/m 4,5 km/h (1 Bft) N-NW 345 1 min 0,000 mm 2,2 UV-I 545 W/m 16,4 C 25,6 C 8,0 km/h (2 Bft) 100,00 %
28.05.2016 16:51 25,5 C 61 % 1007,8 hPa 0,0 l/m 6,5 km/h (2 Bft) NO 36 1 min 0,000 mm 2,2 UV-I 537 W/m 17,4 C 25,5 C 12,9 km/h (3 Bft) 96,30 %
28.05.2016 16:52 25,5 C 60 % 1007,7 hPa 0,0 l/m 6,7 km/h (2 Bft) NO 38 1 min 0,000 mm 2,2 UV-I 534 W/m 17,2 C 25,4 C 8,0 km/h (2 Bft) 100,00 %
28.05.2016 16:53 25,5 C 60 % 1007,7 hPa 0,0 l/m 6,7 km/h (2 Bft) NO 42 1 min 0,000 mm 2,2 UV-I 539 W/m 17,2 C 25,4 C 9,7 km/h (2 Bft) 100,00 %
28.05.2016 16:54 25,5 C 59 % 1007,7 hPa 0,0 l/m 8,4 km/h (2 Bft) N-NO 28 1 min 0,000 mm 2,2 UV-I 539 W/m 16,9 C 25,0 C 11,3 km/h (2 Bft) 98,50 %
28.05.2016 16:55 25,5 C 59 % 1007,8 hPa 0,0 l/m 5,7 km/h (1 Bft) NO 44 1 min 0,000 mm 2,2 UV-I 541 W/m 16,9 C 25,5 C 8,0 km/h (2 Bft) 100,00 %
28.05.2016 16:56 25,6 C 59 % 1007,8 hPa 0,0 l/m 6,0 km/h (2 Bft) O-NO 59 1 min 0,000 mm 2,2 UV-I 541 W/m 17,0 C 25,6 C 8,0 km/h (2 Bft) 100,00 %
28.05.2016 16:57 25,7 C 59 % 1007,7 hPa 0,0 l/m 4,5 km/h (1 Bft) NO 50 1 min 0,000 mm 2,1 UV-I 540 W/m 17,1 C 25,7 C 6,4 km/h (2 Bft) 100,00 %
28.05.2016 16:58 25,8 C 60 % 1007,7 hPa 0,0 l/m 4,1 km/h (1 Bft) NO 50 1 min 0,000 mm 2,1 UV-I 538 W/m 17,4 C 25,8 C 6,4 km/h (2 Bft) 100,00 %
28.05.2016 16:59 25,9 C 61 % 1007,7 hPa 0,0 l/m 4,4 km/h (1 Bft) N-NO 30 1 min 0,000 mm 2,1 UV-I 535 W/m 17,8 C 25,9 C 6,4 km/h (2 Bft) 100,00 %
28.05.2016 17:00 25,9 C 60 % 1007,7 hPa 0,0 l/m 3,4 km/h (1 Bft) NO 51 1 min 0,000 mm 2,1 UV-I 539 W/m 17,5 C 25,9 C 6,4 km/h (2 Bft) 100,00 %
28.05.2016 17:02 26,0 C 59 % 1007,7 hPa 0,0 l/m 4,3 km/h (1 Bft) NO 46 2 min 0,381 mm 2,1 UV-I 534 W/m 17,4 C 26,0 C 8,0 km/h (2 Bft) 97,44 %
28.05.2016 17:03 25,9 C 61 % 1007,6 hPa 0,0 l/m 1,3 km/h (1 Bft) NO 43 1 min 0,000 mm 2,0 UV-I 526 W/m 17,8 C 25,9 C 3,2 km/h (1 Bft) 100,00 %
28.05.2016 17:04 25,9 C 59 % 1007,6 hPa 0,0 l/m 3,9 km/h (1 Bft) N 5 1 min 0,000 mm 2,0 UV-I 495 W/m 17,3 C 25,9 C 8,0 km/h (2 Bft) 100,00 %
28.05.2016 17:05 25,8 C 61 % 1007,6 hPa 0,0 l/m 5,7 km/h (1 Bft) N-NO 22 1 min 0,000 mm 1,9 UV-I 484 W/m 17,7 C 25,8 C 12,9 km/h (3 Bft) 100,00 %
28.05.2016 17:06 25,8 C 58 % 1007,6 hPa 0,0 l/m 11,2 km/h (2 Bft) NO 37 1 min 0,000 mm 1,9 UV-I 479 W/m 16,9 C 24,8 C 14,5 km/h (3 Bft) 93,33 %
28.05.2016 17:07 25,7 C 57 % 1007,6 hPa 0,0 l/m 6,9 km/h (2 Bft) NO 52 1 min 0,000 mm 1,9 UV-I 489 W/m 16,5 C 25,6 C 9,7 km/h (2 Bft) 100,00 %
28.05.2016 17:08 25,7 C 57 % 1007,6 hPa 0,0 l/m 5,6 km/h (1 Bft) NO 43 1 min 0,000 mm 1,8 UV-I 466 W/m 16,5 C 25,7 C 6,4 km/h (2 Bft) 100,00 %
28.05.2016 17:09 25,7 C 58 % 1007,6 hPa 0,0 l/m 1,9 km/h (1 Bft) N 351 1 min 0,000 mm 1,8 UV-I 422 W/m 16,8 C 25,7 C 4,8 km/h (1 Bft) 100,00 %
28.05.2016 17:10 25,7 C 57 % 1007,5 hPa 0,0 l/m 2,5 km/h (1 Bft) N-NW 344 1 min 0,000 mm 1,7 UV-I 416 W/m 16,5 C 25,7 C 4,8 km/h (1 Bft) 100,00 %
28.05.2016 17:11 25,6 C 60 % 1007,5 hPa 0,0 l/m 2,0 km/h (1 Bft) N 5 1 min 0,000 mm 1,7 UV-I 410 W/m 17,2 C 25,6 C 3,2 km/h (1 Bft) 100,00 %
28.05.2016 17:12 25,7 C 59 % 1007,5 hPa 0,0 l/m 2,4 km/h (1 Bft) N 5 1 min 0,000 mm 1,6 UV-I 404 W/m 17,1 C 25,7 C 3,2 km/h (1 Bft) 100,00 %
28.05.2016 17:13 25,7 C 56 % 1007,5 hPa 0,0 l/m 3,0 km/h (1 Bft) N 5 1 min 0,000 mm 1,6 UV-I 385 W/m 16,2 C 25,7 C 4,8 km/h (1 Bft) 100,00 %
28.05.2016 17:14 25,7 C 54 % 1007,5 hPa 0,0 l/m 1,7 km/h (1 Bft) N 5 1 min 0,000 mm 1,6 UV-I 406 W/m 15,7 C 25,7 C 3,2 km/h (1 Bft) 96,30 %
28.05.2016 17:15 25,7 C 56 % 1007,5 hPa 0,0 l/m 4,6 km/h (1 Bft) N 5 1 min 0,000 mm 1,6 UV-I 401 W/m 16,2 C 25,7 C 12,9 km/h (3 Bft) 100,00 %
28.05.2016 17:16 25,7 C 57 % 1007,5 hPa 0,0 l/m 4,2 km/h (1 Bft) N-NO 19 1 min 0,000 mm 1,6 UV-I 407 W/m 16,5 C 25,7 C 6,4 km/h (2 Bft) 100,00 %
28.05.2016 17:17 25,6 C 59 % 1007,4 hPa 0,0 l/m 5,2 km/h (1 Bft) NO 38 1 min 0,000 mm 1,5 UV-I 371 W/m 17,0 C 25,6 C 8,0 km/h (2 Bft) 100,00 %
28.05.2016 17:18 25,5 C 62 % 1007,4 hPa 0,0 l/m 3,0 km/h (1 Bft) N-NO 25 1 min 0,000 mm 1,5 UV-I 397 W/m 17,7 C 25,5 C 4,8 km/h (1 Bft) 100,00 %
28.05.2016 17:19 25,4 C 63 % 1007,3 hPa 0,0 l/m 3,5 km/h (1 Bft) NO 34 1 min 0,000 mm 1,5 UV-I 399 W/m 17,8 C 25,4 C 9,7 km/h (2 Bft) 100,00 %
28.05.2016 17:20 25,3 C 62 % 1007,3 hPa 0,0 l/m 6,0 km/h (2 Bft) N-NO 24 1 min 0,000 mm 1,5 UV-I 384 W/m 17,5 C 25,3 C 12,9 km/h (3 Bft) 95,83 %
28.05.2016 17:21 25,3 C 63 % 1007,3 hPa 0,0 l/m 7,6 km/h (2 Bft) NO 49 1 min 0,000 mm 1,4 UV-I 365 W/m 17,7 C 25,0 C 11,3 km/h (2 Bft) 96,15 %
28.05.2016 17:22 25,3 C 61 % 1007,3 hPa 0,0 l/m 3,7 km/h (1 Bft) NO 44 1 min 0,000 mm 1,4 UV-I 340 W/m 17,2 C 25,3 C 6,4 km/h (2 Bft) 100,00 %
28.05.2016 17:23 25,3 C 59 % 1007,3 hPa 0,0 l/m 4,5 km/h (1 Bft) N-NO 13 1 min 0,000 mm 1,3 UV-I 326 W/m 16,7 C 25,3 C 4,8 km/h (1 Bft) 100,00 %
28.05.2016 17:24 25,3 C 59 % 1007,3 hPa 0,0 l/m 6,0 km/h (2 Bft) N-NO 29 1 min 0,000 mm 1,3 UV-I 305 W/m 16,7 C 25,3 C 8,0 km/h (2 Bft) 100,00 %
28.05.2016 17:25 25,3 C 62 % 1007,3 hPa 0,0 l/m 8,1 km/h (2 Bft) NO 45 1 min 0,000 mm 1,3 UV-I 294 W/m 17,5 C 24,9 C 11,3 km/h (2 Bft) 100,00 %
28.05.2016 17:26 25,2 C 60 % 1007,2 hPa 0,0 l/m 8,9 km/h (2 Bft) NO 38 1 min 0,000 mm 1,3 UV-I 335 W/m 16,9 C 24,6 C 11,3 km/h (2 Bft) 100,00 %
28.05.2016 17:27 25,2 C 60 % 1007,3 hPa 0,0 l/m 6,0 km/h (2 Bft) N-NO 27 1 min 0,000 mm 1,3 UV-I 360 W/m 16,9 C 25,2 C 9,7 km/h (2 Bft) 100,00 %
28.05.2016 17:28 25,1 C 60 % 1007,2 hPa 0,0 l/m 5,2 km/h (1 Bft) N 11 1 min 0,000 mm 1,3 UV-I 335 W/m 16,8 C 25,1 C 11,3 km/h (2 Bft) 95,65 %
28.05.2016 17:29 25,1 C 60 % 1007,1 hPa 0,0 l/m 2,2 km/h (1 Bft) N-NO 21 1 min 0,000 mm 1,2 UV-I 349 W/m 16,8 C 25,1 C 3,2 km/h (1 Bft) 100,00 %
28.05.2016 17:30 25,1 C 63 % 1007,1 hPa 0,0 l/m 7,1 km/h (2 Bft) N 355 1 min 0,000 mm 1,2 UV-I 303 W/m 17,5 C 24,9 C 11,3 km/h (2 Bft) 100,00 %
28.05.2016 17:31 25,0 C 61 % 1007,1 hPa 0,0 l/m 6,8 km/h (2 Bft) N-NO 21 0 min 0,000 mm 1,2 UV-I 275 W/m 16,9 C 24,9 C 12,9 km/h (3 Bft) 100,00 %
28.05.2016 17:32 24,9 C 61 % 1007,1 hPa 0,0 l/m 2,6 km/h (1 Bft) N-NO 17 1 min 0,000 mm 1,2 UV-I 289 W/m 16,8 C 24,9 C 4,8 km/h (1 Bft) 96,15 %
28.05.2016 17:33 24,9 C 62 % 1007,1 hPa 0,0 l/m 3,5 km/h (1 Bft) N-NO 30 1 min 0,000 mm 1,2 UV-I 312 W/m 17,1 C 24,9 C 8,0 km/h (2 Bft) 100,00 %
28.05.2016 17:34 24,8 C 64 % 1007,1 hPa 0,0 l/m 2,8 km/h (1 Bft) N-NO 30 1 min 0,000 mm 1,2 UV-I 367 W/m 17,5 C 24,8 C 6,4 km/h (2 Bft) 95,65 %
28.05.2016 17:35 24,8 C 66 % 1007,1 hPa 0,0 l/m 5,2 km/h (1 Bft) N-NO 33 1 min 0,000 mm 1,3 UV-I 437 W/m 18,0 C 24,8 C 8,0 km/h (2 Bft) 91,67 %
28.05.2016 17:36 24,9 C 64 % 1007,1 hPa 0,0 l/m 6,5 km/h (2 Bft) NO 43 1 min 0,000 mm 1,3 UV-I 446 W/m 17,6 C 24,9 C 9,7 km/h (2 Bft) 100,00 %
28.05.2016 17:37 24,9 C 64 % 1007,2 hPa 0,0 l/m 7,3 km/h (2 Bft) O-NO 63 1 min 0,000 mm 1,3 UV-I 490 W/m 17,6 C 24,7 C 12,9 km/h (3 Bft) 100,00 %
28.05.2016 17:38 25,1 C 62 % 1007,2 hPa 0,0 l/m 6,0 km/h (2 Bft) O-NO 71 1 min 0,000 mm 1,4 UV-I 499 W/m 17,3 C 25,1 C 9,7 km/h (2 Bft) 100,00 %
28.05.2016 17:39 25,3 C 58 % 1007,2 hPa 0,0 l/m 8,6 km/h (2 Bft) NO 44 1 min 0,000 mm 1,4 UV-I 502 W/m 16,4 C 24,8 C 11,3 km/h (2 Bft) 96,15 %
28.05.2016 17:40 25,4 C 62 % 1007,2 hPa 0,0 l/m 10,2 km/h (2 Bft) N-NO 21 1 min 0,000 mm 1,4 UV-I 503 W/m 17,6 C 24,6 C 14,5 km/h (3 Bft) 100,00 %
28.05.2016 17:41 25,5 C 61 % 1007,1 hPa 0,0 l/m 6,4 km/h (2 Bft) NO 35 1 min 0,000 mm 1,4 UV-I 500 W/m 17,4 C 25,5 C 9,7 km/h (2 Bft) 92,86 %
28.05.2016 17:42 25,5 C 60 % 1007,2 hPa 0,0 l/m 9,7 km/h (2 Bft) NO 40 1 min 0,000 mm 1,3 UV-I 489 W/m 17,2 C 24,8 C 12,9 km/h (3 Bft) 100,00 %
28.05.2016 17:43 25,5 C 59 % 1007,2 hPa 0,0 l/m 10,5 km/h (2 Bft) NO 41 1 min 0,000 mm 1,3 UV-I 496 W/m 16,9 C 24,6 C 14,5 km/h (3 Bft) 96,88 %
28.05.2016 17:44 25,5 C 59 % 1007,2 hPa 0,0 l/m 6,2 km/h (2 Bft) N-NO 19 1 min 0,000 mm 1,3 UV-I 492 W/m 16,9 C 25,5 C 8,0 km/h (2 Bft) 95,83 %
28.05.2016 17:45 25,5 C 60 % 1007,2 hPa 0,0 l/m 9,3 km/h (2 Bft) N 11 1 min 0,000 mm 1,3 UV-I 477 W/m 17,2 C 24,9 C 12,9 km/h (3 Bft) 100,00 %
28.05.2016 17:46 25,4 C 58 % 1007,2 hPa 0,0 l/m 10,5 km/h (2 Bft) N-NO 23 1 min 0,000 mm 1,2 UV-I 462 W/m 16,5 C 24,5 C 14,5 km/h (3 Bft) 96,67 %
28.05.2016 17:47 25,4 C 60 % 1007,2 hPa 0,0 l/m 6,7 km/h (2 Bft) N-NW 344 1 min 0,000 mm 1,2 UV-I 382 W/m 17,1 C 25,3 C 12,9 km/h (3 Bft) 100,00 %
28.05.2016 17:48 25,3 C 60 % 1007,2 hPa 0,0 l/m 8,8 km/h (2 Bft) NO 47 1 min 0,000 mm 1,1 UV-I 351 W/m 17,0 C 24,7 C 11,3 km/h (2 Bft) 95,83 %
28.05.2016 17:49 25,2 C 58 % 1007,1 hPa 0,0 l/m 9,1 km/h (2 Bft) N-NO 29 1 min 0,000 mm 1,1 UV-I 360 W/m 16,3 C 24,6 C 14,5 km/h (3 Bft) 100,00 %
28.05.2016 17:50 25,2 C 59 % 1007,2 hPa 0,0 l/m 8,9 km/h (2 Bft) NO 42 1 min 0,000 mm 1,1 UV-I 367 W/m 16,6 C 24,6 C 11,3 km/h (2 Bft) 86,67 %
28.05.2016 17:51 25,2 C 58 % 1007,2 hPa 0,0 l/m 7,9 km/h (2 Bft) NO 51 1 min 0,000 mm 1,0 UV-I 367 W/m 16,3 C 24,8 C 12,9 km/h (3 Bft) 100,00 %
28.05.2016 17:52 25,2 C 59 % 1007,2 hPa 0,0 l/m 8,0 km/h (2 Bft) N-NO 17 1 min 0,000 mm 1,1 UV-I 432 W/m 16,6 C 24,8 C 12,9 km/h (3 Bft) 96,30 %
28.05.2016 17:53 25,2 C 58 % 1007,2 hPa 0,0 l/m 5,3 km/h (1 Bft) N-NO 22 1 min 0,000 mm 1,1 UV-I 478 W/m 16,3 C 25,2 C 11,3 km/h (2 Bft) 95,65 %
28.05.2016 17:54 25,3 C 61 % 1007,2 hPa 0,0 l/m 5,0 km/h (1 Bft) O-NO 66 1 min 0,000 mm 1,1 UV-I 511 W/m 17,2 C 25,3 C 8,0 km/h (2 Bft) 100,00 %
28.05.2016 17:55 25,4 C 58 % 1007,3 hPa 0,0 l/m 6,9 km/h (2 Bft) NO 42 1 min 0,000 mm 1,1 UV-I 538 W/m 16,5 C 25,3 C 9,7 km/h (2 Bft) 96,15 %
28.05.2016 17:56 25,6 C 57 % 1007,3 hPa 0,0 l/m 6,0 km/h (2 Bft) N-NO 28 1 min 0,000 mm 1,1 UV-I 548 W/m 16,4 C 25,6 C 8,0 km/h (2 Bft) 100,00 %
28.05.2016 17:57 25,7 C 58 % 1007,3 hPa 0,0 l/m 8,6 km/h (2 Bft) N-NO 21 1 min 0,000 mm 1,1 UV-I 555 W/m 16,8 C 25,2 C 9,7 km/h (2 Bft) 94,12 %
28.05.2016 17:58 25,8 C 54 % 1007,3 hPa 0,0 l/m 6,3 km/h (2 Bft) O-NO 61 1 min 0,000 mm 1,1 UV-I 555 W/m 15,8 C 25,8 C 8,0 km/h (2 Bft) 100,00 %
28.05.2016 17:59 25,9 C 52 % 1007,3 hPa 0,0 l/m 6,7 km/h (2 Bft) NO 43 1 min 0,000 mm 0,9 UV-I 355 W/m 15,3 C 25,8 C 8,0 km/h (2 Bft) 94,44 %
28.05.2016 18:00 26,0 C 54 % 1007,4 hPa 0,0 l/m 10,0 km/h (2 Bft) NO 41 1 min 0,000 mm 0,9 UV-I 379 W/m 16,0 C 25,3 C 11,3 km/h (2 Bft) 96,15 %
28.05.2016 18:02 25,8 C 54 % 1007,4 hPa 0,0 l/m 6,9 km/h (2 Bft) NO 43 2 min 0,304 mm 0,8 UV-I 347 W/m 15,8 C 25,7 C 9,7 km/h (2 Bft) 98,11 %
28.05.2016 18:03 25,7 C 54 % 1007,4 hPa 0,0 l/m 6,5 km/h (2 Bft) N-NO 19 1 min 0,000 mm 0,8 UV-I 283 W/m 15,7 C 25,7 C 11,3 km/h (2 Bft) 100,00 %
28.05.2016 18:04 25,6 C 55 % 1007,4 hPa 0,0 l/m 7,7 km/h (2 Bft) NO 35 1 min 0,000 mm 0,7 UV-I 259 W/m 15,9 C 25,3 C 11,3 km/h (2 Bft) 90,91 %
28.05.2016 18:05 25,4 C 55 % 1007,3 hPa 0,0 l/m 7,5 km/h (2 Bft) NO 41 1 min 0,000 mm 0,6 UV-I 234 W/m 15,7 C 25,1 C 11,3 km/h (2 Bft) 100,00 %
28.05.2016 18:06 25,3 C 56 % 1007,4 hPa 0,0 l/m 5,4 km/h (1 Bft) NO 51 0 min 0,000 mm 0,6 UV-I 201 W/m 15,9 C 25,3 C 8,0 km/h (2 Bft) 95,65 %
28.05.2016 18:07 25,2 C 57 % 1007,3 hPa 0,0 l/m 6,1 km/h (2 Bft) O-NO 76 0 min 0,000 mm 0,6 UV-I 201 W/m 16,1 C 25,2 C 8,0 km/h (2 Bft) 100,00 %
28.05.2016 18:08 25,1 C 57 % 1007,3 hPa 0,0 l/m 8,0 km/h (2 Bft) NO 49 0 min 0,000 mm 0,6 UV-I 196 W/m 16,0 C 24,7 C 14,5 km/h (3 Bft) 96,15 %
28.05.2016 18:09 25,1 C 55 % 1007,3 hPa 0,0 l/m 7,6 km/h (2 Bft) O-NO 59 0 min 0,000 mm 0,6 UV-I 193 W/m 15,4 C 24,8 C 9,7 km/h (2 Bft) 100,00 %
28.05.2016 18:10 25,2 C 54 % 1007,3 hPa 0,0 l/m 7,7 km/h (2 Bft) NO 49 0 min 0,000 mm 0,6 UV-I 192 W/m 15,2 C 24,9 C 11,3 km/h (2 Bft) 96,55 %
28.05.2016 18:11 25,2 C 53 % 1007,3 hPa 0,0 l/m 9,0 km/h (2 Bft) NO 53 0 min 0,000 mm 0,6 UV-I 192 W/m 14,9 C 24,6 C 11,3 km/h (2 Bft) 100,00 %
28.05.2016 18:12 25,3 C 52 % 1007,3 hPa 0,0 l/m 7,5 km/h (2 Bft) NO 56 0 min 0,000 mm 0,6 UV-I 192 W/m 14,7 C 25,0 C 11,3 km/h (2 Bft) 100,00 %
28.05.2016 18:13 25,3 C 52 % 1007,2 hPa 0,0 l/m 8,4 km/h (2 Bft) NO 47 0 min 0,000 mm 0,6 UV-I 195 W/m 14,7 C 24,8 C 12,9 km/h (3 Bft) 100,00 %
28.05.2016 18:14 25,4 C 53 % 1007,2 hPa 0,0 l/m 5,8 km/h (2 Bft) O-NO 57 0 min 0,000 mm 0,6 UV-I 198 W/m 15,1 C 25,4 C 8,0 km/h (2 Bft) 96,15 %
28.05.2016 18:15 25,3 C 55 % 1007,2 hPa 0,0 l/m 4,3 km/h (1 Bft) O-NO 57 0 min 0,000 mm 0,6 UV-I 198 W/m 15,6 C 25,3 C 6,4 km/h (2 Bft) 100,00 %
28.05.2016 18:16 25,3 C 57 % 1007,2 hPa 0,0 l/m 5,3 km/h (1 Bft) NO 44 0 min 0,000 mm 0,6 UV-I 194 W/m 16,2 C 25,3 C 9,7 km/h (2 Bft) 96,15 %
28.05.2016 18:17 25,2 C 59 % 1007,2 hPa 0,0 l/m 6,9 km/h (2 Bft) O-NO 57 0 min 0,000 mm 0,6 UV-I 186 W/m 16,6 C 25,1 C 9,7 km/h (2 Bft) 100,00 %
28.05.2016 18:18 25,1 C 58 % 1007,2 hPa 0,0 l/m 4,9 km/h (1 Bft) NO 36 0 min 0,000 mm 0,6 UV-I 177 W/m 16,2 C 25,1 C 6,4 km/h (2 Bft) 100,00 %
28.05.2016 18:19 25,0 C 61 % 1007,2 hPa 0,0 l/m 3,9 km/h (1 Bft) NO 36 0 min 0,000 mm 0,6 UV-I 172 W/m 16,9 C 25,0 C 4,8 km/h (1 Bft) 100,00 %
28.05.2016 18:20 24,9 C 59 % 1007,2 hPa 0,0 l/m 5,5 km/h (1 Bft) O-NO 68 0 min 0,000 mm 0,5 UV-I 168 W/m 16,3 C 24,9 C 9,7 km/h (2 Bft) 96,55 %
28.05.2016 18:21 24,8 C 59 % 1007,2 hPa 0,0 l/m 5,7 km/h (1 Bft) O-NO 72 0 min 0,000 mm 0,5 UV-I 168 W/m 16,2 C 24,8 C 9,7 km/h (2 Bft) 100,00 %
28.05.2016 18:22 24,9 C 58 % 1007,2 hPa 0,0 l/m 7,3 km/h (2 Bft) NO 51 0 min 0,000 mm 0,5 UV-I 170 W/m 16,1 C 24,7 C 9,7 km/h (2 Bft) 100,00 %
28.05.2016 18:23 24,9 C 58 % 1007,1 hPa 0,0 l/m 5,9 km/h (2 Bft) O-NO 57 0 min 0,000 mm 0,5 UV-I 171 W/m 16,1 C 24,9 C 8,0 km/h (2 Bft) 100,00 %
28.05.2016 18:24 24,9 C 57 % 1007,0 hPa 0,0 l/m 5,1 km/h (1 Bft) NO 45 0 min 0,000 mm 0,5 UV-I 174 W/m 15,8 C 24,9 C 8,0 km/h (2 Bft) 100,00 %
28.05.2016 18:25 25,0 C 56 % 1007,1 hPa 0,0 l/m 5,8 km/h (2 Bft) NO 36 0 min 0,000 mm 0,5 UV-I 174 W/m 15,6 C 25,0 C 8,0 km/h (2 Bft) 100,00 %
28.05.2016 18:26 25,0 C 58 % 1007,0 hPa 0,0 l/m 4,6 km/h (1 Bft) O-NO 61 0 min 0,000 mm 0,5 UV-I 174 W/m 16,1 C 25,0 C 6,4 km/h (2 Bft) 100,00 %
28.05.2016 18:27 24,9 C 58 % 1007,0 hPa 0,0 l/m 2,7 km/h (1 Bft) O-NO 61 0 min 0,000 mm 0,5 UV-I 174 W/m 16,1 C 24,9 C 4,8 km/h (1 Bft) 100,00 %
28.05.2016 18:28 24,9 C 59 % 1007,1 hPa 0,0 l/m 2,5 km/h (1 Bft) O-NO 61 0 min 0,000 mm 0,5 UV-I 178 W/m 16,3 C 24,9 C 3,2 km/h (1 Bft) 95,83 %
28.05.2016 18:29 24,9 C 61 % 1007,1 hPa 0,0 l/m 2,3 km/h (1 Bft) O-NO 61 1 min 0,000 mm 0,5 UV-I 244 W/m 16,8 C 24,9 C 3,2 km/h (1 Bft) 100,00 %
28.05.2016 18:30 24,9 C 62 % 1007,1 hPa 0,0 l/m 4,0 km/h (1 Bft) O-NO 61 1 min 0,000 mm 0,5 UV-I 276 W/m 17,1 C 24,9 C 4,8 km/h (1 Bft) 100,00 %
28.05.2016 18:31 24,9 C 60 % 1007,0 hPa 0,0 l/m 4,0 km/h (1 Bft) NO 43 1 min 0,000 mm 0,5 UV-I 364 W/m 16,6 C 24,9 C 4,8 km/h (1 Bft) 100,00 %
28.05.2016 18:32 24,9 C 62 % 1007,1 hPa 0,0 l/m 4,3 km/h (1 Bft) NO 44 1 min 0,000 mm 0,5 UV-I 278 W/m 17,1 C 24,9 C 6,4 km/h (2 Bft) 95,83 %
28.05.2016 18:33 25,0 C 61 % 1007,0 hPa 0,0 l/m 4,4 km/h (1 Bft) NO 46 0 min 0,000 mm 0,5 UV-I 182 W/m 16,9 C 25,0 C 4,8 km/h (1 Bft) 100,00 %
28.05.2016 18:34 24,9 C 59 % 1007,0 hPa 0,0 l/m 4,0 km/h (1 Bft) NO 51 0 min 0,000 mm 0,5 UV-I 179 W/m 16,3 C 24,9 C 6,4 km/h (2 Bft) 95,83 %
28.05.2016 18:35 24,9 C 58 % 1007,0 hPa 0,0 l/m 4,8 km/h (1 Bft) N-NO 33 0 min 0,000 mm 0,2 UV-I 178 W/m 16,1 C 24,9 C 6,4 km/h (2 Bft) 100,00 %
28.05.2016 18:37 24,9 C 59 % 1007,0 hPa 0,0 l/m 4,2 km/h (1 Bft) NO 51 0 min 0,000 mm 0,0 UV-I 181 W/m 16,3 C 24,9 C 6,4 km/h (2 Bft) 98,08 %
28.05.2016 18:38 24,9 C 58 % 1007,0 hPa 0,0 l/m 3,2 km/h (1 Bft) NO 46 1 min 0,000 mm 0,0 UV-I 188 W/m 16,1 C 24,9 C 4,8 km/h (1 Bft) 100,00 %
28.05.2016 18:39 24,9 C 60 % 1007,0 hPa 0,0 l/m 4,2 km/h (1 Bft) NO 46 1 min 0,000 mm 0,0 UV-I 198 W/m 16,6 C 24,9 C 6,4 km/h (2 Bft) 93,33 %
28.05.2016 18:40 24,8 C 61 % 1007,0 hPa 0,0 l/m 3,9 km/h (1 Bft) NO 46 1 min 0,000 mm 0,0 UV-I 204 W/m 16,8 C 24,8 C 4,8 km/h (1 Bft) 100,00 %
28.05.2016 18:41 24,8 C 62 % 1007,0 hPa 0,0 l/m 3,3 km/h (1 Bft) NO 46 1 min 0,000 mm 0,0 UV-I 207 W/m 17,0 C 24,8 C 4,8 km/h (1 Bft) 100,00 %
28.05.2016 18:42 24,8 C 61 % 1007,0 hPa 0,0 l/m 1,2 km/h (1 Bft) NO 46 1 min 0,000 mm 0,0 UV-I 210 W/m 16,8 C 24,8 C 3,2 km/h (1 Bft) 96,15 %
28.05.2016 18:43 24,8 C 62 % 1007,0 hPa 0,0 l/m 0,4 km/h (0 Bft) NO 46 1 min 0,000 mm 0,0 UV-I 236 W/m 17,0 C 24,8 C 1,6 km/h (1 Bft) 100,00 %
28.05.2016 18:44 24,8 C 63 % 1007,0 hPa 0,0 l/m 0,0 km/h (0 Bft) NO 46 1 min 0,000 mm 0,0 UV-I 288 W/m 17,3 C 24,8 C 0,0 km/h (0 Bft) 100,00 %
28.05.2016 18:45 24,8 C 63 % 1007,0 hPa 0,0 l/m 0,0 km/h (0 Bft) NO 46 1 min 0,000 mm 0,0 UV-I 299 W/m 17,3 C 24,8 C 0,0 km/h (0 Bft) 100,00 %
28.05.2016 18:46 24,8 C 63 % 1007,0 hPa 0,0 l/m 0,7 km/h (0 Bft) NO 46 1 min 0,000 mm 0,0 UV-I 267 W/m 17,3 C 24,8 C 1,6 km/h (1 Bft) 95,65 %
28.05.2016 18:47 24,9 C 62 % 1007,0 hPa 0,0 l/m 0,2 km/h (0 Bft) NO 46 1 min 0,000 mm 0,0 UV-I 238 W/m 17,1 C 24,9 C 1,6 km/h (1 Bft) 100,00 %
28.05.2016 18:48 25,0 C 62 % 1007,0 hPa 0,0 l/m 1,1 km/h (1 Bft) NO 46 1 min 0,000 mm 0,0 UV-I 206 W/m 17,2 C 25,0 C 3,2 km/h (1 Bft) 100,00 %
28.05.2016 18:49 25,1 C 62 % 1007,0 hPa 0,0 l/m 1,9 km/h (1 Bft) NO 46 1 min 0,000 mm 0,0 UV-I 177 W/m 17,3 C 25,1 C 3,2 km/h (1 Bft) 100,00 %
28.05.2016 18:50 25,1 C 63 % 1007,0 hPa 0,0 l/m 0,5 km/h (0 Bft) NO 37 0 min 0,000 mm 0,0 UV-I 158 W/m 17,5 C 25,1 C 3,2 km/h (1 Bft) 100,00 %
28.05.2016 18:51 25,0 C 60 % 1007,0 hPa 0,0 l/m 2,0 km/h (1 Bft) NO 35 0 min 0,000 mm 0,0 UV-I 154 W/m 16,7 C 25,0 C 4,8 km/h (1 Bft) 100,00 %
28.05.2016 18:52 25,0 C 61 % 1007,1 hPa 0,0 l/m 3,3 km/h (1 Bft) NO 34 0 min 0,000 mm 0,0 UV-I 153 W/m 16,9 C 25,0 C 4,8 km/h (1 Bft) 100,00 %
28.05.2016 18:53 24,9 C 59 % 1007,1 hPa 0,0 l/m 3,4 km/h (1 Bft) NO 43 0 min 0,000 mm 0,0 UV-I 137 W/m 16,3 C 24,9 C 4,8 km/h (1 Bft) 100,00 %
28.05.2016 18:54 24,9 C 60 % 1007,2 hPa 0,0 l/m 4,0 km/h (1 Bft) N-NO 29 0 min 0,000 mm 0,0 UV-I 118 W/m 16,6 C 24,9 C 6,4 km/h (2 Bft) 98,52 %
28.05.2016 18:55 24,8 C 61 % 1007,1 hPa 0,0 l/m 5,9 km/h (2 Bft) N-NO 23 0 min 0,000 mm 0,0 UV-I 110 W/m 16,8 C 24,8 C 6,4 km/h (2 Bft) 100,00 %
28.05.2016 18:56 24,7 C 63 % 1007,2 hPa 0,0 l/m 3,3 km/h (1 Bft) N-NO 23 0 min 0,000 mm 0,0 UV-I 110 W/m 17,2 C 24,7 C 4,8 km/h (1 Bft) 100,00 %
28.05.2016 18:57 24,5 C 64 % 1007,2 hPa 0,2 l/m 2,0 km/h (1 Bft) N-NO 23 0 min 0,000 mm 0,0 UV-I 140 W/m 17,2 C 24,5 C 3,2 km/h (1 Bft) 92,31 %
28.05.2016 18:58 24,4 C 65 % 1007,2 hPa 0,0 l/m 1,4 km/h (1 Bft) N-NO 23 0 min 0,000 mm 0,0 UV-I 134 W/m 17,4 C 24,4 C 3,2 km/h (1 Bft) 100,00 %
28.05.2016 18:59 24,3 C 62 % 1007,2 hPa 0,0 l/m 1,5 km/h (1 Bft) N-NO 23 0 min 0,000 mm 0,0 UV-I 112 W/m 16,5 C 24,3 C 3,2 km/h (1 Bft) 96,30 %
28.05.2016 19:00 24,3 C 67 % 1007,2 hPa 0,0 l/m 1,3 km/h (1 Bft) N-NO 23 0 min 0,000 mm 0,0 UV-I 104 W/m 17,8 C 24,3 C 3,2 km/h (1 Bft) 100,00 %
28.05.2016 19:02 24,1 C 68 % 1007,1 hPa 0,0 l/m 2,9 km/h (1 Bft) N-NO 28 0 min 0,153 mm 0,0 UV-I 104 W/m 17,8 C 24,1 C 4,8 km/h (1 Bft) 100,00 %
28.05.2016 19:03 24,0 C 65 % 1007,1 hPa 0,0 l/m 2,6 km/h (1 Bft) N-NO 28 0 min 0,000 mm 0,0 UV-I 99 W/m 17,0 C 24,0 C 3,2 km/h (1 Bft) 96,15 %
28.05.2016 19:04 23,9 C 65 % 1007,1 hPa 0,0 l/m 2,3 km/h (1 Bft) N-NO 28 0 min 0,000 mm 0,0 UV-I 97 W/m 16,9 C 23,9 C 4,8 km/h (1 Bft) 100,00 %
28.05.2016 19:05 23,9 C 64 % 1007,1 hPa 0,2 l/m 2,8 km/h (1 Bft) N-NO 28 0 min 0,000 mm 0,0 UV-I 97 W/m 16,7 C 23,9 C 4,8 km/h (1 Bft) 100,00 %
28.05.2016 19:06 23,9 C 64 % 1007,1 hPa 0,0 l/m 2,3 km/h (1 Bft) N-NO 28 0 min 0,000 mm 0,0 UV-I 99 W/m 16,7 C 23,9 C 3,2 km/h (1 Bft) 100,00 %
28.05.2016 19:07 23,8 C 63 % 1007,1 hPa 0,0 l/m 0,7 km/h (0 Bft) N-NO 28 0 min 0,000 mm 0,0 UV-I 103 W/m 16,3 C 23,8 C 3,2 km/h (1 Bft) 95,65 %
28.05.2016 19:08 23,9 C 64 % 1007,1 hPa 0,0 l/m 0,2 km/h (0 Bft) N-NO 28 0 min 0,000 mm 0,0 UV-I 107 W/m 16,7 C 23,9 C 1,6 km/h (1 Bft) 100,00 %
28.05.2016 19:09 23,9 C 72 % 1007,1 hPa 0,0 l/m 0,1 km/h (0 Bft) N-NO 28 0 min 0,000 mm 0,0 UV-I 128 W/m 18,5 C 23,9 C 1,6 km/h (1 Bft) 100,00 %
28.05.2016 19:10 23,9 C 71 % 1007,1 hPa 0,0 l/m 0,1 km/h (0 Bft) N-NO 28 1 min 0,000 mm 0,0 UV-I 162 W/m 18,3 C 23,9 C 1,6 km/h (1 Bft) 100,00 %
28.05.2016 19:11 23,8 C 71 % 1007,1 hPa 0,0 l/m 2,9 km/h (1 Bft) O 101 1 min 0,000 mm 0,0 UV-I 167 W/m 18,2 C 23,8 C 3,2 km/h (1 Bft) 100,00 %
28.05.2016 19:12 23,7 C 73 % 1007,1 hPa 0,0 l/m 1,2 km/h (1 Bft) SO 138 1 min 0,000 mm 0,0 UV-I 162 W/m 18,6 C 23,7 C 1,6 km/h (1 Bft) 100,00 %
28.05.2016 19:13 23,4 C 76 % 1007,1 hPa 0,0 l/m 3,3 km/h (1 Bft) SO 132 1 min 0,000 mm 0,0 UV-I 145 W/m 18,9 C 23,4 C 6,4 km/h (2 Bft) 100,00 %
28.05.2016 19:14 23,3 C 76 % 1007,0 hPa 0,0 l/m 5,5 km/h (1 Bft) SO 131 0 min 0,000 mm 0,0 UV-I 101 W/m 18,8 C 23,3 C 6,4 km/h (2 Bft) 100,00 %
28.05.2016 19:15 23,1 C 75 % 1007,0 hPa 0,0 l/m 4,5 km/h (1 Bft) SO 131 0 min 0,000 mm 0,0 UV-I 76 W/m 18,4 C 23,1 C 6,4 km/h (2 Bft) 100,00 %
28.05.2016 19:16 22,8 C 77 % 1006,9 hPa 0,0 l/m 3,7 km/h (1 Bft) SO 126 0 min 0,000 mm 0,0 UV-I 67 W/m 18,5 C 22,8 C 4,8 km/h (1 Bft) 100,00 %
28.05.2016 19:17 22,7 C 76 % 1006,9 hPa 0,0 l/m 4,5 km/h (1 Bft) O-SO 109 0 min 0,000 mm 0,0 UV-I 61 W/m 18,2 C 22,7 C 6,4 km/h (2 Bft) 100,00 %
28.05.2016 19:18 22,4 C 80 % 1006,8 hPa 0,0 l/m 5,5 km/h (1 Bft) O-SO 109 0 min 0,000 mm 0,0 UV-I 57 W/m 18,8 C 22,4 C 6,4 km/h (2 Bft) 95,83 %
28.05.2016 19:19 22,2 C 78 % 1006,8 hPa 0,0 l/m 4,6 km/h (1 Bft) O 89 0 min 0,000 mm 0,0 UV-I 54 W/m 18,2 C 22,2 C 4,8 km/h (1 Bft) 100,00 %
28.05.2016 19:20 22,1 C 81 % 1006,7 hPa 0,0 l/m 5,4 km/h (1 Bft) O 97 0 min 0,000 mm 0,0 UV-I 53 W/m 18,7 C 22,1 C 6,4 km/h (2 Bft) 100,00 %
28.05.2016 19:21 21,9 C 80 % 1006,8 hPa 0,0 l/m 4,9 km/h (1 Bft) O 100 0 min 0,000 mm 0,0 UV-I 53 W/m 18,3 C 21,9 C 6,4 km/h (2 Bft) 100,00 %
28.05.2016 19:22 21,8 C 79 % 1006,8 hPa 0,0 l/m 3,6 km/h (1 Bft) O-SO 107 0 min 0,000 mm 0,0 UV-I 51 W/m 18,0 C 21,8 C 6,4 km/h (2 Bft) 100,00 %
28.05.2016 19:23 21,8 C 83 % 1006,8 hPa 0,0 l/m 0,7 km/h (0 Bft) O-SO 107 0 min 0,000 mm 0,0 UV-I 51 W/m 18,8 C 21,8 C 1,6 km/h (1 Bft) 100,00 %
28.05.2016 19:24 21,8 C 84 % 1006,9 hPa 0,0 l/m 1,6 km/h (1 Bft) SO 127 0 min 0,000 mm 0,0 UV-I 51 W/m 19,0 C 21,8 C 3,2 km/h (1 Bft) 100,00 %
28.05.2016 19:25 21,8 C 86 % 1006,9 hPa 0,0 l/m 2,1 km/h (1 Bft) SO 130 0 min 0,000 mm 0,0 UV-I 51 W/m 19,3 C 21,8 C 3,2 km/h (1 Bft) 100,00 %
28.05.2016 19:26 21,8 C 85 % 1007,0 hPa 0,0 l/m 2,5 km/h (1 Bft) SO 130 0 min 0,000 mm 0,0 UV-I 51 W/m 19,2 C 21,8 C 3,2 km/h (1 Bft) 98,55 %
28.05.2016 19:27 21,7 C 84 % 1007,0 hPa 0,0 l/m 2,0 km/h (1 Bft) SO 130 0 min 0,000 mm 0,0 UV-I 51 W/m 18,9 C 21,7 C 3,2 km/h (1 Bft) 100,00 %
28.05.2016 19:28 21,7 C 83 % 1007,0 hPa 0,0 l/m 1,9 km/h (1 Bft) SO 139 0 min 0,000 mm 0,0 UV-I 54 W/m 18,7 C 21,7 C 3,2 km/h (1 Bft) 100,00 %
28.05.2016 19:29 21,7 C 84 % 1007,0 hPa 0,0 l/m 3,3 km/h (1 Bft) SO 140 0 min 0,000 mm 0,0 UV-I 51 W/m 18,9 C 21,7 C 4,8 km/h (1 Bft) 100,00 %
28.05.2016 19:30 21,7 C 86 % 1007,1 hPa 0,0 l/m 3,4 km/h (1 Bft) SO 139 0 min 0,000 mm 0,0 UV-I 50 W/m 19,3 C 21,7 C 4,8 km/h (1 Bft) 92,31 %
28.05.2016 19:31 21,7 C 87 % 1007,1 hPa 0,0 l/m 2,3 km/h (1 Bft) SO 141 0 min 0,000 mm 0,0 UV-I 48 W/m 19,4 C 21,7 C 3,2 km/h (1 Bft) 100,00 %
28.05.2016 19:32 21,7 C 87 % 1007,1 hPa 0,0 l/m 2,4 km/h (1 Bft) SO 141 0 min 0,000 mm 0,0 UV-I 46 W/m 19,4 C 21,7 C 4,8 km/h (1 Bft) 96,15 %
28.05.2016 19:33 21,7 C 88 % 1007,1 hPa 0,0 l/m 2,7 km/h (1 Bft) SO 141 0 min 0,000 mm 0,0 UV-I 46 W/m 19,6 C 21,7 C 4,8 km/h (1 Bft) 95,83 %
28.05.2016 19:34 21,6 C 87 % 1007,1 hPa 0,0 l/m 1,1 km/h (1 Bft) SO 141 0 min 0,000 mm 0,0 UV-I 42 W/m 19,3 C 21,6 C 3,2 km/h (1 Bft) 100,00 %
28.05.2016 19:35 21,6 C 87 % 1007,1 hPa 0,0 l/m 0,8 km/h (0 Bft) SO 141 0 min 0,000 mm 0,0 UV-I 40 W/m 19,3 C 21,6 C 3,2 km/h (1 Bft) 93,10 %
28.05.2016 19:36 21,6 C 87 % 1007,1 hPa 0,0 l/m 1,5 km/h (1 Bft) SO 141 0 min 0,000 mm 0,0 UV-I 38 W/m 19,3 C 21,6 C 3,2 km/h (1 Bft) 100,00 %
28.05.2016 19:37 21,6 C 87 % 1007,1 hPa 0,0 l/m 0,8 km/h (0 Bft) SO 141 0 min 0,000 mm 0,0 UV-I 37 W/m 19,3 C 21,6 C 1,6 km/h (1 Bft) 96,30 %
28.05.2016 19:38 21,6 C 87 % 1007,1 hPa 0,0 l/m 1,1 km/h (1 Bft) SO 141 0 min 0,000 mm 0,0 UV-I 36 W/m 19,3 C 21,6 C 1,6 km/h (1 Bft) 95,65 %
28.05.2016 19:39 21,6 C 85 % 1007,1 hPa 0,0 l/m 2,1 km/h (1 Bft) SO 141 0 min 0,000 mm 0,0 UV-I 35 W/m 19,0 C 21,6 C 3,2 km/h (1 Bft) 91,67 %
28.05.2016 19:40 21,7 C 84 % 1007,1 hPa 0,0 l/m 2,6 km/h (1 Bft) SO 141 0 min 0,000 mm 0,0 UV-I 33 W/m 18,9 C 21,7 C 3,2 km/h (1 Bft) 100,00 %
28.05.2016 19:41 21,7 C 84 % 1007,1 hPa 0,0 l/m 2,8 km/h (1 Bft) SO 141 0 min 0,000 mm 0,0 UV-I 33 W/m 18,9 C 21,7 C 3,2 km/h (1 Bft) 92,31 %
28.05.2016 19:42 21,8 C 85 % 1007,2 hPa 0,0 l/m 2,4 km/h (1 Bft) SO 141 0 min 0,000 mm 0,0 UV-I 33 W/m 19,2 C 21,8 C 3,2 km/h (1 Bft) 100,00 %
28.05.2016 19:43 21,7 C 86 % 1007,2 hPa 0,0 l/m 2,3 km/h (1 Bft) SO 141 0 min 0,000 mm 0,0 UV-I 32 W/m 19,3 C 21,7 C 3,2 km/h (1 Bft) 96,88 %
28.05.2016 19:44 21,7 C 86 % 1007,3 hPa 0,0 l/m 2,6 km/h (1 Bft) S-SO 155 0 min 0,000 mm 0,0 UV-I 31 W/m 19,3 C 21,7 C 3,2 km/h (1 Bft) 96,30 %
28.05.2016 19:45 21,6 C 86 % 1007,5 hPa 0,0 l/m 2,8 km/h (1 Bft) S 173 0 min 0,000 mm 0,0 UV-I 26 W/m 19,2 C 21,6 C 4,8 km/h (1 Bft) 100,00 %
28.05.2016 19:46 21,6 C 85 % 1007,5 hPa 0,0 l/m 3,5 km/h (1 Bft) S-SW 206 0 min 0,000 mm 0,0 UV-I 24 W/m 19,0 C 21,6 C 6,4 km/h (2 Bft) 95,83 %
28.05.2016 19:47 21,4 C 85 % 1007,5 hPa 0,0 l/m 5,8 km/h (2 Bft) S-SW 208 0 min 0,000 mm 0,0 UV-I 20 W/m 18,8 C 21,4 C 8,0 km/h (2 Bft) 100,00 %
28.05.2016 19:48 21,4 C 84 % 1007,6 hPa 0,0 l/m 5,9 km/h (2 Bft) S 190 0 min 0,000 mm 0,0 UV-I 19 W/m 18,6 C 21,4 C 8,0 km/h (2 Bft) 95,83 %
28.05.2016 19:49 21,4 C 85 % 1007,6 hPa 0,0 l/m 4,7 km/h (1 Bft) S-SW 196 0 min 0,000 mm 0,0 UV-I 17 W/m 18,8 C 21,4 C 6,4 km/h (2 Bft) 90,91 %
28.05.2016 19:50 21,3 C 86 % 1007,7 hPa 0,0 l/m 3,8 km/h (1 Bft) S 191 0 min 0,000 mm 0,0 UV-I 15 W/m 18,9 C 21,3 C 6,4 km/h (2 Bft) 96,30 %
28.05.2016 19:51 21,3 C 85 % 1007,7 hPa 0,0 l/m 3,3 km/h (1 Bft) S 169 0 min 0,000 mm 0,0 UV-I 14 W/m 18,7 C 21,3 C 6,4 km/h (2 Bft) 100,00 %
28.05.2016 19:52 21,3 C 84 % 1007,7 hPa 0,0 l/m 4,8 km/h (1 Bft) S-SO 165 0 min 0,000 mm 0,0 UV-I 12 W/m 18,5 C 21,3 C 8,0 km/h (2 Bft) 96,30 %
28.05.2016 19:53 21,3 C 84 % 1007,8 hPa 0,0 l/m 4,7 km/h (1 Bft) S-SO 163 0 min 0,000 mm 0,0 UV-I 12 W/m 18,5 C 21,3 C 8,0 km/h (2 Bft) 100,00 %
28.05.2016 19:54 21,3 C 85 % 1007,8 hPa 0,0 l/m 3,5 km/h (1 Bft) S-SO 160 0 min 0,000 mm 0,0 UV-I 12 W/m 18,7 C 21,3 C 6,4 km/h (2 Bft) 96,55 %
28.05.2016 19:55 21,3 C 83 % 1007,9 hPa 0,0 l/m 3,6 km/h (1 Bft) S 180 0 min 0,000 mm 0,0 UV-I 11 W/m 18,3 C 21,3 C 6,4 km/h (2 Bft) 96,15 %
28.05.2016 19:56 21,3 C 81 % 1007,9 hPa 0,0 l/m 5,2 km/h (1 Bft) S 170 0 min 0,000 mm 0,0 UV-I 9 W/m 17,9 C 21,3 C 8,0 km/h (2 Bft) 98,49 %
28.05.2016 19:57 21,3 C 80 % 1008,0 hPa 0,0 l/m 9,0 km/h (2 Bft) S 180 0 min 0,000 mm 0,0 UV-I 7 W/m 17,7 C 20,4 C 14,5 km/h (3 Bft) 97,87 %
28.05.2016 19:58 21,3 C 79 % 1008,2 hPa 0,0 l/m 14,0 km/h (3 Bft) S-SO 157 0 min 0,000 mm 0,0 UV-I 6 W/m 17,5 C 19,0 C 20,9 km/h (4 Bft) 100,00 %
28.05.2016 19:59 21,3 C 76 % 1008,3 hPa 0,0 l/m 15,5 km/h (3 Bft) S-SO 159 0 min 0,000 mm 0,0 UV-I 5 W/m 16,9 C 18,7 C 22,5 km/h (4 Bft) 95,65 %
28.05.2016 20:00 21,3 C 74 % 1008,3 hPa 0,0 l/m 21,8 km/h (4 Bft) S-SO 161 0 min 0,051 mm 0,0 UV-I 2 W/m 16,5 C 17,6 C 40,2 km/h (6 Bft) 95,83 %
28.05.2016 20:02 20,7 C 72 % 1008,7 hPa 0,0 l/m 28,6 km/h (4 Bft) S-SW 192 0 min 0,000 mm 0,0 UV-I 0 W/m 15,5 C 15,9 C 53,1 km/h (7 Bft) 97,37 %
28.05.2016 20:03 20,4 C 72 % 1008,4 hPa 0,0 l/m 36,1 km/h (5 Bft) S-SO 167 0 min 0,000 mm 0,0 UV-I 0 W/m 15,2 C 14,6 C 54,7 km/h (7 Bft) 100,00 %
28.05.2016 20:04 20,1 C 73 % 1008,5 hPa 0,0 l/m 27,8 km/h (4 Bft) S-SO 164 0 min 0,000 mm 0,0 UV-I 0 W/m 15,1 C 15,1 C 48,3 km/h (6 Bft) 95,65 %
28.05.2016 20:05 19,8 C 73 % 1008,4 hPa 0,0 l/m 29,8 km/h (5 Bft) S-SO 152 0 min 0,000 mm 0,0 UV-I 0 W/m 14,8 C 14,5 C 45,1 km/h (6 Bft) 100,00 %
28.05.2016 20:06 19,5 C 74 % 1008,4 hPa 0,0 l/m 25,8 km/h (4 Bft) S-SW 212 0 min 0,000 mm 0,0 UV-I 0 W/m 14,7 C 14,6 C 43,5 km/h (6 Bft) 95,65 %
28.05.2016 20:07 19,3 C 75 % 1008,3 hPa 0,0 l/m 29,0 km/h (5 Bft) W 261 0 min 0,000 mm 0,0 UV-I 0 W/m 14,8 C 13,9 C 49,9 km/h (6 Bft) 100,00 %
28.05.2016 20:08 19,0 C 75 % 1008,5 hPa 0,0 l/m 38,6 km/h (5 Bft) S-SW 198 0 min 0,000 mm 0,0 UV-I 0 W/m 14,5 C 12,4 C 78,9 km/h (9 Bft) 100,00 %
28.05.2016 20:09 18,8 C 76 % 1008,4 hPa 0,0 l/m 36,3 km/h (5 Bft) S 178 0 min 0,000 mm 0,0 UV-I 0 W/m 14,5 C 12,3 C 59,5 km/h (7 Bft) 100,00 %
28.05.2016 20:10 18,5 C 76 % 1008,6 hPa 0,0 l/m 28,4 km/h (4 Bft) S 177 0 min 0,000 mm 0,0 UV-I 0 W/m 14,2 C 12,8 C 49,9 km/h (6 Bft) 100,00 %
28.05.2016 20:11 18,3 C 78 % 1008,4 hPa 0,0 l/m 38,1 km/h (5 Bft) S 190 0 min 0,000 mm 0,0 UV-I 0 W/m 14,4 C 11,4 C 59,5 km/h (7 Bft) 100,00 %
28.05.2016 20:12 18,1 C 78 % 1008,5 hPa 0,0 l/m 34,2 km/h (5 Bft) S-SW 207 0 min 0,000 mm 0,0 UV-I 0 W/m 14,2 C 11,5 C 45,1 km/h (6 Bft) 100,00 %
28.05.2016 20:13 18,0 C 80 % 1008,5 hPa 0,0 l/m 37,8 km/h (5 Bft) S 171 0 min 0,000 mm 0,0 UV-I 0 W/m 14,5 C 11,0 C 67,6 km/h (8 Bft) 91,67 %
28.05.2016 20:15 17,4 C 83 % 1008,8 hPa 1,2 l/m 32,2 km/h (5 Bft) S 180 0 min 0,000 mm 0,0 UV-I 0 W/m 14,5 C 10,8 C 67,6 km/h (8 Bft) 98,25 %
28.05.2016 20:20 16,3 C 88 % 1008,9 hPa 8,6 l/m 35,4 km/h (5 Bft) S-SW 202 0 min 0,000 mm 0,0 UV-I 0 W/m 14,3 C 8,8 C 64,4 km/h (8 Bft) 97,37 %
28.05.2016 20:25 15,6 C 91 % 1008,7 hPa 7,2 l/m 22,5 km/h (4 Bft) S-SW 202 0 min 0,000 mm 0,0 UV-I 0 W/m 14,1 C 9,9 C 46,7 km/h (6 Bft) 97,37 %
28.05.2016 20:30 15,6 C 92 % 1008,5 hPa 5,2 l/m 19,3 km/h (3 Bft) S 180 0 min 0,000 mm 0,0 UV-I 0 W/m 14,3 C 10,7 C 37,0 km/h (5 Bft) 99,12 %
28.05.2016 20:35 15,8 C 91 % 1008,5 hPa 2,6 l/m 14,5 km/h (3 Bft) S-SO 157 0 min 0,000 mm 0,0 UV-I 0 W/m 14,3 C 12,3 C 29,0 km/h (5 Bft) 97,37 %
28.05.2016 20:40 16,1 C 90 % 1008,6 hPa 0,4 l/m 11,3 km/h (2 Bft) S-SO 157 0 min 0,000 mm 0,0 UV-I 0 W/m 14,5 C 13,8 C 20,9 km/h (4 Bft) 97,37 %
28.05.2016 20:45 16,1 C 90 % 1008,7 hPa 0,0 l/m 11,3 km/h (2 Bft) O 90 0 min 0,000 mm 0,0 UV-I 0 W/m 14,5 C 13,8 C 19,3 km/h (3 Bft) 100,00 %
28.05.2016 20:49 16,1 C 91 % 1008,9 hPa 0,2 l/m 2,7 km/h (1 Bft) O 98 0 min 0,000 mm 0,0 UV-I 0 W/m 14,6 C 16,1 C 4,8 km/h (1 Bft) 100,00 %
28.05.2016 20:50 16,1 C 91 % 1009,0 hPa 0,0 l/m 0,3 km/h (0 Bft) O 98 0 min 0,000 mm 0,0 UV-I 0 W/m 14,6 C 16,1 C 1,6 km/h (1 Bft) 100,00 %
28.05.2016 20:51 16,1 C 91 % 1009,0 hPa 0,0 l/m 0,5 km/h (0 Bft) O 98 0 min 0,000 mm 0,0 UV-I 0 W/m 14,6 C 16,1 C 1,6 km/h (1 Bft) 100,00 %
28.05.2016 20:52 16,1 C 92 % 1009,0 hPa 0,0 l/m 0,5 km/h (0 Bft) O 98 0 min 0,000 mm 0,0 UV-I 0 W/m 14,8 C 16,1 C 1,6 km/h (1 Bft) 100,00 %
28.05.2016 20:53 16,1 C 92 % 1009,0 hPa 0,0 l/m 2,4 km/h (1 Bft) O 98 0 min 0,000 mm 0,0 UV-I 0 W/m 14,8 C 16,1 C 3,2 km/h (1 Bft) 100,00 %
28.05.2016 20:54 16,0 C 92 % 1009,1 hPa 0,0 l/m 2,2 km/h (1 Bft) O 98 0 min 0,000 mm 0,0 UV-I 0 W/m 14,7 C 16,0 C 3,2 km/h (1 Bft) 96,15 %
28.05.2016 20:55 16,0 C 92 % 1009,1 hPa 0,0 l/m 2,0 km/h (1 Bft) O 98 0 min 0,000 mm 0,0 UV-I 0 W/m 14,7 C 16,0 C 3,2 km/h (1 Bft) 100,00 %
28.05.2016 20:56 16,0 C 92 % 1009,1 hPa 0,0 l/m 1,3 km/h (1 Bft) O 98 0 min 0,000 mm 0,0 UV-I 0 W/m 14,7 C 16,0 C 3,2 km/h (1 Bft) 100,00 %
28.05.2016 20:57 16,0 C 93 % 1009,1 hPa 0,0 l/m 1,4 km/h (1 Bft) O 98 0 min 0,000 mm 0,0 UV-I 0 W/m 14,9 C 16,0 C 1,6 km/h (1 Bft) 100,00 %
28.05.2016 20:58 16,1 C 93 % 1009,1 hPa 0,0 l/m 1,5 km/h (1 Bft) O 98 0 min 0,000 mm 0,0 UV-I 0 W/m 15,0 C 16,1 C 1,6 km/h (1 Bft) 100,00 %
28.05.2016 20:59 16,1 C 93 % 1009,1 hPa 0,0 l/m 1,4 km/h (1 Bft) O 98 0 min 0,000 mm 0,0 UV-I 0 W/m 15,0 C 16,1 C 3,2 km/h (1 Bft) 96,30 %
28.05.2016 21:00 16,1 C 93 % 1009,1 hPa 0,2 l/m 2,7 km/h (1 Bft) SO 136 0 min 0,000 mm 0,0 UV-I 0 W/m 15,0 C 16,1 C 4,8 km/h (1 Bft) 95,65 %
28.05.2016 21:02 16,2 C 93 % 1009,1 hPa 0,0 l/m 2,8 km/h (1 Bft) S-SO 161 0 min 0,025 mm 0,0 UV-I 0 W/m 15,1 C 16,2 C 4,8 km/h (1 Bft) 100,00 %
28.05.2016 21:03 16,2 C 93 % 1009,1 hPa 0,0 l/m 3,3 km/h (1 Bft) S-SO 165 0 min 0,000 mm 0,0 UV-I 0 W/m 15,1 C 16,2 C 8,0 km/h (2 Bft) 100,00 %
28.05.2016 21:04 16,1 C 93 % 1009,0 hPa 0,0 l/m 4,1 km/h (1 Bft) S-SO 156 0 min 0,000 mm 0,0 UV-I 0 W/m 15,0 C 16,1 C 8,0 km/h (2 Bft) 100,00 %
28.05.2016 21:05 16,1 C 93 % 1009,0 hPa 0,2 l/m 5,8 km/h (2 Bft) S 170 0 min 0,000 mm 0,0 UV-I 0 W/m 15,0 C 16,1 C 9,7 km/h (2 Bft) 100,00 %
28.05.2016 21:06 16,1 C 93 % 1008,9 hPa 0,0 l/m 8,0 km/h (2 Bft) S-SO 147 0 min 0,000 mm 0,0 UV-I 0 W/m 15,0 C 15,3 C 12,9 km/h (3 Bft) 100,00 %
28.05.2016 21:07 16,1 C 93 % 1008,9 hPa 0,2 l/m 11,4 km/h (2 Bft) O-SO 123 0 min 0,000 mm 0,0 UV-I 0 W/m 15,0 C 13,8 C 14,5 km/h (3 Bft) 100,00 %
28.05.2016 21:08 16,1 C 93 % 1008,8 hPa 0,2 l/m 16,0 km/h (3 Bft) SO 138 0 min 0,000 mm 0,0 UV-I 0 W/m 15,0 C 12,2 C 19,3 km/h (3 Bft) 100,00 %
28.05.2016 21:09 16,0 C 93 % 1008,7 hPa 0,0 l/m 20,3 km/h (4 Bft) SO 130 0 min 0,000 mm 0,0 UV-I 0 W/m 14,9 C 11,0 C 24,1 km/h (4 Bft) 100,00 %
28.05.2016 21:10 16,0 C 93 % 1008,6 hPa 0,0 l/m 21,7 km/h (4 Bft) SO 131 0 min 0,000 mm 0,0 UV-I 0 W/m 14,9 C 10,6 C 25,7 km/h (4 Bft) 100,00 %
28.05.2016 21:11 16,0 C 93 % 1008,7 hPa 0,2 l/m 21,5 km/h (4 Bft) O-SO 122 0 min 0,000 mm 0,0 UV-I 0 W/m 14,9 C 10,7 C 30,6 km/h (5 Bft) 100,00 %
28.05.2016 21:12 16,0 C 93 % 1008,6 hPa 0,2 l/m 19,3 km/h (3 Bft) S-SO 158 0 min 0,000 mm 0,0 UV-I 0 W/m 14,9 C 11,2 C 25,7 km/h (4 Bft) 100,00 %
28.05.2016 21:13 15,9 C 93 % 1008,6 hPa 0,0 l/m 19,5 km/h (3 Bft) O-SO 115 0 min 0,000 mm 0,0 UV-I 0 W/m 14,8 C 11,0 C 29,0 km/h (5 Bft) 100,00 %
28.05.2016 21:14 15,9 C 93 % 1008,5 hPa 0,2 l/m 11,7 km/h (2 Bft) SO 127 0 min 0,000 mm 0,0 UV-I 0 W/m 14,8 C 13,4 C 17,7 km/h (3 Bft) 100,00 %
28.05.2016 21:15 15,9 C 93 % 1008,5 hPa 0,2 l/m 10,2 km/h (2 Bft) S-SO 150 0 min 0,000 mm 0,0 UV-I 0 W/m 14,8 C 14,0 C 17,7 km/h (3 Bft) 100,00 %
28.05.2016 21:16 15,9 C 93 % 1008,5 hPa 0,0 l/m 8,5 km/h (2 Bft) O-SO 109 0 min 0,000 mm 0,0 UV-I 0 W/m 14,8 C 14,8 C 19,3 km/h (3 Bft) 96,30 %
28.05.2016 21:17 15,9 C 93 % 1008,6 hPa 0,2 l/m 10,7 km/h (2 Bft) S-SO 162 0 min 0,000 mm 0,0 UV-I 0 W/m 14,8 C 13,8 C 16,1 km/h (3 Bft) 100,00 %
28.05.2016 21:18 15,9 C 92 % 1008,7 hPa 0,0 l/m 9,5 km/h (2 Bft) SO 139 0 min 0,000 mm 0,0 UV-I 0 W/m 14,6 C 14,3 C 14,5 km/h (3 Bft) 96,30 %
28.05.2016 21:19 15,9 C 92 % 1008,7 hPa 0,2 l/m 5,8 km/h (2 Bft) SO 134 0 min 0,000 mm 0,0 UV-I 0 W/m 14,6 C 15,9 C 12,9 km/h (3 Bft) 100,00 %
28.05.2016 21:20 16,0 C 92 % 1008,8 hPa 0,0 l/m 3,5 km/h (1 Bft) S-SW 209 0 min 0,000 mm 0,0 UV-I 0 W/m 14,7 C 16,0 C 6,4 km/h (2 Bft) 100,00 %
28.05.2016 21:21 16,0 C 92 % 1008,9 hPa 0,0 l/m 2,7 km/h (1 Bft) S 177 0 min 0,000 mm 0,0 UV-I 0 W/m 14,7 C 16,0 C 4,8 km/h (1 Bft) 100,00 %
28.05.2016 21:22 16,0 C 92 % 1008,9 hPa 0,0 l/m 1,3 km/h (1 Bft) S 177 0 min 0,000 mm 0,0 UV-I 0 W/m 14,7 C 16,0 C 3,2 km/h (1 Bft) 100,00 %
28.05.2016 21:23 16,0 C 92 % 1008,9 hPa 0,0 l/m 2,3 km/h (1 Bft) S-SO 165 0 min 0,000 mm 0,0 UV-I 0 W/m 14,7 C 16,0 C 6,4 km/h (2 Bft) 100,00 %
28.05.2016 21:24 16,0 C 92 % 1008,9 hPa 0,0 l/m 4,1 km/h (1 Bft) S-SO 156 0 min 0,000 mm 0,0 UV-I 0 W/m 14,7 C 16,0 C 6,4 km/h (2 Bft) 96,55 %
28.05.2016 21:25 16,0 C 92 % 1008,8 hPa 0,2 l/m 5,6 km/h (1 Bft) SO 146 0 min 0,000 mm 0,0 UV-I 0 W/m 14,7 C 16,0 C 6,4 km/h (2 Bft) 96,30 %
28.05.2016 21:26 16,0 C 92 % 1008,8 hPa 0,0 l/m 8,2 km/h (2 Bft) SO 124 0 min 0,000 mm 0,0 UV-I 0 W/m 14,7 C 15,1 C 12,9 km/h (3 Bft) 100,00 %
28.05.2016 21:27 15,9 C 92 % 1008,8 hPa 0,0 l/m 9,4 km/h (2 Bft) SO 142 0 min 0,000 mm 0,0 UV-I 0 W/m 14,6 C 14,4 C 14,5 km/h (3 Bft) 100,00 %
28.05.2016 21:28 16,0 C 92 % 1008,8 hPa 0,0 l/m 6,0 km/h (2 Bft) S-SO 151 0 min 0,000 mm 0,0 UV-I 0 W/m 14,7 C 16,0 C 8,0 km/h (2 Bft) 100,00 %
28.05.2016 21:29 16,0 C 92 % 1008,8 hPa 0,0 l/m 7,0 km/h (2 Bft) S-SO 158 0 min 0,000 mm 0,0 UV-I 0 W/m 14,7 C 15,7 C 11,3 km/h (2 Bft) 100,00 %
28.05.2016 21:30 16,0 C 92 % 1008,8 hPa 0,0 l/m 6,8 km/h (2 Bft) S-SO 156 0 min 0,000 mm 0,0 UV-I 0 W/m 14,7 C 15,8 C 12,9 km/h (3 Bft) 100,00 %
28.05.2016 21:31 16,0 C 92 % 1008,7 hPa 0,0 l/m 5,7 km/h (1 Bft) S-SO 157 0 min 0,000 mm 0,0 UV-I 0 W/m 14,7 C 16,0 C 9,7 km/h (2 Bft) 100,00 %
28.05.2016 21:32 16,0 C 92 % 1008,8 hPa 0,2 l/m 5,2 km/h (1 Bft) S-SO 153 0 min 0,000 mm 0,0 UV-I 0 W/m 14,7 C 16,0 C 9,7 km/h (2 Bft) 96,15 %
28.05.2016 21:33 16,0 C 92 % 1008,8 hPa 0,0 l/m 6,6 km/h (2 Bft) S-SO 158 0 min 0,000 mm 0,0 UV-I 0 W/m 14,7 C 15,9 C 11,3 km/h (2 Bft) 100,00 %
28.05.2016 21:34 16,1 C 92 % 1008,7 hPa 0,0 l/m 6,2 km/h (2 Bft) S-SO 153 0 min 0,000 mm 0,0 UV-I 0 W/m 14,8 C 16,1 C 9,7 km/h (2 Bft) 93,33 %
28.05.2016 21:35 16,1 C 92 % 1008,7 hPa 0,0 l/m 7,2 km/h (2 Bft) S-SO 154 0 min 0,000 mm 0,0 UV-I 0 W/m 14,8 C 15,7 C 12,9 km/h (3 Bft) 100,00 %
28.05.2016 21:36 16,1 C 92 % 1008,6 hPa 0,0 l/m 8,0 km/h (2 Bft) S-SO 154 0 min 0,000 mm 0,0 UV-I 0 W/m 14,8 C 15,3 C 14,5 km/h (3 Bft) 96,15 %
28.05.2016 21:37 16,1 C 92 % 1008,6 hPa 0,0 l/m 8,6 km/h (2 Bft) SO 136 0 min 0,000 mm 0,0 UV-I 0 W/m 14,8 C 15,0 C 12,9 km/h (3 Bft) 95,83 %
28.05.2016 21:38 16,1 C 92 % 1008,6 hPa 0,0 l/m 9,7 km/h (2 Bft) S 179 0 min 0,000 mm 0,0 UV-I 0 W/m 14,8 C 14,5 C 16,1 km/h (3 Bft) 100,00 %
28.05.2016 21:39 16,1 C 92 % 1008,6 hPa 0,0 l/m 4,8 km/h (1 Bft) S 189 0 min 0,000 mm 0,0 UV-I 0 W/m 14,8 C 16,1 C 4,8 km/h (1 Bft) 98,52 %
28.05.2016 21:42 16,0 C 92 % 1008,6 hPa 0,0 l/m 5,8 km/h (2 Bft) O-SO 120 0 min 0,000 mm 0,0 UV-I 0 W/m 14,7 C 16,0 C 9,7 km/h (2 Bft) 98,00 %
28.05.2016 21:43 16,0 C 92 % 1008,6 hPa 0,0 l/m 7,9 km/h (2 Bft) SO 128 0 min 0,000 mm 0,0 UV-I 0 W/m 14,7 C 15,2 C 14,5 km/h (3 Bft) 95,65 %
28.05.2016 21:44 16,0 C 92 % 1008,6 hPa 0,0 l/m 7,7 km/h (2 Bft) O-SO 107 0 min 0,000 mm 0,0 UV-I 0 W/m 14,7 C 15,3 C 14,5 km/h (3 Bft) 100,00 %
28.05.2016 21:45 15,9 C 92 % 1008,5 hPa 0,0 l/m 8,0 km/h (2 Bft) O-SO 111 0 min 0,000 mm 0,0 UV-I 0 W/m 14,6 C 15,0 C 11,3 km/h (2 Bft) 92,86 %
28.05.2016 21:46 15,9 C 92 % 1008,6 hPa 0,0 l/m 7,2 km/h (2 Bft) O 92 0 min 0,000 mm 0,0 UV-I 0 W/m 14,6 C 15,5 C 9,7 km/h (2 Bft) 100,00 %
28.05.2016 21:47 15,9 C 92 % 1008,6 hPa 0,0 l/m 9,3 km/h (2 Bft) O 89 0 min 0,000 mm 0,0 UV-I 0 W/m 14,6 C 14,4 C 12,9 km/h (3 Bft) 96,15 %
28.05.2016 21:48 15,9 C 92 % 1008,6 hPa 0,0 l/m 10,9 km/h (2 Bft) O 93 0 min 0,000 mm 0,0 UV-I 0 W/m 14,6 C 13,7 C 12,9 km/h (3 Bft) 100,00 %
28.05.2016 21:49 15,9 C 92 % 1008,6 hPa 0,0 l/m 8,9 km/h (2 Bft) O 101 0 min 0,000 mm 0,0 UV-I 0 W/m 14,6 C 14,6 C 12,9 km/h (3 Bft) 97,56 %
28.05.2016 21:50 15,9 C 93 % 1008,6 hPa 0,0 l/m 9,1 km/h (2 Bft) O 96 0 min 0,000 mm 0,0 UV-I 0 W/m 14,8 C 14,5 C 11,3 km/h (2 Bft) 91,67 %
28.05.2016 21:51 15,9 C 93 % 1008,6 hPa 0,0 l/m 7,8 km/h (2 Bft) O-SO 103 0 min 0,000 mm 0,0 UV-I 0 W/m 14,8 C 15,1 C 9,7 km/h (2 Bft) 96,15 %
28.05.2016 21:52 15,9 C 93 % 1008,6 hPa 0,0 l/m 7,4 km/h (2 Bft) O-SO 117 0 min 0,000 mm 0,0 UV-I 0 W/m 14,8 C 15,4 C 11,3 km/h (2 Bft) 96,30 %
28.05.2016 21:53 15,9 C 93 % 1008,6 hPa 0,0 l/m 7,2 km/h (2 Bft) O-SO 121 0 min 0,000 mm 0,0 UV-I 0 W/m 14,8 C 15,5 C 9,7 km/h (2 Bft) 95,65 %
28.05.2016 21:54 15,9 C 93 % 1008,6 hPa 0,0 l/m 7,1 km/h (2 Bft) SO 131 0 min 0,000 mm 0,0 UV-I 0 W/m 14,8 C 15,5 C 11,3 km/h (2 Bft) 100,00 %
28.05.2016 21:55 15,9 C 93 % 1008,6 hPa 0,0 l/m 7,8 km/h (2 Bft) O-SO 109 0 min 0,000 mm 0,0 UV-I 0 W/m 14,8 C 15,1 C 11,3 km/h (2 Bft) 95,65 %
28.05.2016 21:56 15,9 C 93 % 1008,6 hPa 0,0 l/m 10,5 km/h (2 Bft) SO 125 0 min 0,000 mm 0,0 UV-I 0 W/m 14,8 C 13,9 C 12,9 km/h (3 Bft) 100,00 %
28.05.2016 21:57 15,9 C 93 % 1008,7 hPa 0,0 l/m 6,6 km/h (2 Bft) SO 132 0 min 0,000 mm 0,0 UV-I 0 W/m 14,8 C 15,8 C 8,0 km/h (2 Bft) 95,65 %
28.05.2016 21:58 15,9 C 93 % 1008,7 hPa 0,0 l/m 8,2 km/h (2 Bft) SO 138 0 min 0,000 mm 0,0 UV-I 0 W/m 14,8 C 14,9 C 11,3 km/h (2 Bft) 100,00 %
28.05.2016 21:59 15,9 C 93 % 1008,7 hPa 0,0 l/m 7,1 km/h (2 Bft) O-SO 107 0 min 0,000 mm 0,0 UV-I 0 W/m 14,8 C 15,5 C 9,7 km/h (2 Bft) 98,49 %
28.05.2016 22:00 15,9 C 93 % 1008,6 hPa 0,0 l/m 8,1 km/h (2 Bft) O 100 0 min 0,000 mm 0,0 UV-I 0 W/m 14,8 C 15,0 C 11,3 km/h (2 Bft) 97,73 %
28.05.2016 22:02 15,9 C 93 % 1008,7 hPa 0,0 l/m 7,0 km/h (2 Bft) O 93 0 min 0,000 mm 0,0 UV-I 0 W/m 14,8 C 15,6 C 11,3 km/h (2 Bft) 95,45 %
28.05.2016 22:03 15,9 C 93 % 1008,7 hPa 0,0 l/m 6,3 km/h (2 Bft) O-NO 59 0 min 0,000 mm 0,0 UV-I 0 W/m 14,8 C 15,9 C 8,0 km/h (2 Bft) 96,30 %
28.05.2016 22:04 15,9 C 93 % 1008,8 hPa 0,0 l/m 5,8 km/h (2 Bft) O-NO 71 0 min 0,000 mm 0,0 UV-I 0 W/m 14,8 C 15,9 C 6,4 km/h (2 Bft) 95,65 %
28.05.2016 22:05 15,9 C 93 % 1008,8 hPa 0,0 l/m 6,4 km/h (2 Bft) NO 47 0 min 0,000 mm 0,0 UV-I 0 W/m 14,8 C 15,9 C 8,0 km/h (2 Bft) 100,00 %
28.05.2016 22:06 15,9 C 93 % 1008,8 hPa 0,0 l/m 5,1 km/h (1 Bft) NO 47 0 min 0,000 mm 0,0 UV-I 0 W/m 14,8 C 15,9 C 6,4 km/h (2 Bft) 100,00 %
28.05.2016 22:07 15,9 C 93 % 1008,9 hPa 0,0 l/m 2,8 km/h (1 Bft) O-NO 65 0 min 0,000 mm 0,0 UV-I 0 W/m 14,8 C 15,9 C 4,8 km/h (1 Bft) 100,00 %
28.05.2016 22:08 15,9 C 93 % 1008,9 hPa 0,0 l/m 2,0 km/h (1 Bft) O-NO 65 0 min 0,000 mm 0,0 UV-I 0 W/m 14,8 C 15,9 C 3,2 km/h (1 Bft) 100,00 %
28.05.2016 22:09 15,9 C 93 % 1009,0 hPa 0,0 l/m 1,0 km/h (0 Bft) O-NO 65 0 min 0,000 mm 0,0 UV-I 0 W/m 14,8 C 15,9 C 3,2 km/h (1 Bft) 100,00 %
28.05.2016 22:10 15,9 C 93 % 1009,0 hPa 0,0 l/m 0,0 km/h (0 Bft) O-NO 65 0 min 0,000 mm 0,0 UV-I 0 W/m 14,8 C 15,9 C 0,0 km/h (0 Bft) 96,15 %
28.05.2016 22:11 15,9 C 93 % 1009,0 hPa 0,0 l/m 0,5 km/h (0 Bft) O-NO 65 0 min 0,000 mm 0,0 UV-I 0 W/m 14,8 C 15,9 C 1,6 km/h (1 Bft) 100,00 %
28.05.2016 22:12 15,9 C 94 % 1009,0 hPa 0,0 l/m 2,3 km/h (1 Bft) O-NO 65 0 min 0,000 mm 0,0 UV-I 0 W/m 14,9 C 15,9 C 3,2 km/h (1 Bft) 98,48 %
28.05.2016 22:13 15,9 C 94 % 1009,1 hPa 0,0 l/m 2,3 km/h (1 Bft) O-NO 65 0 min 0,000 mm 0,0 UV-I 0 W/m 14,9 C 15,9 C 3,2 km/h (1 Bft) 100,00 %
28.05.2016 22:14 15,9 C 94 % 1009,1 hPa 0,0 l/m 2,5 km/h (1 Bft) O-NO 65 0 min 0,000 mm 0,0 UV-I 0 W/m 14,9 C 15,9 C 3,2 km/h (1 Bft) 100,00 %
28.05.2016 22:15 15,9 C 94 % 1009,2 hPa 0,0 l/m 1,8 km/h (1 Bft) O-NO 62 0 min 0,000 mm 0,0 UV-I 0 W/m 14,9 C 15,9 C 3,2 km/h (1 Bft) 100,00 %
28.05.2016 22:16 15,9 C 94 % 1009,2 hPa 0,0 l/m 1,6 km/h (1 Bft) O-NO 62 0 min 0,000 mm 0,0 UV-I 0 W/m 14,9 C 15,9 C 3,2 km/h (1 Bft) 100,00 %
28.05.2016 22:17 15,8 C 94 % 1009,2 hPa 0,0 l/m 0,6 km/h (0 Bft) O-NO 62 0 min 0,000 mm 0,0 UV-I 0 W/m 14,8 C 15,8 C 1,6 km/h (1 Bft) 100,00 %
28.05.2016 22:18 15,8 C 94 % 1009,2 hPa 0,0 l/m 1,1 km/h (1 Bft) O-NO 61 0 min 0,000 mm 0,0 UV-I 0 W/m 14,8 C 15,8 C 3,2 km/h (1 Bft) 100,00 %
28.05.2016 22:19 15,8 C 94 % 1009,2 hPa 0,0 l/m 3,2 km/h (1 Bft) O-NO 61 0 min 0,000 mm 0,0 UV-I 0 W/m 14,8 C 15,8 C 4,8 km/h (1 Bft) 100,00 %
28.05.2016 22:20 15,7 C 94 % 1009,2 hPa 0,0 l/m 1,8 km/h (1 Bft) NO 51 0 min 0,000 mm 0,0 UV-I 0 W/m 14,7 C 15,7 C 4,8 km/h (1 Bft) 100,00 %
28.05.2016 22:21 15,7 C 94 % 1009,2 hPa 0,0 l/m 3,0 km/h (1 Bft) NO 34 0 min 0,000 mm 0,0 UV-I 0 W/m 14,7 C 15,7 C 3,2 km/h (1 Bft) 100,00 %
28.05.2016 22:22 15,7 C 94 % 1009,2 hPa 0,0 l/m 2,7 km/h (1 Bft) N-NO 33 0 min 0,000 mm 0,0 UV-I 0 W/m 14,7 C 15,7 C 3,2 km/h (1 Bft) 100,00 %
28.05.2016 22:23 15,6 C 94 % 1009,2 hPa 0,0 l/m 1,9 km/h (1 Bft) N-NO 32 0 min 0,000 mm 0,0 UV-I 0 W/m 14,6 C 15,6 C 3,2 km/h (1 Bft) 96,55 %
28.05.2016 22:24 15,6 C 94 % 1009,3 hPa 0,0 l/m 3,5 km/h (1 Bft) N-NO 32 0 min 0,000 mm 0,0 UV-I 0 W/m 14,6 C 15,6 C 4,8 km/h (1 Bft) 100,00 %
28.05.2016 22:25 15,6 C 95 % 1009,3 hPa 0,0 l/m 3,2 km/h (1 Bft) N-NO 32 0 min 0,000 mm 0,0 UV-I 0 W/m 14,8 C 15,6 C 4,8 km/h (1 Bft) 100,00 %
28.05.2016 22:26 15,6 C 95 % 1009,4 hPa 0,0 l/m 3,8 km/h (1 Bft) N-NO 32 0 min 0,000 mm 0,0 UV-I 0 W/m 14,8 C 15,6 C 4,8 km/h (1 Bft) 100,00 %
28.05.2016 22:27 15,6 C 95 % 1009,4 hPa 0,0 l/m 2,7 km/h (1 Bft) N-NO 32 0 min 0,000 mm 0,0 UV-I 0 W/m 14,8 C 15,6 C 3,2 km/h (1 Bft) 100,00 %
28.05.2016 22:28 15,7 C 95 % 1009,4 hPa 0,0 l/m 0,9 km/h (0 Bft) O-SO 105 0 min 0,000 mm 0,0 UV-I 0 W/m 14,9 C 15,7 C 1,6 km/h (1 Bft) 100,00 %
28.05.2016 22:29 15,7 C 95 % 1009,3 hPa 0,0 l/m 1,1 km/h (1 Bft) O-SO 105 0 min 0,000 mm 0,0 UV-I 0 W/m 14,9 C 15,7 C 3,2 km/h (1 Bft) 100,00 %
28.05.2016 22:30 15,7 C 95 % 1009,2 hPa 0,0 l/m 0,0 km/h (0 Bft) O-SO 105 0 min 0,000 mm 0,0 UV-I 0 W/m 14,9 C 15,7 C 0,0 km/h (0 Bft) 100,00 %
28.05.2016 22:31 15,7 C 95 % 1009,2 hPa 0,0 l/m 1,3 km/h (1 Bft) O-SO 105 0 min 0,000 mm 0,0 UV-I 0 W/m 14,9 C 15,7 C 3,2 km/h (1 Bft) 95,65 %
28.05.2016 22:32 15,8 C 95 % 1009,2 hPa 0,0 l/m 4,7 km/h (1 Bft) O-NO 73 0 min 0,000 mm 0,0 UV-I 0 W/m 15,0 C 15,8 C 6,4 km/h (2 Bft) 100,00 %
28.05.2016 22:33 15,7 C 95 % 1009,2 hPa 0,0 l/m 5,1 km/h (1 Bft) O-NO 65 0 min 0,000 mm 0,0 UV-I 0 W/m 14,9 C 15,7 C 6,4 km/h (2 Bft) 100,00 %
28.05.2016 22:34 15,7 C 95 % 1009,1 hPa 0,0 l/m 4,8 km/h (1 Bft) O-NO 65 0 min 0,000 mm 0,0 UV-I 0 W/m 14,9 C 15,7 C 6,4 km/h (2 Bft) 100,00 %
28.05.2016 22:35 15,7 C 95 % 1009,1 hPa 0,0 l/m 4,9 km/h (1 Bft) O-NO 76 0 min 0,000 mm 0,0 UV-I 0 W/m 14,9 C 15,7 C 6,4 km/h (2 Bft) 95,65 %
28.05.2016 22:36 15,7 C 95 % 1009,1 hPa 0,0 l/m 4,7 km/h (1 Bft) O 79 0 min 0,000 mm 0,0 UV-I 0 W/m 14,9 C 15,7 C 6,4 km/h (2 Bft) 100,00 %
28.05.2016 22:37 15,7 C 95 % 1009,1 hPa 0,0 l/m 1,4 km/h (1 Bft) O 82 0 min 0,000 mm 0,0 UV-I 0 W/m 14,9 C 15,7 C 3,2 km/h (1 Bft) 100,00 %
28.05.2016 22:38 15,7 C 95 % 1009,1 hPa 0,0 l/m 1,1 km/h (1 Bft) O 94 0 min 0,000 mm 0,0 UV-I 0 W/m 14,9 C 15,7 C 3,2 km/h (1 Bft) 100,00 %
28.05.2016 22:39 15,8 C 95 % 1009,1 hPa 0,0 l/m 2,6 km/h (1 Bft) O 95 0 min 0,000 mm 0,0 UV-I 0 W/m 15,0 C 15,8 C 4,8 km/h (1 Bft) 100,00 %
28.05.2016 22:40 15,7 C 95 % 1009,2 hPa 0,0 l/m 4,2 km/h (1 Bft) O-NO 78 0 min 0,000 mm 0,0 UV-I 0 W/m 14,9 C 15,7 C 8,0 km/h (2 Bft) 100,00 %
28.05.2016 22:41 15,7 C 95 % 1009,2 hPa 0,0 l/m 7,8 km/h (2 Bft) O-NO 74 0 min 0,000 mm 0,0 UV-I 0 W/m 14,9 C 14,9 C 11,3 km/h (2 Bft) 100,00 %
28.05.2016 22:42 15,7 C 95 % 1009,2 hPa 0,0 l/m 8,4 km/h (2 Bft) O-NO 65 0 min 0,000 mm 0,0 UV-I 0 W/m 14,9 C 14,6 C 9,7 km/h (2 Bft) 96,15 %
28.05.2016 22:43 15,7 C 95 % 1009,2 hPa 0,0 l/m 9,0 km/h (2 Bft) NO 56 0 min 0,000 mm 0,0 UV-I 0 W/m 14,9 C 14,3 C 11,3 km/h (2 Bft) 100,00 %
28.05.2016 22:44 15,7 C 95 % 1009,1 hPa 0,0 l/m 7,7 km/h (2 Bft) O-NO 71 0 min 0,000 mm 0,0 UV-I 0 W/m 14,9 C 15,0 C 9,7 km/h (2 Bft) 100,00 %
28.05.2016 22:45 15,7 C 95 % 1009,0 hPa 0,0 l/m 7,3 km/h (2 Bft) O 82 0 min 0,000 mm 0,0 UV-I 0 W/m 14,9 C 15,2 C 11,3 km/h (2 Bft) 100,00 %
28.05.2016 22:46 15,7 C 95 % 1009,0 hPa 0,0 l/m 7,3 km/h (2 Bft) O-NO 61 0 min 0,000 mm 0,0 UV-I 0 W/m 14,9 C 15,2 C 9,7 km/h (2 Bft) 100,00 %
28.05.2016 22:47 15,8 C 95 % 1009,0 hPa 0,0 l/m 8,5 km/h (2 Bft) O-NO 63 0 min 0,000 mm 0,0 UV-I 0 W/m 15,0 C 14,7 C 12,9 km/h (3 Bft) 96,30 %
28.05.2016 22:48 15,8 C 95 % 1009,0 hPa 0,0 l/m 8,3 km/h (2 Bft) O-NO 65 0 min 0,000 mm 0,0 UV-I 0 W/m 15,0 C 14,8 C 11,3 km/h (2 Bft) 90,91 %
28.05.2016 22:49 15,8 C 95 % 1009,0 hPa 0,0 l/m 9,7 km/h (2 Bft) O-NO 76 0 min 0,000 mm 0,0 UV-I 0 W/m 15,0 C 14,1 C 12,9 km/h (3 Bft) 100,00 %
28.05.2016 22:50 15,8 C 95 % 1009,0 hPa 0,0 l/m 9,2 km/h (2 Bft) NO 53 0 min 0,000 mm 0,0 UV-I 0 W/m 15,0 C 14,4 C 12,9 km/h (3 Bft) 100,00 %
28.05.2016 22:51 15,8 C 95 % 1009,0 hPa 0,0 l/m 9,3 km/h (2 Bft) O-NO 60 0 min 0,000 mm 0,0 UV-I 0 W/m 15,0 C 14,3 C 14,5 km/h (3 Bft) 100,00 %
28.05.2016 22:52 15,8 C 95 % 1009,0 hPa 0,0 l/m 8,5 km/h (2 Bft) NO 47 0 min 0,000 mm 0,0 UV-I 0 W/m 15,0 C 14,7 C 11,3 km/h (2 Bft) 100,00 %
28.05.2016 22:53 15,8 C 95 % 1009,0 hPa 0,0 l/m 7,0 km/h (2 Bft) NO 47 0 min 0,000 mm 0,0 UV-I 0 W/m 15,0 C 15,5 C 8,0 km/h (2 Bft) 100,00 %
28.05.2016 22:54 15,8 C 95 % 1009,0 hPa 0,0 l/m 5,9 km/h (2 Bft) O-NO 58 0 min 0,000 mm 0,0 UV-I 0 W/m 15,0 C 15,8 C 8,0 km/h (2 Bft) 95,65 %
28.05.2016 22:55 15,8 C 95 % 1009,0 hPa 0,0 l/m 6,3 km/h (2 Bft) O-NO 59 0 min 0,000 mm 0,0 UV-I 0 W/m 15,0 C 15,8 C 8,0 km/h (2 Bft) 100,00 %
28.05.2016 22:56 15,8 C 95 % 1009,0 hPa 0,0 l/m 5,6 km/h (1 Bft) NO 36 0 min 0,000 mm 0,0 UV-I 0 W/m 15,0 C 15,8 C 6,4 km/h (2 Bft) 100,00 %
28.05.2016 22:57 15,8 C 95 % 1009,0 hPa 0,0 l/m 4,6 km/h (1 Bft) NO 52 0 min 0,000 mm 0,0 UV-I 0 W/m 15,0 C 15,8 C 6,4 km/h (2 Bft) 100,00 %
28.05.2016 22:58 15,8 C 95 % 1009,0 hPa 0,0 l/m 4,5 km/h (1 Bft) NO 51 0 min 0,000 mm 0,0 UV-I 0 W/m 15,0 C 15,8 C 6,4 km/h (2 Bft) 97,37 %
28.05.2016 22:59 15,8 C 95 % 1009,0 hPa 0,0 l/m 4,0 km/h (1 Bft) NO 41 0 min 0,000 mm 0,0 UV-I 0 W/m 15,0 C 15,8 C 4,8 km/h (1 Bft) 100,00 %
28.05.2016 23:00 15,8 C 95 % 1009,0 hPa 0,0 l/m 4,0 km/h (1 Bft) NO 38 0 min 0,000 mm 0,0 UV-I 0 W/m 15,0 C 15,8 C 4,8 km/h (1 Bft) 100,00 %
28.05.2016 23:01 15,7 C 95 % 1009,0 hPa 0,0 l/m 4,7 km/h (1 Bft) NO 51 0 min 0,000 mm 0,0 UV-I 0 W/m 14,9 C 15,7 C 6,4 km/h (2 Bft) 100,00 %
28.05.2016 23:02 15,7 C 95 % 1008,9 hPa 0,0 l/m 4,1 km/h (1 Bft) O-NO 62 0 min 0,000 mm 0,0 UV-I 0 W/m 14,9 C 15,7 C 6,4 km/h (2 Bft) 100,00 %
28.05.2016 23:03 15,7 C 95 % 1009,0 hPa 0,0 l/m 4,1 km/h (1 Bft) O-NO 62 0 min 0,000 mm 0,0 UV-I 0 W/m 14,9 C 15,7 C 4,8 km/h (1 Bft) 100,00 %
28.05.2016 23:04 15,7 C 95 % 1009,0 hPa 0,0 l/m 3,7 km/h (1 Bft) O-NO 61 0 min 0,000 mm 0,0 UV-I 0 W/m 14,9 C 15,7 C 4,8 km/h (1 Bft) 100,00 %
28.05.2016 23:05 15,7 C 95 % 1009,0 hPa 0,0 l/m 3,8 km/h (1 Bft) O-NO 61 0 min 0,000 mm 0,0 UV-I 0 W/m 14,9 C 15,7 C 4,8 km/h (1 Bft) 95,65 %
28.05.2016 23:06 15,7 C 95 % 1009,0 hPa 0,0 l/m 4,5 km/h (1 Bft) O-NO 59 0 min 0,000 mm 0,0 UV-I 0 W/m 14,9 C 15,7 C 8,0 km/h (2 Bft) 100,00 %
28.05.2016 23:07 15,7 C 95 % 1009,0 hPa 0,0 l/m 6,6 km/h (2 Bft) O-NO 60 0 min 0,000 mm 0,0 UV-I 0 W/m 14,9 C 15,6 C 8,0 km/h (2 Bft) 100,00 %
28.05.2016 23:08 15,7 C 95 % 1009,0 hPa 0,0 l/m 5,3 km/h (1 Bft) O-NO 61 0 min 0,000 mm 0,0 UV-I 0 W/m 14,9 C 15,7 C 6,4 km/h (2 Bft) 100,00 %
28.05.2016 23:09 15,7 C 95 % 1009,0 hPa 0,0 l/m 3,9 km/h (1 Bft) NO 54 0 min 0,000 mm 0,0 UV-I 0 W/m 14,9 C 15,7 C 6,4 km/h (2 Bft) 100,00 %
28.05.2016 23:10 15,7 C 95 % 1008,9 hPa 0,0 l/m 5,4 km/h (1 Bft) O-NO 58 0 min 0,000 mm 0,0 UV-I 0 W/m 14,9 C 15,7 C 6,4 km/h (2 Bft) 100,00 %
28.05.2016 23:11 15,7 C 95 % 1008,9 hPa 0,0 l/m 4,8 km/h (1 Bft) O 81 0 min 0,000 mm 0,0 UV-I 0 W/m 14,9 C 15,7 C 6,4 km/h (2 Bft) 96,15 %
28.05.2016 23:12 15,7 C 95 % 1008,9 hPa 0,0 l/m 4,5 km/h (1 Bft) NO 40 0 min 0,000 mm 0,0 UV-I 0 W/m 14,9 C 15,7 C 6,4 km/h (2 Bft) 100,00 %
28.05.2016 23:13 15,7 C 95 % 1008,9 hPa 0,0 l/m 5,9 km/h (2 Bft) O-NO 60 0 min 0,000 mm 0,0 UV-I 0 W/m 14,9 C 15,7 C 6,4 km/h (2 Bft) 100,00 %
28.05.2016 23:14 15,7 C 95 % 1008,9 hPa 0,0 l/m 3,4 km/h (1 Bft) O-NO 61 0 min 0,000 mm 0,0 UV-I 0 W/m 14,9 C 15,7 C 6,4 km/h (2 Bft) 96,15 %
28.05.2016 23:15 15,7 C 95 % 1008,9 hPa 0,0 l/m 4,1 km/h (1 Bft) O-NO 68 0 min 0,000 mm 0,0 UV-I 0 W/m 14,9 C 15,7 C 6,4 km/h (2 Bft) 100,00 %
28.05.2016 23:16 15,7 C 95 % 1008,9 hPa 0,0 l/m 4,5 km/h (1 Bft) O-NO 74 0 min 0,000 mm 0,0 UV-I 0 W/m 14,9 C 15,7 C 6,4 km/h (2 Bft) 100,00 %
28.05.2016 23:17 15,7 C 95 % 1008,9 hPa 0,0 l/m 3,7 km/h (1 Bft) O-NO 71 0 min 0,000 mm 0,0 UV-I 0 W/m 14,9 C 15,7 C 4,8 km/h (1 Bft) 100,00 %
28.05.2016 23:18 15,7 C 95 % 1008,8 hPa 0,0 l/m 5,4 km/h (1 Bft) O-NO 67 0 min 0,000 mm 0,0 UV-I 0 W/m 14,9 C 15,7 C 6,4 km/h (2 Bft) 100,00 %
28.05.2016 23:19 15,7 C 95 % 1008,8 hPa 0,0 l/m 4,0 km/h (1 Bft) O-NO 59 0 min 0,000 mm 0,0 UV-I 0 W/m 14,9 C 15,7 C 6,4 km/h (2 Bft) 100,00 %
28.05.2016 23:20 15,7 C 95 % 1008,8 hPa 0,0 l/m 5,5 km/h (1 Bft) NO 49 0 min 0,000 mm 0,0 UV-I 0 W/m 14,9 C 15,7 C 8,0 km/h (2 Bft) 100,00 %
28.05.2016 23:21 15,7 C 95 % 1008,8 hPa 0,0 l/m 5,1 km/h (1 Bft) O-NO 65 0 min 0,000 mm 0,0 UV-I 0 W/m 14,9 C 15,7 C 6,4 km/h (2 Bft) 100,00 %
28.05.2016 23:22 15,7 C 95 % 1008,8 hPa 0,0 l/m 6,2 km/h (2 Bft) O-NO 63 0 min 0,000 mm 0,0 UV-I 0 W/m 14,9 C 15,7 C 6,4 km/h (2 Bft) 100,00 %
28.05.2016 23:23 15,7 C 95 % 1008,7 hPa 0,0 l/m 5,1 km/h (1 Bft) O-NO 71 0 min 0,000 mm 0,0 UV-I 0 W/m 14,9 C 15,7 C 6,4 km/h (2 Bft) 96,30 %
28.05.2016 23:24 15,7 C 95 % 1008,8 hPa 0,0 l/m 5,2 km/h (1 Bft) O 90 0 min 0,000 mm 0,0 UV-I 0 W/m 14,9 C 15,7 C 6,4 km/h (2 Bft) 100,00 %
28.05.2016 23:25 15,7 C 95 % 1008,7 hPa 0,0 l/m 5,4 km/h (1 Bft) O-NO 78 0 min 0,000 mm 0,0 UV-I 0 W/m 14,9 C 15,7 C 6,4 km/h (2 Bft) 100,00 %
28.05.2016 23:26 15,7 C 95 % 1008,7 hPa 0,0 l/m 5,8 km/h (2 Bft) O 79 0 min 0,000 mm 0,0 UV-I 0 W/m 14,9 C 15,7 C 6,4 km/h (2 Bft) 100,00 %
28.05.2016 23:27 15,7 C 95 % 1008,8 hPa 0,0 l/m 5,1 km/h (1 Bft) O-NO 76 0 min 0,000 mm 0,0 UV-I 0 W/m 14,9 C 15,7 C 6,4 km/h (2 Bft) 100,00 %
28.05.2016 23:28 15,7 C 95 % 1008,8 hPa 0,0 l/m 5,3 km/h (1 Bft) O-NO 60 0 min 0,000 mm 0,0 UV-I 0 W/m 14,9 C 15,7 C 6,4 km/h (2 Bft) 100,00 %
28.05.2016 23:29 15,7 C 95 % 1008,7 hPa 0,0 l/m 4,8 km/h (1 Bft) O-NO 60 0 min 0,000 mm 0,0 UV-I 0 W/m 14,9 C 15,7 C 6,4 km/h (2 Bft) 100,00 %
28.05.2016 23:30 15,7 C 95 % 1008,7 hPa 0,0 l/m 5,9 km/h (2 Bft) NO 54 0 min 0,000 mm 0,0 UV-I 0 W/m 14,9 C 15,7 C 8,0 km/h (2 Bft) 100,00 %
28.05.2016 23:31 15,7 C 95 % 1008,7 hPa 0,0 l/m 4,9 km/h (1 Bft) O-NO 61 0 min 0,000 mm 0,0 UV-I 0 W/m 14,9 C 15,7 C 8,0 km/h (2 Bft) 100,00 %
28.05.2016 23:32 15,7 C 95 % 1008,8 hPa 0,0 l/m 4,2 km/h (1 Bft) O-NO 61 0 min 0,000 mm 0,0 UV-I 0 W/m 14,9 C 15,7 C 4,8 km/h (1 Bft) 94,12 %
28.05.2016 23:33 15,7 C 95 % 1008,8 hPa 0,0 l/m 3,4 km/h (1 Bft) O-NO 59 0 min 0,000 mm 0,0 UV-I 0 W/m 14,9 C 15,7 C 4,8 km/h (1 Bft) 100,00 %
28.05.2016 23:34 15,7 C 95 % 1008,8 hPa 0,0 l/m 4,3 km/h (1 Bft) O-NO 59 0 min 0,000 mm 0,0 UV-I 0 W/m 14,9 C 15,7 C 4,8 km/h (1 Bft) 96,15 %
28.05.2016 23:35 15,7 C 95 % 1008,9 hPa 0,0 l/m 3,4 km/h (1 Bft) O-NO 59 0 min 0,000 mm 0,0 UV-I 0 W/m 14,9 C 15,7 C 4,8 km/h (1 Bft) 96,30 %
28.05.2016 23:36 15,7 C 95 % 1008,9 hPa 0,0 l/m 4,5 km/h (1 Bft) O-NO 65 0 min 0,000 mm 0,0 UV-I 0 W/m 14,9 C 15,7 C 6,4 km/h (2 Bft) 93,33 %
28.05.2016 23:37 15,7 C 95 % 1008,9 hPa 0,0 l/m 4,6 km/h (1 Bft) O-NO 60 0 min 0,000 mm 0,0 UV-I 0 W/m 14,9 C 15,7 C 6,4 km/h (2 Bft) 100,00 %
28.05.2016 23:38 15,7 C 95 % 1008,9 hPa 0,0 l/m 4,7 km/h (1 Bft) NO 48 0 min 0,000 mm 0,0 UV-I 0 W/m 14,9 C 15,7 C 6,4 km/h (2 Bft) 95,83 %
28.05.2016 23:39 15,7 C 95 % 1008,9 hPa 0,0 l/m 4,5 km/h (1 Bft) O-NO 71 0 min 0,000 mm 0,0 UV-I 0 W/m 14,9 C 15,7 C 6,4 km/h (2 Bft) 96,15 %
28.05.2016 23:40 15,7 C 95 % 1008,9 hPa 0,0 l/m 3,9 km/h (1 Bft) O-NO 62 0 min 0,000 mm 0,0 UV-I 0 W/m 14,9 C 15,7 C 4,8 km/h (1 Bft) 96,30 %
28.05.2016 23:41 15,7 C 95 % 1008,9 hPa 0,0 l/m 3,2 km/h (1 Bft) O-NO 62 0 min 0,000 mm 0,0 UV-I 0 W/m 14,9 C 15,7 C 4,8 km/h (1 Bft) 92,86 %
28.05.2016 23:42 15,7 C 95 % 1008,8 hPa 0,0 l/m 2,4 km/h (1 Bft) O-NO 62 0 min 0,000 mm 0,0 UV-I 0 W/m 14,9 C 15,7 C 4,8 km/h (1 Bft) 100,00 %
28.05.2016 23:43 15,7 C 95 % 1008,8 hPa 0,0 l/m 1,1 km/h (1 Bft) O-NO 62 0 min 0,000 mm 0,0 UV-I 0 W/m 14,9 C 15,7 C 3,2 km/h (1 Bft) 95,65 %
28.05.2016 23:44 15,7 C 95 % 1008,8 hPa 0,0 l/m 1,0 km/h (0 Bft) O-NO 62 0 min 0,000 mm 0,0 UV-I 0 W/m 14,9 C 15,7 C 3,2 km/h (1 Bft) 96,30 %
28.05.2016 23:45 15,6 C 95 % 1008,8 hPa 0,0 l/m 0,1 km/h (0 Bft) O-NO 62 0 min 0,000 mm 0,0 UV-I 0 W/m 14,8 C 15,6 C 1,6 km/h (1 Bft) 96,15 %
28.05.2016 23:46 15,6 C 95 % 1008,8 hPa 0,0 l/m 1,8 km/h (1 Bft) O-NO 62 0 min 0,000 mm 0,0 UV-I 0 W/m 14,8 C 15,6 C 3,2 km/h (1 Bft) 96,30 %
28.05.2016 23:47 15,6 C 95 % 1008,8 hPa 0,0 l/m 0,1 km/h (0 Bft) O-NO 62 0 min 0,000 mm 0,0 UV-I 0 W/m 14,8 C 15,6 C 1,6 km/h (1 Bft) 92,86 %
28.05.2016 23:48 15,6 C 95 % 1008,8 hPa 0,0 l/m 0,5 km/h (0 Bft) O-NO 62 0 min 0,000 mm 0,0 UV-I 0 W/m 14,8 C 15,6 C 1,6 km/h (1 Bft) 95,83 %
28.05.2016 23:49 15,5 C 95 % 1008,7 hPa 0,0 l/m 2,2 km/h (1 Bft) O-NO 62 0 min 0,000 mm 0,0 UV-I 0 W/m 14,7 C 15,5 C 3,2 km/h (1 Bft) 100,00 %
28.05.2016 23:50 15,4 C 94 % 1008,7 hPa 0,0 l/m 0,5 km/h (0 Bft) O-NO 62 0 min 0,000 mm 0,0 UV-I 0 W/m 14,4 C 15,4 C 1,6 km/h (1 Bft) 96,88 %
28.05.2016 23:51 15,3 C 94 % 1008,7 hPa 0,0 l/m 0,1 km/h (0 Bft) O-NO 62 0 min 0,000 mm 0,0 UV-I 0 W/m 14,3 C 15,3 C 1,6 km/h (1 Bft) 100,00 %
28.05.2016 23:52 15,3 C 94 % 1008,7 hPa 0,0 l/m 0,0 km/h (0 Bft) O-NO 62 0 min 0,000 mm 0,0 UV-I 0 W/m 14,3 C 15,3 C 0,0 km/h (0 Bft) 95,83 %
28.05.2016 23:53 15,2 C 94 % 1008,6 hPa 0,0 l/m 0,0 km/h (0 Bft) O-NO 62 0 min 0,000 mm 0,0 UV-I 0 W/m 14,2 C 15,2 C 0,0 km/h (0 Bft) 95,65 %
28.05.2016 23:54 15,1 C 94 % 1008,6 hPa 0,0 l/m 0,0 km/h (0 Bft) O-NO 62 0 min 0,000 mm 0,0 UV-I 0 W/m 14,1 C 15,1 C 0,0 km/h (0 Bft) 95,83 %
28.05.2016 23:55 15,1 C 95 % 1008,6 hPa 0,0 l/m 0,0 km/h (0 Bft) O-NO 62 0 min 0,000 mm 0,0 UV-I 0 W/m 14,3 C 15,1 C 0,0 km/h (0 Bft) 95,83 %
28.05.2016 23:56 15,0 C 95 % 1008,6 hPa 0,0 l/m 0,0 km/h (0 Bft) O-NO 62 0 min 0,000 mm 0,0 UV-I 0 W/m 14,2 C 15,0 C 0,0 km/h (0 Bft) 100,00 %
28.05.2016 23:57 15,1 C 95 % 1008,6 hPa 0,0 l/m 0,7 km/h (0 Bft) O-NO 62 0 min 0,000 mm 0,0 UV-I 0 W/m 14,3 C 15,1 C 3,2 km/h (1 Bft) 96,30 %
28.05.2016 23:58 15,1 C 96 % 1008,6 hPa 0,0 l/m 4,0 km/h (1 Bft) O-NO 62 0 min 0,000 mm 0,0 UV-I 0 W/m 14,5 C 15,1 C 4,8 km/h (1 Bft) 100,00 %
28.05.2016 23:59 15,1 C 96 % 1008,5 hPa 0,0 l/m 4,2 km/h (1 Bft) O-NO 57 0 min 0,000 mm 0,0 UV-I 0 W/m 14,5 C 15,1 C 4,8 km/h (1 Bft) 92,59 %
_ Min-Zeit 05:10 15:31 19:20 - 00:29 - - - - - - 05:10 20:20 00:29 17:50
Minimum _ 13,5 C 52 % 1006,7 hPa - 0,0 km/h (0 Bft) - - - - - - 12,6 C 8,8 C 0,0 km/h (0 Bft) 86,67 %
_ Max-Zeit 16:15 23:58 00:00 20:20 20:08 - - 07:40 14:02 12:52 13:04 19:33 16:15 20:08 00:00
Maximum _ 26,1 C 96 % 1012,6 hPa 8,6 l/m 38,6 km/h
S-SW (5 Bft)
- - 5 min 0,559 mm 6,6 UV-I 1126 W/m 19,6 C 26,0 C 78,9 km/h
S (9 Bft)
100,00 %
Durchschnitt _ 19,3 C 81 % 1010,3 hPa #28,2 l/m 3,5 km/h (1 Bft) NO - #9:08 h #4,318 mm 3,4 UV-I 455 W/m 15,6 C 19,1 C 6,0 km/h (2 Bft) 98,55 %